<?xml version="1.0" encoding="UTF-8" ?>
<gpx xmlns="http://www.topografix.com/GPX/1/1" version="1.1" creator="RouteGadget GPS Tracking" xmlns:xsi="http://www.w3.org/2001/XMLSchema-instance" xmlns:tp1="http://www.garmin.com/xmlschemas/TrackPointExtension/v1" xsi:schemaLocation="http://www.topografix.com/GPX/1/1 http://www.topografix.com/GPX/1/1/gpx.xsd http://www.garmin.com/xmlschemas/TrackPointExtension/v1 http://www.garmin.com/xmlschemas/TrackPointExtensionv1.xsd">
<trk>
<trkseg><trkpt lat="39.475468" lon="-8.216387">
<time>2021-10-07T12:17:29Z</time>
</trkpt>
<trkpt lat="39.475467" lon="-8.216387">
<time>2021-10-07T12:17:30Z</time>
</trkpt>
<trkpt lat="39.475467" lon="-8.216387">
<time>2021-10-07T12:17:31Z</time>
</trkpt>
<trkpt lat="39.475467" lon="-8.216388">
<time>2021-10-07T12:17:32Z</time>
</trkpt>
<trkpt lat="39.475459" lon="-8.216399">
<time>2021-10-07T12:17:33Z</time>
</trkpt>
<trkpt lat="39.475443" lon="-8.216412">
<time>2021-10-07T12:17:34Z</time>
</trkpt>
<trkpt lat="39.475419" lon="-8.216429">
<time>2021-10-07T12:17:35Z</time>
</trkpt>
<trkpt lat="39.475392" lon="-8.216457">
<time>2021-10-07T12:17:36Z</time>
</trkpt>
<trkpt lat="39.475365" lon="-8.216493">
<time>2021-10-07T12:17:37Z</time>
</trkpt>
<trkpt lat="39.475329" lon="-8.216536">
<time>2021-10-07T12:17:38Z</time>
</trkpt>
<trkpt lat="39.47529" lon="-8.216574">
<time>2021-10-07T12:17:39Z</time>
</trkpt>
<trkpt lat="39.475247" lon="-8.216604">
<time>2021-10-07T12:17:40Z</time>
</trkpt>
<trkpt lat="39.475198" lon="-8.216625">
<time>2021-10-07T12:17:41Z</time>
</trkpt>
<trkpt lat="39.475151" lon="-8.21665">
<time>2021-10-07T12:17:42Z</time>
</trkpt>
<trkpt lat="39.475098" lon="-8.216673">
<time>2021-10-07T12:17:43Z</time>
</trkpt>
<trkpt lat="39.475043" lon="-8.216693">
<time>2021-10-07T12:17:44Z</time>
</trkpt>
<trkpt lat="39.474982" lon="-8.216716">
<time>2021-10-07T12:17:45Z</time>
</trkpt>
<trkpt lat="39.474921" lon="-8.216741">
<time>2021-10-07T12:17:46Z</time>
</trkpt>
<trkpt lat="39.474859" lon="-8.216764">
<time>2021-10-07T12:17:47Z</time>
</trkpt>
<trkpt lat="39.474795" lon="-8.216786">
<time>2021-10-07T12:17:48Z</time>
</trkpt>
<trkpt lat="39.474722" lon="-8.216808">
<time>2021-10-07T12:17:49Z</time>
</trkpt>
<trkpt lat="39.474658" lon="-8.216832">
<time>2021-10-07T12:17:50Z</time>
</trkpt>
<trkpt lat="39.474593" lon="-8.216855">
<time>2021-10-07T12:17:51Z</time>
</trkpt>
<trkpt lat="39.474567" lon="-8.216908">
<time>2021-10-07T12:17:52Z</time>
</trkpt>
<trkpt lat="39.47456" lon="-8.216988">
<time>2021-10-07T12:17:53Z</time>
</trkpt>
<trkpt lat="39.474573" lon="-8.217075">
<time>2021-10-07T12:17:54Z</time>
</trkpt>
<trkpt lat="39.474594" lon="-8.217166">
<time>2021-10-07T12:17:55Z</time>
</trkpt>
<trkpt lat="39.474623" lon="-8.21726">
<time>2021-10-07T12:17:56Z</time>
</trkpt>
<trkpt lat="39.474651" lon="-8.217358">
<time>2021-10-07T12:17:57Z</time>
</trkpt>
<trkpt lat="39.474678" lon="-8.217461">
<time>2021-10-07T12:17:58Z</time>
</trkpt>
<trkpt lat="39.474708" lon="-8.21757">
<time>2021-10-07T12:17:59Z</time>
</trkpt>
<trkpt lat="39.47474" lon="-8.217684">
<time>2021-10-07T12:18:00Z</time>
</trkpt>
<trkpt lat="39.474775" lon="-8.217805">
<time>2021-10-07T12:18:01Z</time>
</trkpt>
<trkpt lat="39.474812" lon="-8.217928">
<time>2021-10-07T12:18:02Z</time>
</trkpt>
<trkpt lat="39.474852" lon="-8.218056">
<time>2021-10-07T12:18:03Z</time>
</trkpt>
<trkpt lat="39.474895" lon="-8.218186">
<time>2021-10-07T12:18:04Z</time>
</trkpt>
<trkpt lat="39.474942" lon="-8.218316">
<time>2021-10-07T12:18:05Z</time>
</trkpt>
<trkpt lat="39.474988" lon="-8.218446">
<time>2021-10-07T12:18:06Z</time>
</trkpt>
<trkpt lat="39.475035" lon="-8.218576">
<time>2021-10-07T12:18:07Z</time>
</trkpt>
<trkpt lat="39.47508" lon="-8.21871">
<time>2021-10-07T12:18:08Z</time>
</trkpt>
<trkpt lat="39.475119" lon="-8.218848">
<time>2021-10-07T12:18:09Z</time>
</trkpt>
<trkpt lat="39.475157" lon="-8.218982">
<time>2021-10-07T12:18:10Z</time>
</trkpt>
<trkpt lat="39.475199" lon="-8.219107">
<time>2021-10-07T12:18:11Z</time>
</trkpt>
<trkpt lat="39.47525" lon="-8.219226">
<time>2021-10-07T12:18:12Z</time>
</trkpt>
<trkpt lat="39.475306" lon="-8.21934">
<time>2021-10-07T12:18:13Z</time>
</trkpt>
<trkpt lat="39.475369" lon="-8.219457">
<time>2021-10-07T12:18:14Z</time>
</trkpt>
<trkpt lat="39.475436" lon="-8.219575">
<time>2021-10-07T12:18:15Z</time>
</trkpt>
<trkpt lat="39.475506" lon="-8.219699">
<time>2021-10-07T12:18:16Z</time>
</trkpt>
<trkpt lat="39.475578" lon="-8.219826">
<time>2021-10-07T12:18:17Z</time>
</trkpt>
<trkpt lat="39.47565" lon="-8.219954">
<time>2021-10-07T12:18:18Z</time>
</trkpt>
<trkpt lat="39.475722" lon="-8.220084">
<time>2021-10-07T12:18:19Z</time>
</trkpt>
<trkpt lat="39.475791" lon="-8.22021">
<time>2021-10-07T12:18:20Z</time>
</trkpt>
<trkpt lat="39.475857" lon="-8.220333">
<time>2021-10-07T12:18:21Z</time>
</trkpt>
<trkpt lat="39.475917" lon="-8.220445">
<time>2021-10-07T12:18:22Z</time>
</trkpt>
<trkpt lat="39.47597" lon="-8.220545">
<time>2021-10-07T12:18:23Z</time>
</trkpt>
<trkpt lat="39.476024" lon="-8.22063">
<time>2021-10-07T12:18:24Z</time>
</trkpt>
<trkpt lat="39.476086" lon="-8.220707">
<time>2021-10-07T12:18:25Z</time>
</trkpt>
<trkpt lat="39.476159" lon="-8.22077">
<time>2021-10-07T12:18:26Z</time>
</trkpt>
<trkpt lat="39.476242" lon="-8.220813">
<time>2021-10-07T12:18:27Z</time>
</trkpt>
<trkpt lat="39.476326" lon="-8.220835">
<time>2021-10-07T12:18:28Z</time>
</trkpt>
<trkpt lat="39.476416" lon="-8.220843">
<time>2021-10-07T12:18:29Z</time>
</trkpt>
<trkpt lat="39.476517" lon="-8.22085">
<time>2021-10-07T12:18:30Z</time>
</trkpt>
<trkpt lat="39.476614" lon="-8.220852">
<time>2021-10-07T12:18:31Z</time>
</trkpt>
<trkpt lat="39.476712" lon="-8.220859">
<time>2021-10-07T12:18:32Z</time>
</trkpt>
<trkpt lat="39.476815" lon="-8.220878">
<time>2021-10-07T12:18:33Z</time>
</trkpt>
<trkpt lat="39.476908" lon="-8.220912">
<time>2021-10-07T12:18:34Z</time>
</trkpt>
<trkpt lat="39.477003" lon="-8.22096">
<time>2021-10-07T12:18:35Z</time>
</trkpt>
<trkpt lat="39.477104" lon="-8.221017">
<time>2021-10-07T12:18:36Z</time>
</trkpt>
<trkpt lat="39.477209" lon="-8.221078">
<time>2021-10-07T12:18:37Z</time>
</trkpt>
<trkpt lat="39.477316" lon="-8.221142">
<time>2021-10-07T12:18:38Z</time>
</trkpt>
<trkpt lat="39.47742" lon="-8.221214">
<time>2021-10-07T12:18:39Z</time>
</trkpt>
<trkpt lat="39.477519" lon="-8.221291">
<time>2021-10-07T12:18:40Z</time>
</trkpt>
<trkpt lat="39.477605" lon="-8.22137">
<time>2021-10-07T12:18:41Z</time>
</trkpt>
<trkpt lat="39.477662" lon="-8.221453">
<time>2021-10-07T12:18:42Z</time>
</trkpt>
<trkpt lat="39.477707" lon="-8.221544">
<time>2021-10-07T12:18:43Z</time>
</trkpt>
<trkpt lat="39.477722" lon="-8.221637">
<time>2021-10-07T12:18:44Z</time>
</trkpt>
<trkpt lat="39.477718" lon="-8.221729">
<time>2021-10-07T12:18:45Z</time>
</trkpt>
<trkpt lat="39.477703" lon="-8.221807">
<time>2021-10-07T12:18:46Z</time>
</trkpt>
<trkpt lat="39.477674" lon="-8.221865">
<time>2021-10-07T12:18:47Z</time>
</trkpt>
<trkpt lat="39.477638" lon="-8.22188">
<time>2021-10-07T12:18:48Z</time>
</trkpt>
<trkpt lat="39.477629" lon="-8.221923">
<time>2021-10-07T12:18:49Z</time>
</trkpt>
<trkpt lat="39.477648" lon="-8.221984">
<time>2021-10-07T12:18:50Z</time>
</trkpt>
<trkpt lat="39.477691" lon="-8.222023">
<time>2021-10-07T12:18:51Z</time>
</trkpt>
<trkpt lat="39.477745" lon="-8.22205">
<time>2021-10-07T12:18:52Z</time>
</trkpt>
<trkpt lat="39.477799" lon="-8.222081">
<time>2021-10-07T12:18:53Z</time>
</trkpt>
<trkpt lat="39.477856" lon="-8.222119">
<time>2021-10-07T12:18:54Z</time>
</trkpt>
<trkpt lat="39.47791" lon="-8.222156">
<time>2021-10-07T12:18:55Z</time>
</trkpt>
<trkpt lat="39.477962" lon="-8.2222">
<time>2021-10-07T12:18:56Z</time>
</trkpt>
<trkpt lat="39.478015" lon="-8.222252">
<time>2021-10-07T12:18:57Z</time>
</trkpt>
<trkpt lat="39.478067" lon="-8.222303">
<time>2021-10-07T12:18:58Z</time>
</trkpt>
<trkpt lat="39.478124" lon="-8.222347">
<time>2021-10-07T12:18:59Z</time>
</trkpt>
<trkpt lat="39.478179" lon="-8.222392">
<time>2021-10-07T12:19:00Z</time>
</trkpt>
<trkpt lat="39.478232" lon="-8.22245">
<time>2021-10-07T12:19:01Z</time>
</trkpt>
<trkpt lat="39.478285" lon="-8.222507">
<time>2021-10-07T12:19:02Z</time>
</trkpt>
<trkpt lat="39.478327" lon="-8.222568">
<time>2021-10-07T12:19:03Z</time>
</trkpt>
<trkpt lat="39.478352" lon="-8.22263">
<time>2021-10-07T12:19:04Z</time>
</trkpt>
<trkpt lat="39.478384" lon="-8.222691">
<time>2021-10-07T12:19:05Z</time>
</trkpt>
<trkpt lat="39.478423" lon="-8.222752">
<time>2021-10-07T12:19:06Z</time>
</trkpt>
<trkpt lat="39.478463" lon="-8.222811">
<time>2021-10-07T12:19:07Z</time>
</trkpt>
<trkpt lat="39.478508" lon="-8.222869">
<time>2021-10-07T12:19:08Z</time>
</trkpt>
<trkpt lat="39.478551" lon="-8.222927">
<time>2021-10-07T12:19:09Z</time>
</trkpt>
<trkpt lat="39.478599" lon="-8.222978">
<time>2021-10-07T12:19:10Z</time>
</trkpt>
<trkpt lat="39.478647" lon="-8.223025">
<time>2021-10-07T12:19:11Z</time>
</trkpt>
<trkpt lat="39.478693" lon="-8.223075">
<time>2021-10-07T12:19:12Z</time>
</trkpt>
<trkpt lat="39.478732" lon="-8.223129">
<time>2021-10-07T12:19:13Z</time>
</trkpt>
<trkpt lat="39.47877" lon="-8.223187">
<time>2021-10-07T12:19:14Z</time>
</trkpt>
<trkpt lat="39.478808" lon="-8.223245">
<time>2021-10-07T12:19:15Z</time>
</trkpt>
<trkpt lat="39.478843" lon="-8.223305">
<time>2021-10-07T12:19:16Z</time>
</trkpt>
<trkpt lat="39.478877" lon="-8.223363">
<time>2021-10-07T12:19:17Z</time>
</trkpt>
<trkpt lat="39.478908" lon="-8.223418">
<time>2021-10-07T12:19:18Z</time>
</trkpt>
<trkpt lat="39.478938" lon="-8.223469">
<time>2021-10-07T12:19:19Z</time>
</trkpt>
<trkpt lat="39.478966" lon="-8.223518">
<time>2021-10-07T12:19:20Z</time>
</trkpt>
<trkpt lat="39.478991" lon="-8.223561">
<time>2021-10-07T12:19:21Z</time>
</trkpt>
<trkpt lat="39.479016" lon="-8.223597">
<time>2021-10-07T12:19:22Z</time>
</trkpt>
<trkpt lat="39.479046" lon="-8.22363">
<time>2021-10-07T12:19:23Z</time>
</trkpt>
<trkpt lat="39.479075" lon="-8.223663">
<time>2021-10-07T12:19:24Z</time>
</trkpt>
<trkpt lat="39.479101" lon="-8.223688">
<time>2021-10-07T12:19:25Z</time>
</trkpt>
<trkpt lat="39.479125" lon="-8.223717">
<time>2021-10-07T12:19:26Z</time>
</trkpt>
<trkpt lat="39.479146" lon="-8.223754">
<time>2021-10-07T12:19:27Z</time>
</trkpt>
<trkpt lat="39.479167" lon="-8.22379">
<time>2021-10-07T12:19:28Z</time>
</trkpt>
<trkpt lat="39.479182" lon="-8.223829">
<time>2021-10-07T12:19:29Z</time>
</trkpt>
<trkpt lat="39.479189" lon="-8.22387">
<time>2021-10-07T12:19:30Z</time>
</trkpt>
<trkpt lat="39.479184" lon="-8.223909">
<time>2021-10-07T12:19:31Z</time>
</trkpt>
<trkpt lat="39.479169" lon="-8.223946">
<time>2021-10-07T12:19:32Z</time>
</trkpt>
<trkpt lat="39.479139" lon="-8.223973">
<time>2021-10-07T12:19:33Z</time>
</trkpt>
<trkpt lat="39.479099" lon="-8.223999">
<time>2021-10-07T12:19:34Z</time>
</trkpt>
<trkpt lat="39.479056" lon="-8.224022">
<time>2021-10-07T12:19:35Z</time>
</trkpt>
<trkpt lat="39.47901" lon="-8.224049">
<time>2021-10-07T12:19:36Z</time>
</trkpt>
<trkpt lat="39.478962" lon="-8.224083">
<time>2021-10-07T12:19:37Z</time>
</trkpt>
<trkpt lat="39.478913" lon="-8.224127">
<time>2021-10-07T12:19:38Z</time>
</trkpt>
<trkpt lat="39.478866" lon="-8.224175">
<time>2021-10-07T12:19:39Z</time>
</trkpt>
<trkpt lat="39.478816" lon="-8.224226">
<time>2021-10-07T12:19:40Z</time>
</trkpt>
<trkpt lat="39.478765" lon="-8.224279">
<time>2021-10-07T12:19:41Z</time>
</trkpt>
<trkpt lat="39.478714" lon="-8.224331">
<time>2021-10-07T12:19:42Z</time>
</trkpt>
<trkpt lat="39.478659" lon="-8.224384">
<time>2021-10-07T12:19:43Z</time>
</trkpt>
<trkpt lat="39.478604" lon="-8.22444">
<time>2021-10-07T12:19:44Z</time>
</trkpt>
<trkpt lat="39.478549" lon="-8.224498">
<time>2021-10-07T12:19:45Z</time>
</trkpt>
<trkpt lat="39.478491" lon="-8.224557">
<time>2021-10-07T12:19:46Z</time>
</trkpt>
<trkpt lat="39.478435" lon="-8.224615">
<time>2021-10-07T12:19:47Z</time>
</trkpt>
<trkpt lat="39.478379" lon="-8.224677">
<time>2021-10-07T12:19:48Z</time>
</trkpt>
<trkpt lat="39.478322" lon="-8.22474">
<time>2021-10-07T12:19:49Z</time>
</trkpt>
<trkpt lat="39.478262" lon="-8.224803">
<time>2021-10-07T12:19:50Z</time>
</trkpt>
<trkpt lat="39.478202" lon="-8.224868">
<time>2021-10-07T12:19:51Z</time>
</trkpt>
<trkpt lat="39.478143" lon="-8.224933">
<time>2021-10-07T12:19:52Z</time>
</trkpt>
<trkpt lat="39.478082" lon="-8.224999">
<time>2021-10-07T12:19:53Z</time>
</trkpt>
<trkpt lat="39.478021" lon="-8.225064">
<time>2021-10-07T12:19:54Z</time>
</trkpt>
<trkpt lat="39.477962" lon="-8.225131">
<time>2021-10-07T12:19:55Z</time>
</trkpt>
<trkpt lat="39.477903" lon="-8.2252">
<time>2021-10-07T12:19:56Z</time>
</trkpt>
<trkpt lat="39.477844" lon="-8.225272">
<time>2021-10-07T12:19:57Z</time>
</trkpt>
<trkpt lat="39.477784" lon="-8.225343">
<time>2021-10-07T12:19:58Z</time>
</trkpt>
<trkpt lat="39.477724" lon="-8.225412">
<time>2021-10-07T12:19:59Z</time>
</trkpt>
<trkpt lat="39.477665" lon="-8.225484">
<time>2021-10-07T12:20:00Z</time>
</trkpt>
<trkpt lat="39.477604" lon="-8.225554">
<time>2021-10-07T12:20:01Z</time>
</trkpt>
<trkpt lat="39.477541" lon="-8.225623">
<time>2021-10-07T12:20:02Z</time>
</trkpt>
<trkpt lat="39.477477" lon="-8.22569">
<time>2021-10-07T12:20:03Z</time>
</trkpt>
<trkpt lat="39.477412" lon="-8.225754">
<time>2021-10-07T12:20:04Z</time>
</trkpt>
<trkpt lat="39.477346" lon="-8.225816">
<time>2021-10-07T12:20:05Z</time>
</trkpt>
<trkpt lat="39.47728" lon="-8.225879">
<time>2021-10-07T12:20:06Z</time>
</trkpt>
<trkpt lat="39.477213" lon="-8.22594">
<time>2021-10-07T12:20:07Z</time>
</trkpt>
<trkpt lat="39.477145" lon="-8.226001">
<time>2021-10-07T12:20:08Z</time>
</trkpt>
<trkpt lat="39.477079" lon="-8.226065">
<time>2021-10-07T12:20:09Z</time>
</trkpt>
<trkpt lat="39.477013" lon="-8.226131">
<time>2021-10-07T12:20:10Z</time>
</trkpt>
<trkpt lat="39.476946" lon="-8.226196">
<time>2021-10-07T12:20:11Z</time>
</trkpt>
<trkpt lat="39.476879" lon="-8.22626">
<time>2021-10-07T12:20:12Z</time>
</trkpt>
<trkpt lat="39.476813" lon="-8.226323">
<time>2021-10-07T12:20:13Z</time>
</trkpt>
<trkpt lat="39.476746" lon="-8.226384">
<time>2021-10-07T12:20:14Z</time>
</trkpt>
<trkpt lat="39.476678" lon="-8.226446">
<time>2021-10-07T12:20:15Z</time>
</trkpt>
<trkpt lat="39.476611" lon="-8.226508">
<time>2021-10-07T12:20:16Z</time>
</trkpt>
<trkpt lat="39.476544" lon="-8.22657">
<time>2021-10-07T12:20:17Z</time>
</trkpt>
<trkpt lat="39.476478" lon="-8.226633">
<time>2021-10-07T12:20:18Z</time>
</trkpt>
<trkpt lat="39.476412" lon="-8.226697">
<time>2021-10-07T12:20:19Z</time>
</trkpt>
<trkpt lat="39.476346" lon="-8.22676">
<time>2021-10-07T12:20:20Z</time>
</trkpt>
<trkpt lat="39.476279" lon="-8.226824">
<time>2021-10-07T12:20:21Z</time>
</trkpt>
<trkpt lat="39.476213" lon="-8.22689">
<time>2021-10-07T12:20:22Z</time>
</trkpt>
<trkpt lat="39.476146" lon="-8.226956">
<time>2021-10-07T12:20:23Z</time>
</trkpt>
<trkpt lat="39.47608" lon="-8.22702">
<time>2021-10-07T12:20:24Z</time>
</trkpt>
<trkpt lat="39.47601" lon="-8.227077">
<time>2021-10-07T12:20:25Z</time>
</trkpt>
<trkpt lat="39.475935" lon="-8.227119">
<time>2021-10-07T12:20:26Z</time>
</trkpt>
<trkpt lat="39.475845" lon="-8.227129">
<time>2021-10-07T12:20:27Z</time>
</trkpt>
<trkpt lat="39.47576" lon="-8.227133">
<time>2021-10-07T12:20:28Z</time>
</trkpt>
<trkpt lat="39.475676" lon="-8.227133">
<time>2021-10-07T12:20:29Z</time>
</trkpt>
<trkpt lat="39.475593" lon="-8.227136">
<time>2021-10-07T12:20:30Z</time>
</trkpt>
<trkpt lat="39.475511" lon="-8.227149">
<time>2021-10-07T12:20:31Z</time>
</trkpt>
<trkpt lat="39.475428" lon="-8.227174">
<time>2021-10-07T12:20:32Z</time>
</trkpt>
<trkpt lat="39.475345" lon="-8.227201">
<time>2021-10-07T12:20:33Z</time>
</trkpt>
<trkpt lat="39.475265" lon="-8.227232">
<time>2021-10-07T12:20:34Z</time>
</trkpt>
<trkpt lat="39.475185" lon="-8.227265">
<time>2021-10-07T12:20:35Z</time>
</trkpt>
<trkpt lat="39.475105" lon="-8.227302">
<time>2021-10-07T12:20:36Z</time>
</trkpt>
<trkpt lat="39.475025" lon="-8.227346">
<time>2021-10-07T12:20:37Z</time>
</trkpt>
<trkpt lat="39.47494" lon="-8.227392">
<time>2021-10-07T12:20:38Z</time>
</trkpt>
<trkpt lat="39.474857" lon="-8.22744">
<time>2021-10-07T12:20:39Z</time>
</trkpt>
<trkpt lat="39.474774" lon="-8.227485">
<time>2021-10-07T12:20:40Z</time>
</trkpt>
<trkpt lat="39.474685" lon="-8.227523">
<time>2021-10-07T12:20:41Z</time>
</trkpt>
<trkpt lat="39.474599" lon="-8.227562">
<time>2021-10-07T12:20:42Z</time>
</trkpt>
<trkpt lat="39.474514" lon="-8.227602">
<time>2021-10-07T12:20:43Z</time>
</trkpt>
<trkpt lat="39.474433" lon="-8.227642">
<time>2021-10-07T12:20:44Z</time>
</trkpt>
<trkpt lat="39.47435" lon="-8.227682">
<time>2021-10-07T12:20:45Z</time>
</trkpt>
<trkpt lat="39.47427" lon="-8.227719">
<time>2021-10-07T12:20:46Z</time>
</trkpt>
<trkpt lat="39.474193" lon="-8.227757">
<time>2021-10-07T12:20:47Z</time>
</trkpt>
<trkpt lat="39.474126" lon="-8.227793">
<time>2021-10-07T12:20:48Z</time>
</trkpt>
<trkpt lat="39.474067" lon="-8.227822">
<time>2021-10-07T12:20:49Z</time>
</trkpt>
<trkpt lat="39.474018" lon="-8.227846">
<time>2021-10-07T12:20:50Z</time>
</trkpt>
<trkpt lat="39.47398" lon="-8.227858">
<time>2021-10-07T12:20:51Z</time>
</trkpt>
<trkpt lat="39.473948" lon="-8.227863">
<time>2021-10-07T12:20:52Z</time>
</trkpt>
<trkpt lat="39.473912" lon="-8.22787">
<time>2021-10-07T12:20:53Z</time>
</trkpt>
<trkpt lat="39.473864" lon="-8.227884">
<time>2021-10-07T12:20:54Z</time>
</trkpt>
<trkpt lat="39.47381" lon="-8.22791">
<time>2021-10-07T12:20:55Z</time>
</trkpt>
<trkpt lat="39.473752" lon="-8.227943">
<time>2021-10-07T12:20:56Z</time>
</trkpt>
<trkpt lat="39.473691" lon="-8.227979">
<time>2021-10-07T12:20:57Z</time>
</trkpt>
<trkpt lat="39.473632" lon="-8.228016">
<time>2021-10-07T12:20:58Z</time>
</trkpt>
<trkpt lat="39.473571" lon="-8.228058">
<time>2021-10-07T12:20:59Z</time>
</trkpt>
<trkpt lat="39.473515" lon="-8.228111">
<time>2021-10-07T12:21:00Z</time>
</trkpt>
<trkpt lat="39.473463" lon="-8.228177">
<time>2021-10-07T12:21:01Z</time>
</trkpt>
<trkpt lat="39.473416" lon="-8.228255">
<time>2021-10-07T12:21:02Z</time>
</trkpt>
<trkpt lat="39.473367" lon="-8.228331">
<time>2021-10-07T12:21:03Z</time>
</trkpt>
<trkpt lat="39.473319" lon="-8.228405">
<time>2021-10-07T12:21:04Z</time>
</trkpt>
<trkpt lat="39.473262" lon="-8.22847">
<time>2021-10-07T12:21:05Z</time>
</trkpt>
<trkpt lat="39.473197" lon="-8.228523">
<time>2021-10-07T12:21:06Z</time>
</trkpt>
<trkpt lat="39.473129" lon="-8.228575">
<time>2021-10-07T12:21:07Z</time>
</trkpt>
<trkpt lat="39.473058" lon="-8.228622">
<time>2021-10-07T12:21:08Z</time>
</trkpt>
<trkpt lat="39.472986" lon="-8.228669">
<time>2021-10-07T12:21:09Z</time>
</trkpt>
<trkpt lat="39.472918" lon="-8.228719">
<time>2021-10-07T12:21:10Z</time>
</trkpt>
<trkpt lat="39.472862" lon="-8.228771">
<time>2021-10-07T12:21:11Z</time>
</trkpt>
<trkpt lat="39.472826" lon="-8.228824">
<time>2021-10-07T12:21:12Z</time>
</trkpt>
<trkpt lat="39.472824" lon="-8.228885">
<time>2021-10-07T12:21:13Z</time>
</trkpt>
<trkpt lat="39.472842" lon="-8.228941">
<time>2021-10-07T12:21:14Z</time>
</trkpt>
<trkpt lat="39.472871" lon="-8.228995">
<time>2021-10-07T12:21:15Z</time>
</trkpt>
<trkpt lat="39.472906" lon="-8.22905">
<time>2021-10-07T12:21:16Z</time>
</trkpt>
<trkpt lat="39.472942" lon="-8.229103">
<time>2021-10-07T12:21:17Z</time>
</trkpt>
<trkpt lat="39.47298" lon="-8.229148">
<time>2021-10-07T12:21:18Z</time>
</trkpt>
<trkpt lat="39.473016" lon="-8.229168">
<time>2021-10-07T12:21:19Z</time>
</trkpt>
<trkpt lat="39.473059" lon="-8.229162">
<time>2021-10-07T12:21:20Z</time>
</trkpt>
<trkpt lat="39.473111" lon="-8.229145">
<time>2021-10-07T12:21:21Z</time>
</trkpt>
<trkpt lat="39.473166" lon="-8.229123">
<time>2021-10-07T12:21:22Z</time>
</trkpt>
<trkpt lat="39.473226" lon="-8.229108">
<time>2021-10-07T12:21:23Z</time>
</trkpt>
<trkpt lat="39.473286" lon="-8.22909">
<time>2021-10-07T12:21:24Z</time>
</trkpt>
<trkpt lat="39.473344" lon="-8.22906">
<time>2021-10-07T12:21:25Z</time>
</trkpt>
<trkpt lat="39.473399" lon="-8.229028">
<time>2021-10-07T12:21:26Z</time>
</trkpt>
<trkpt lat="39.473456" lon="-8.228996">
<time>2021-10-07T12:21:27Z</time>
</trkpt>
<trkpt lat="39.473509" lon="-8.228963">
<time>2021-10-07T12:21:28Z</time>
</trkpt>
<trkpt lat="39.473559" lon="-8.228916">
<time>2021-10-07T12:21:29Z</time>
</trkpt>
<trkpt lat="39.473607" lon="-8.228868">
<time>2021-10-07T12:21:30Z</time>
</trkpt>
<trkpt lat="39.473658" lon="-8.228818">
<time>2021-10-07T12:21:31Z</time>
</trkpt>
<trkpt lat="39.473714" lon="-8.228778">
<time>2021-10-07T12:21:32Z</time>
</trkpt>
<trkpt lat="39.473776" lon="-8.228753">
<time>2021-10-07T12:21:33Z</time>
</trkpt>
<trkpt lat="39.473836" lon="-8.228739">
<time>2021-10-07T12:21:34Z</time>
</trkpt>
<trkpt lat="39.473896" lon="-8.228734">
<time>2021-10-07T12:21:35Z</time>
</trkpt>
<trkpt lat="39.473954" lon="-8.22874">
<time>2021-10-07T12:21:36Z</time>
</trkpt>
<trkpt lat="39.474009" lon="-8.22877">
<time>2021-10-07T12:21:37Z</time>
</trkpt>
<trkpt lat="39.474056" lon="-8.22882">
<time>2021-10-07T12:21:38Z</time>
</trkpt>
<trkpt lat="39.474098" lon="-8.228882">
<time>2021-10-07T12:21:39Z</time>
</trkpt>
<trkpt lat="39.474138" lon="-8.228949">
<time>2021-10-07T12:21:40Z</time>
</trkpt>
<trkpt lat="39.474177" lon="-8.229018">
<time>2021-10-07T12:21:41Z</time>
</trkpt>
<trkpt lat="39.474217" lon="-8.229084">
<time>2021-10-07T12:21:42Z</time>
</trkpt>
<trkpt lat="39.474256" lon="-8.229156">
<time>2021-10-07T12:21:43Z</time>
</trkpt>
<trkpt lat="39.474294" lon="-8.229222">
<time>2021-10-07T12:21:44Z</time>
</trkpt>
<trkpt lat="39.474331" lon="-8.229288">
<time>2021-10-07T12:21:45Z</time>
</trkpt>
<trkpt lat="39.474367" lon="-8.229356">
<time>2021-10-07T12:21:46Z</time>
</trkpt>
<trkpt lat="39.474401" lon="-8.229423">
<time>2021-10-07T12:21:47Z</time>
</trkpt>
<trkpt lat="39.474439" lon="-8.229487">
<time>2021-10-07T12:21:48Z</time>
</trkpt>
<trkpt lat="39.474455" lon="-8.229544">
<time>2021-10-07T12:21:49Z</time>
</trkpt>
<trkpt lat="39.474473" lon="-8.229582">
<time>2021-10-07T12:21:50Z</time>
</trkpt>
<trkpt lat="39.474503" lon="-8.229599">
<time>2021-10-07T12:21:51Z</time>
</trkpt>
<trkpt lat="39.474541" lon="-8.229593">
<time>2021-10-07T12:21:52Z</time>
</trkpt>
<trkpt lat="39.474588" lon="-8.229568">
<time>2021-10-07T12:21:53Z</time>
</trkpt>
<trkpt lat="39.474642" lon="-8.229542">
<time>2021-10-07T12:21:54Z</time>
</trkpt>
<trkpt lat="39.474699" lon="-8.229516">
<time>2021-10-07T12:21:55Z</time>
</trkpt>
<trkpt lat="39.474757" lon="-8.22949">
<time>2021-10-07T12:21:56Z</time>
</trkpt>
<trkpt lat="39.474816" lon="-8.229464">
<time>2021-10-07T12:21:57Z</time>
</trkpt>
<trkpt lat="39.474875" lon="-8.229439">
<time>2021-10-07T12:21:58Z</time>
</trkpt>
<trkpt lat="39.474933" lon="-8.229414">
<time>2021-10-07T12:21:59Z</time>
</trkpt>
<trkpt lat="39.474993" lon="-8.229391">
<time>2021-10-07T12:22:00Z</time>
</trkpt>
<trkpt lat="39.475055" lon="-8.22937">
<time>2021-10-07T12:22:01Z</time>
</trkpt>
<trkpt lat="39.475116" lon="-8.229352">
<time>2021-10-07T12:22:02Z</time>
</trkpt>
<trkpt lat="39.475175" lon="-8.229336">
<time>2021-10-07T12:22:03Z</time>
</trkpt>
<trkpt lat="39.475233" lon="-8.229346">
<time>2021-10-07T12:22:04Z</time>
</trkpt>
<trkpt lat="39.47528" lon="-8.229387">
<time>2021-10-07T12:22:05Z</time>
</trkpt>
<trkpt lat="39.475313" lon="-8.229448">
<time>2021-10-07T12:22:06Z</time>
</trkpt>
<trkpt lat="39.475336" lon="-8.229512">
<time>2021-10-07T12:22:07Z</time>
</trkpt>
<trkpt lat="39.475352" lon="-8.229575">
<time>2021-10-07T12:22:08Z</time>
</trkpt>
<trkpt lat="39.475367" lon="-8.229638">
<time>2021-10-07T12:22:09Z</time>
</trkpt>
<trkpt lat="39.475384" lon="-8.229697">
<time>2021-10-07T12:22:10Z</time>
</trkpt>
<trkpt lat="39.475401" lon="-8.229755">
<time>2021-10-07T12:22:11Z</time>
</trkpt>
<trkpt lat="39.475416" lon="-8.229814">
<time>2021-10-07T12:22:12Z</time>
</trkpt>
<trkpt lat="39.475431" lon="-8.229872">
<time>2021-10-07T12:22:13Z</time>
</trkpt>
<trkpt lat="39.475448" lon="-8.229928">
<time>2021-10-07T12:22:14Z</time>
</trkpt>
<trkpt lat="39.475472" lon="-8.229978">
<time>2021-10-07T12:22:15Z</time>
</trkpt>
<trkpt lat="39.475509" lon="-8.23001">
<time>2021-10-07T12:22:16Z</time>
</trkpt>
<trkpt lat="39.475553" lon="-8.230025">
<time>2021-10-07T12:22:17Z</time>
</trkpt>
<trkpt lat="39.475604" lon="-8.230031">
<time>2021-10-07T12:22:18Z</time>
</trkpt>
<trkpt lat="39.475656" lon="-8.23003">
<time>2021-10-07T12:22:19Z</time>
</trkpt>
<trkpt lat="39.475708" lon="-8.230028">
<time>2021-10-07T12:22:20Z</time>
</trkpt>
<trkpt lat="39.475761" lon="-8.230023">
<time>2021-10-07T12:22:21Z</time>
</trkpt>
<trkpt lat="39.475815" lon="-8.230018">
<time>2021-10-07T12:22:22Z</time>
</trkpt>
<trkpt lat="39.475871" lon="-8.230011">
<time>2021-10-07T12:22:23Z</time>
</trkpt>
<trkpt lat="39.475929" lon="-8.230002">
<time>2021-10-07T12:22:24Z</time>
</trkpt>
<trkpt lat="39.475986" lon="-8.229986">
<time>2021-10-07T12:22:25Z</time>
</trkpt>
<trkpt lat="39.476042" lon="-8.229962">
<time>2021-10-07T12:22:26Z</time>
</trkpt>
<trkpt lat="39.476095" lon="-8.229926">
<time>2021-10-07T12:22:27Z</time>
</trkpt>
<trkpt lat="39.476147" lon="-8.229887">
<time>2021-10-07T12:22:28Z</time>
</trkpt>
<trkpt lat="39.476195" lon="-8.229845">
<time>2021-10-07T12:22:29Z</time>
</trkpt>
<trkpt lat="39.47624" lon="-8.229805">
<time>2021-10-07T12:22:30Z</time>
</trkpt>
<trkpt lat="39.476287" lon="-8.229765">
<time>2021-10-07T12:22:31Z</time>
</trkpt>
<trkpt lat="39.476334" lon="-8.229727">
<time>2021-10-07T12:22:32Z</time>
</trkpt>
<trkpt lat="39.476383" lon="-8.229689">
<time>2021-10-07T12:22:33Z</time>
</trkpt>
<trkpt lat="39.476434" lon="-8.229658">
<time>2021-10-07T12:22:34Z</time>
</trkpt>
<trkpt lat="39.476484" lon="-8.229635">
<time>2021-10-07T12:22:35Z</time>
</trkpt>
<trkpt lat="39.476535" lon="-8.229622">
<time>2021-10-07T12:22:36Z</time>
</trkpt>
<trkpt lat="39.476585" lon="-8.229617">
<time>2021-10-07T12:22:37Z</time>
</trkpt>
<trkpt lat="39.476636" lon="-8.229615">
<time>2021-10-07T12:22:38Z</time>
</trkpt>
<trkpt lat="39.476687" lon="-8.229616">
<time>2021-10-07T12:22:39Z</time>
</trkpt>
<trkpt lat="39.476738" lon="-8.229617">
<time>2021-10-07T12:22:40Z</time>
</trkpt>
<trkpt lat="39.476786" lon="-8.229619">
<time>2021-10-07T12:22:41Z</time>
</trkpt>
<trkpt lat="39.476834" lon="-8.229621">
<time>2021-10-07T12:22:42Z</time>
</trkpt>
<trkpt lat="39.476879" lon="-8.229626">
<time>2021-10-07T12:22:43Z</time>
</trkpt>
<trkpt lat="39.476923" lon="-8.229627">
<time>2021-10-07T12:22:44Z</time>
</trkpt>
<trkpt lat="39.476967" lon="-8.229622">
<time>2021-10-07T12:22:45Z</time>
</trkpt>
<trkpt lat="39.477011" lon="-8.229617">
<time>2021-10-07T12:22:46Z</time>
</trkpt>
<trkpt lat="39.477053" lon="-8.229606">
<time>2021-10-07T12:22:47Z</time>
</trkpt>
<trkpt lat="39.477097" lon="-8.229595">
<time>2021-10-07T12:22:48Z</time>
</trkpt>
<trkpt lat="39.477142" lon="-8.229581">
<time>2021-10-07T12:22:49Z</time>
</trkpt>
<trkpt lat="39.477185" lon="-8.229569">
<time>2021-10-07T12:22:50Z</time>
</trkpt>
<trkpt lat="39.477228" lon="-8.229564">
<time>2021-10-07T12:22:51Z</time>
</trkpt>
<trkpt lat="39.477268" lon="-8.22956">
<time>2021-10-07T12:22:52Z</time>
</trkpt>
<trkpt lat="39.477307" lon="-8.229554">
<time>2021-10-07T12:22:53Z</time>
</trkpt>
<trkpt lat="39.477345" lon="-8.229544">
<time>2021-10-07T12:22:54Z</time>
</trkpt>
<trkpt lat="39.47738" lon="-8.229531">
<time>2021-10-07T12:22:55Z</time>
</trkpt>
<trkpt lat="39.477413" lon="-8.229527">
<time>2021-10-07T12:22:56Z</time>
</trkpt>
<trkpt lat="39.477444" lon="-8.229523">
<time>2021-10-07T12:22:57Z</time>
</trkpt>
<trkpt lat="39.477474" lon="-8.229519">
<time>2021-10-07T12:22:58Z</time>
</trkpt>
<trkpt lat="39.477506" lon="-8.229512">
<time>2021-10-07T12:22:59Z</time>
</trkpt>
<trkpt lat="39.477538" lon="-8.229502">
<time>2021-10-07T12:23:00Z</time>
</trkpt>
<trkpt lat="39.477567" lon="-8.229493">
<time>2021-10-07T12:23:01Z</time>
</trkpt>
<trkpt lat="39.477598" lon="-8.229485">
<time>2021-10-07T12:23:02Z</time>
</trkpt>
<trkpt lat="39.477628" lon="-8.229477">
<time>2021-10-07T12:23:03Z</time>
</trkpt>
<trkpt lat="39.477658" lon="-8.22947">
<time>2021-10-07T12:23:04Z</time>
</trkpt>
<trkpt lat="39.477688" lon="-8.229463">
<time>2021-10-07T12:23:05Z</time>
</trkpt>
<trkpt lat="39.477718" lon="-8.229453">
<time>2021-10-07T12:23:06Z</time>
</trkpt>
<trkpt lat="39.477749" lon="-8.229443">
<time>2021-10-07T12:23:07Z</time>
</trkpt>
<trkpt lat="39.47778" lon="-8.229434">
<time>2021-10-07T12:23:08Z</time>
</trkpt>
<trkpt lat="39.47781" lon="-8.229422">
<time>2021-10-07T12:23:09Z</time>
</trkpt>
<trkpt lat="39.477841" lon="-8.229414">
<time>2021-10-07T12:23:10Z</time>
</trkpt>
<trkpt lat="39.477873" lon="-8.229412">
<time>2021-10-07T12:23:11Z</time>
</trkpt>
<trkpt lat="39.477904" lon="-8.229415">
<time>2021-10-07T12:23:12Z</time>
</trkpt>
<trkpt lat="39.477937" lon="-8.229418">
<time>2021-10-07T12:23:13Z</time>
</trkpt>
<trkpt lat="39.477971" lon="-8.229417">
<time>2021-10-07T12:23:14Z</time>
</trkpt>
<trkpt lat="39.478006" lon="-8.229418">
<time>2021-10-07T12:23:15Z</time>
</trkpt>
<trkpt lat="39.47804" lon="-8.22942">
<time>2021-10-07T12:23:16Z</time>
</trkpt>
<trkpt lat="39.478073" lon="-8.229419">
<time>2021-10-07T12:23:17Z</time>
</trkpt>
<trkpt lat="39.478107" lon="-8.229418">
<time>2021-10-07T12:23:18Z</time>
</trkpt>
<trkpt lat="39.478139" lon="-8.229417">
<time>2021-10-07T12:23:19Z</time>
</trkpt>
<trkpt lat="39.47817" lon="-8.229422">
<time>2021-10-07T12:23:20Z</time>
</trkpt>
<trkpt lat="39.478202" lon="-8.229431">
<time>2021-10-07T12:23:21Z</time>
</trkpt>
<trkpt lat="39.478232" lon="-8.229439">
<time>2021-10-07T12:23:22Z</time>
</trkpt>
<trkpt lat="39.47826" lon="-8.229436">
<time>2021-10-07T12:23:23Z</time>
</trkpt>
<trkpt lat="39.478282" lon="-8.229413">
<time>2021-10-07T12:23:24Z</time>
</trkpt>
<trkpt lat="39.478296" lon="-8.229372">
<time>2021-10-07T12:23:25Z</time>
</trkpt>
<trkpt lat="39.478305" lon="-8.22932">
<time>2021-10-07T12:23:26Z</time>
</trkpt>
<trkpt lat="39.478318" lon="-8.229256">
<time>2021-10-07T12:23:27Z</time>
</trkpt>
<trkpt lat="39.478333" lon="-8.229185">
<time>2021-10-07T12:23:28Z</time>
</trkpt>
<trkpt lat="39.478351" lon="-8.229109">
<time>2021-10-07T12:23:29Z</time>
</trkpt>
<trkpt lat="39.478373" lon="-8.229023">
<time>2021-10-07T12:23:30Z</time>
</trkpt>
<trkpt lat="39.478402" lon="-8.228933">
<time>2021-10-07T12:23:31Z</time>
</trkpt>
<trkpt lat="39.478437" lon="-8.22884">
<time>2021-10-07T12:23:32Z</time>
</trkpt>
<trkpt lat="39.478478" lon="-8.228742">
<time>2021-10-07T12:23:33Z</time>
</trkpt>
<trkpt lat="39.478521" lon="-8.228642">
<time>2021-10-07T12:23:34Z</time>
</trkpt>
<trkpt lat="39.47856" lon="-8.228539">
<time>2021-10-07T12:23:35Z</time>
</trkpt>
<trkpt lat="39.478597" lon="-8.228436">
<time>2021-10-07T12:23:36Z</time>
</trkpt>
<trkpt lat="39.478637" lon="-8.228333">
<time>2021-10-07T12:23:37Z</time>
</trkpt>
<trkpt lat="39.478675" lon="-8.228226">
<time>2021-10-07T12:23:38Z</time>
</trkpt>
<trkpt lat="39.478712" lon="-8.228119">
<time>2021-10-07T12:23:39Z</time>
</trkpt>
<trkpt lat="39.478752" lon="-8.228012">
<time>2021-10-07T12:23:40Z</time>
</trkpt>
<trkpt lat="39.478792" lon="-8.227905">
<time>2021-10-07T12:23:41Z</time>
</trkpt>
<trkpt lat="39.478827" lon="-8.227793">
<time>2021-10-07T12:23:42Z</time>
</trkpt>
<trkpt lat="39.478865" lon="-8.227685">
<time>2021-10-07T12:23:43Z</time>
</trkpt>
<trkpt lat="39.47891" lon="-8.227586">
<time>2021-10-07T12:23:44Z</time>
</trkpt>
<trkpt lat="39.478957" lon="-8.227489">
<time>2021-10-07T12:23:45Z</time>
</trkpt>
<trkpt lat="39.479" lon="-8.227398">
<time>2021-10-07T12:23:46Z</time>
</trkpt>
<trkpt lat="39.479032" lon="-8.227312">
<time>2021-10-07T12:23:47Z</time>
</trkpt>
<trkpt lat="39.479057" lon="-8.22723">
<time>2021-10-07T12:23:48Z</time>
</trkpt>
<trkpt lat="39.479074" lon="-8.227149">
<time>2021-10-07T12:23:49Z</time>
</trkpt>
<trkpt lat="39.47906" lon="-8.22707">
<time>2021-10-07T12:23:50Z</time>
</trkpt>
<trkpt lat="39.479026" lon="-8.226993">
<time>2021-10-07T12:23:51Z</time>
</trkpt>
<trkpt lat="39.478991" lon="-8.226921">
<time>2021-10-07T12:23:52Z</time>
</trkpt>
<trkpt lat="39.478955" lon="-8.226827">
<time>2021-10-07T12:23:53Z</time>
</trkpt>
<trkpt lat="39.478919" lon="-8.226719">
<time>2021-10-07T12:23:54Z</time>
</trkpt>
<trkpt lat="39.478887" lon="-8.226612">
<time>2021-10-07T12:23:55Z</time>
</trkpt>
<trkpt lat="39.47885" lon="-8.226503">
<time>2021-10-07T12:23:56Z</time>
</trkpt>
<trkpt lat="39.478812" lon="-8.226397">
<time>2021-10-07T12:23:57Z</time>
</trkpt>
<trkpt lat="39.478779" lon="-8.226307">
<time>2021-10-07T12:23:58Z</time>
</trkpt>
<trkpt lat="39.478766" lon="-8.226225">
<time>2021-10-07T12:23:59Z</time>
</trkpt>
<trkpt lat="39.47878" lon="-8.226152">
<time>2021-10-07T12:24:00Z</time>
</trkpt>
<trkpt lat="39.478816" lon="-8.226089">
<time>2021-10-07T12:24:01Z</time>
</trkpt>
<trkpt lat="39.478867" lon="-8.226036">
<time>2021-10-07T12:24:02Z</time>
</trkpt>
<trkpt lat="39.47893" lon="-8.225992">
<time>2021-10-07T12:24:03Z</time>
</trkpt>
<trkpt lat="39.478982" lon="-8.225928">
<time>2021-10-07T12:24:04Z</time>
</trkpt>
<trkpt lat="39.479031" lon="-8.225858">
<time>2021-10-07T12:24:05Z</time>
</trkpt>
<trkpt lat="39.479079" lon="-8.225783">
<time>2021-10-07T12:24:06Z</time>
</trkpt>
<trkpt lat="39.479128" lon="-8.225709">
<time>2021-10-07T12:24:07Z</time>
</trkpt>
<trkpt lat="39.479178" lon="-8.225642">
<time>2021-10-07T12:24:08Z</time>
</trkpt>
<trkpt lat="39.479229" lon="-8.225574">
<time>2021-10-07T12:24:09Z</time>
</trkpt>
<trkpt lat="39.479281" lon="-8.225504">
<time>2021-10-07T12:24:10Z</time>
</trkpt>
<trkpt lat="39.479332" lon="-8.225437">
<time>2021-10-07T12:24:11Z</time>
</trkpt>
<trkpt lat="39.479386" lon="-8.225369">
<time>2021-10-07T12:24:12Z</time>
</trkpt>
<trkpt lat="39.479435" lon="-8.225297">
<time>2021-10-07T12:24:13Z</time>
</trkpt>
<trkpt lat="39.479484" lon="-8.225223">
<time>2021-10-07T12:24:14Z</time>
</trkpt>
<trkpt lat="39.479533" lon="-8.225145">
<time>2021-10-07T12:24:15Z</time>
</trkpt>
<trkpt lat="39.479584" lon="-8.225069">
<time>2021-10-07T12:24:16Z</time>
</trkpt>
<trkpt lat="39.479635" lon="-8.224991">
<time>2021-10-07T12:24:17Z</time>
</trkpt>
<trkpt lat="39.479682" lon="-8.22492">
<time>2021-10-07T12:24:18Z</time>
</trkpt>
<trkpt lat="39.479712" lon="-8.22484">
<time>2021-10-07T12:24:19Z</time>
</trkpt>
<trkpt lat="39.479716" lon="-8.224752">
<time>2021-10-07T12:24:20Z</time>
</trkpt>
<trkpt lat="39.479692" lon="-8.224652">
<time>2021-10-07T12:24:21Z</time>
</trkpt>
<trkpt lat="39.479652" lon="-8.224556">
<time>2021-10-07T12:24:22Z</time>
</trkpt>
<trkpt lat="39.479606" lon="-8.224464">
<time>2021-10-07T12:24:23Z</time>
</trkpt>
<trkpt lat="39.479557" lon="-8.224378">
<time>2021-10-07T12:24:24Z</time>
</trkpt>
<trkpt lat="39.479506" lon="-8.224293">
<time>2021-10-07T12:24:25Z</time>
</trkpt>
<trkpt lat="39.479453" lon="-8.224211">
<time>2021-10-07T12:24:26Z</time>
</trkpt>
<trkpt lat="39.479397" lon="-8.224132">
<time>2021-10-07T12:24:27Z</time>
</trkpt>
<trkpt lat="39.479339" lon="-8.224057">
<time>2021-10-07T12:24:28Z</time>
</trkpt>
<trkpt lat="39.479285" lon="-8.223984">
<time>2021-10-07T12:24:29Z</time>
</trkpt>
<trkpt lat="39.479228" lon="-8.223905">
<time>2021-10-07T12:24:30Z</time>
</trkpt>
<trkpt lat="39.47917" lon="-8.223821">
<time>2021-10-07T12:24:31Z</time>
</trkpt>
<trkpt lat="39.479112" lon="-8.223728">
<time>2021-10-07T12:24:32Z</time>
</trkpt>
<trkpt lat="39.47905" lon="-8.22363">
<time>2021-10-07T12:24:33Z</time>
</trkpt>
<trkpt lat="39.478983" lon="-8.223524">
<time>2021-10-07T12:24:34Z</time>
</trkpt>
<trkpt lat="39.478915" lon="-8.223416">
<time>2021-10-07T12:24:35Z</time>
</trkpt>
<trkpt lat="39.478845" lon="-8.22331">
<time>2021-10-07T12:24:36Z</time>
</trkpt>
<trkpt lat="39.478775" lon="-8.223203">
<time>2021-10-07T12:24:37Z</time>
</trkpt>
<trkpt lat="39.478701" lon="-8.223103">
<time>2021-10-07T12:24:38Z</time>
</trkpt>
<trkpt lat="39.478623" lon="-8.223014">
<time>2021-10-07T12:24:39Z</time>
</trkpt>
<trkpt lat="39.478546" lon="-8.222935">
<time>2021-10-07T12:24:40Z</time>
</trkpt>
<trkpt lat="39.478469" lon="-8.222856">
<time>2021-10-07T12:24:41Z</time>
</trkpt>
<trkpt lat="39.4784" lon="-8.22277">
<time>2021-10-07T12:24:42Z</time>
</trkpt>
<trkpt lat="39.478342" lon="-8.222679">
<time>2021-10-07T12:24:43Z</time>
</trkpt>
<trkpt lat="39.478286" lon="-8.222586">
<time>2021-10-07T12:24:44Z</time>
</trkpt>
<trkpt lat="39.478223" lon="-8.222497">
<time>2021-10-07T12:24:45Z</time>
</trkpt>
<trkpt lat="39.47816" lon="-8.222415">
<time>2021-10-07T12:24:46Z</time>
</trkpt>
<trkpt lat="39.478095" lon="-8.222345">
<time>2021-10-07T12:24:47Z</time>
</trkpt>
<trkpt lat="39.47803" lon="-8.222288">
<time>2021-10-07T12:24:48Z</time>
</trkpt>
<trkpt lat="39.47796" lon="-8.222235">
<time>2021-10-07T12:24:49Z</time>
</trkpt>
<trkpt lat="39.477887" lon="-8.222181">
<time>2021-10-07T12:24:50Z</time>
</trkpt>
<trkpt lat="39.477815" lon="-8.222131">
<time>2021-10-07T12:24:51Z</time>
</trkpt>
<trkpt lat="39.477743" lon="-8.22209">
<time>2021-10-07T12:24:52Z</time>
</trkpt>
<trkpt lat="39.477671" lon="-8.222053">
<time>2021-10-07T12:24:53Z</time>
</trkpt>
<trkpt lat="39.477608" lon="-8.222011">
<time>2021-10-07T12:24:54Z</time>
</trkpt>
<trkpt lat="39.477563" lon="-8.221954">
<time>2021-10-07T12:24:55Z</time>
</trkpt>
<trkpt lat="39.47754" lon="-8.221896">
<time>2021-10-07T12:24:56Z</time>
</trkpt>
<trkpt lat="39.477522" lon="-8.221846">
<time>2021-10-07T12:24:57Z</time>
</trkpt>
<trkpt lat="39.477506" lon="-8.221802">
<time>2021-10-07T12:24:58Z</time>
</trkpt>
<trkpt lat="39.477514" lon="-8.221769">
<time>2021-10-07T12:24:59Z</time>
</trkpt>
<trkpt lat="39.477559" lon="-8.22173">
<time>2021-10-07T12:25:00Z</time>
</trkpt>
<trkpt lat="39.477592" lon="-8.221661">
<time>2021-10-07T12:25:01Z</time>
</trkpt>
<trkpt lat="39.4776" lon="-8.221589">
<time>2021-10-07T12:25:02Z</time>
</trkpt>
<trkpt lat="39.47758" lon="-8.221519">
<time>2021-10-07T12:25:03Z</time>
</trkpt>
<trkpt lat="39.477531" lon="-8.22145">
<time>2021-10-07T12:25:04Z</time>
</trkpt>
<trkpt lat="39.477479" lon="-8.221392">
<time>2021-10-07T12:25:05Z</time>
</trkpt>
<trkpt lat="39.477424" lon="-8.221338">
<time>2021-10-07T12:25:06Z</time>
</trkpt>
<trkpt lat="39.477369" lon="-8.221288">
<time>2021-10-07T12:25:07Z</time>
</trkpt>
<trkpt lat="39.477313" lon="-8.221241">
<time>2021-10-07T12:25:08Z</time>
</trkpt>
<trkpt lat="39.477259" lon="-8.221194">
<time>2021-10-07T12:25:09Z</time>
</trkpt>
<trkpt lat="39.477206" lon="-8.221152">
<time>2021-10-07T12:25:10Z</time>
</trkpt>
<trkpt lat="39.477151" lon="-8.221116">
<time>2021-10-07T12:25:11Z</time>
</trkpt>
<trkpt lat="39.477099" lon="-8.221083">
<time>2021-10-07T12:25:12Z</time>
</trkpt>
<trkpt lat="39.47705" lon="-8.221049">
<time>2021-10-07T12:25:13Z</time>
</trkpt>
<trkpt lat="39.477004" lon="-8.221018">
<time>2021-10-07T12:25:14Z</time>
</trkpt>
<trkpt lat="39.47696" lon="-8.22099">
<time>2021-10-07T12:25:15Z</time>
</trkpt>
<trkpt lat="39.476922" lon="-8.220962">
<time>2021-10-07T12:25:16Z</time>
</trkpt>
<trkpt lat="39.476884" lon="-8.22094">
<time>2021-10-07T12:25:17Z</time>
</trkpt>
<trkpt lat="39.476844" lon="-8.220923">
<time>2021-10-07T12:25:18Z</time>
</trkpt>
<trkpt lat="39.476806" lon="-8.220904">
<time>2021-10-07T12:25:19Z</time>
</trkpt>
<trkpt lat="39.47677" lon="-8.220886">
<time>2021-10-07T12:25:20Z</time>
</trkpt>
<trkpt lat="39.476731" lon="-8.220873">
<time>2021-10-07T12:25:21Z</time>
</trkpt>
<trkpt lat="39.476693" lon="-8.220861">
<time>2021-10-07T12:25:22Z</time>
</trkpt>
<trkpt lat="39.476655" lon="-8.220853">
<time>2021-10-07T12:25:23Z</time>
</trkpt>
<trkpt lat="39.476617" lon="-8.220848">
<time>2021-10-07T12:25:24Z</time>
</trkpt>
<trkpt lat="39.476578" lon="-8.220841">
<time>2021-10-07T12:25:25Z</time>
</trkpt>
<trkpt lat="39.47654" lon="-8.220833">
<time>2021-10-07T12:25:26Z</time>
</trkpt>
<trkpt lat="39.476504" lon="-8.220828">
<time>2021-10-07T12:25:27Z</time>
</trkpt>
<trkpt lat="39.476466" lon="-8.220826">
<time>2021-10-07T12:25:28Z</time>
</trkpt>
<trkpt lat="39.476425" lon="-8.220824">
<time>2021-10-07T12:25:29Z</time>
</trkpt>
<trkpt lat="39.476383" lon="-8.220823">
<time>2021-10-07T12:25:30Z</time>
</trkpt>
<trkpt lat="39.476337" lon="-8.220817">
<time>2021-10-07T12:25:31Z</time>
</trkpt>
<trkpt lat="39.476294" lon="-8.220805">
<time>2021-10-07T12:25:32Z</time>
</trkpt>
<trkpt lat="39.476252" lon="-8.220788">
<time>2021-10-07T12:25:33Z</time>
</trkpt>
<trkpt lat="39.47621" lon="-8.220768">
<time>2021-10-07T12:25:34Z</time>
</trkpt>
<trkpt lat="39.476169" lon="-8.220746">
<time>2021-10-07T12:25:35Z</time>
</trkpt>
<trkpt lat="39.476127" lon="-8.22072">
<time>2021-10-07T12:25:36Z</time>
</trkpt>
<trkpt lat="39.476089" lon="-8.220689">
<time>2021-10-07T12:25:37Z</time>
</trkpt>
<trkpt lat="39.476053" lon="-8.220655">
<time>2021-10-07T12:25:38Z</time>
</trkpt>
<trkpt lat="39.476021" lon="-8.220616">
<time>2021-10-07T12:25:39Z</time>
</trkpt>
<trkpt lat="39.475992" lon="-8.220575">
<time>2021-10-07T12:25:40Z</time>
</trkpt>
<trkpt lat="39.475968" lon="-8.220537">
<time>2021-10-07T12:25:41Z</time>
</trkpt>
<trkpt lat="39.475945" lon="-8.220499">
<time>2021-10-07T12:25:42Z</time>
</trkpt>
<trkpt lat="39.475925" lon="-8.220465">
<time>2021-10-07T12:25:43Z</time>
</trkpt>
<trkpt lat="39.475905" lon="-8.220427">
<time>2021-10-07T12:25:44Z</time>
</trkpt>
<trkpt lat="39.475883" lon="-8.220389">
<time>2021-10-07T12:25:45Z</time>
</trkpt>
<trkpt lat="39.475864" lon="-8.220351">
<time>2021-10-07T12:25:46Z</time>
</trkpt>
<trkpt lat="39.475845" lon="-8.220311">
<time>2021-10-07T12:25:47Z</time>
</trkpt>
<trkpt lat="39.475827" lon="-8.22027">
<time>2021-10-07T12:25:48Z</time>
</trkpt>
<trkpt lat="39.475808" lon="-8.220231">
<time>2021-10-07T12:25:49Z</time>
</trkpt>
<trkpt lat="39.475788" lon="-8.220195">
<time>2021-10-07T12:25:50Z</time>
</trkpt>
<trkpt lat="39.475765" lon="-8.220158">
<time>2021-10-07T12:25:51Z</time>
</trkpt>
<trkpt lat="39.475742" lon="-8.22012">
<time>2021-10-07T12:25:52Z</time>
</trkpt>
<trkpt lat="39.475725" lon="-8.220081">
<time>2021-10-07T12:25:53Z</time>
</trkpt>
<trkpt lat="39.47571" lon="-8.220044">
<time>2021-10-07T12:25:54Z</time>
</trkpt>
<trkpt lat="39.475692" lon="-8.220008">
<time>2021-10-07T12:25:55Z</time>
</trkpt>
<trkpt lat="39.475673" lon="-8.219977">
<time>2021-10-07T12:25:56Z</time>
</trkpt>
<trkpt lat="39.475656" lon="-8.219943">
<time>2021-10-07T12:25:57Z</time>
</trkpt>
<trkpt lat="39.475638" lon="-8.219911">
<time>2021-10-07T12:25:58Z</time>
</trkpt>
<trkpt lat="39.475617" lon="-8.219878">
<time>2021-10-07T12:25:59Z</time>
</trkpt>
<trkpt lat="39.475594" lon="-8.219846">
<time>2021-10-07T12:26:00Z</time>
</trkpt>
<trkpt lat="39.475571" lon="-8.219813">
<time>2021-10-07T12:26:01Z</time>
</trkpt>
<trkpt lat="39.475552" lon="-8.219781">
<time>2021-10-07T12:26:02Z</time>
</trkpt>
<trkpt lat="39.47553" lon="-8.219746">
<time>2021-10-07T12:26:03Z</time>
</trkpt>
<trkpt lat="39.475508" lon="-8.219711">
<time>2021-10-07T12:26:04Z</time>
</trkpt>
<trkpt lat="39.475489" lon="-8.219674">
<time>2021-10-07T12:26:05Z</time>
</trkpt>
<trkpt lat="39.475469" lon="-8.219638">
<time>2021-10-07T12:26:06Z</time>
</trkpt>
<trkpt lat="39.47545" lon="-8.219602">
<time>2021-10-07T12:26:07Z</time>
</trkpt>
<trkpt lat="39.475431" lon="-8.219568">
<time>2021-10-07T12:26:08Z</time>
</trkpt>
<trkpt lat="39.475414" lon="-8.219534">
<time>2021-10-07T12:26:09Z</time>
</trkpt>
<trkpt lat="39.475397" lon="-8.219498">
<time>2021-10-07T12:26:10Z</time>
</trkpt>
<trkpt lat="39.47538" lon="-8.219462">
<time>2021-10-07T12:26:11Z</time>
</trkpt>
<trkpt lat="39.475362" lon="-8.219429">
<time>2021-10-07T12:26:12Z</time>
</trkpt>
<trkpt lat="39.475339" lon="-8.219396">
<time>2021-10-07T12:26:13Z</time>
</trkpt>
<trkpt lat="39.475315" lon="-8.21936">
<time>2021-10-07T12:26:14Z</time>
</trkpt>
<trkpt lat="39.475295" lon="-8.219327">
<time>2021-10-07T12:26:15Z</time>
</trkpt>
<trkpt lat="39.475276" lon="-8.219294">
<time>2021-10-07T12:26:16Z</time>
</trkpt>
<trkpt lat="39.475253" lon="-8.21926">
<time>2021-10-07T12:26:17Z</time>
</trkpt>
<trkpt lat="39.475234" lon="-8.219219">
<time>2021-10-07T12:26:18Z</time>
</trkpt>
<trkpt lat="39.475218" lon="-8.219178">
<time>2021-10-07T12:26:19Z</time>
</trkpt>
<trkpt lat="39.475201" lon="-8.219133">
<time>2021-10-07T12:26:20Z</time>
</trkpt>
<trkpt lat="39.475185" lon="-8.219087">
<time>2021-10-07T12:26:21Z</time>
</trkpt>
<trkpt lat="39.47517" lon="-8.219038">
<time>2021-10-07T12:26:22Z</time>
</trkpt>
<trkpt lat="39.475153" lon="-8.218988">
<time>2021-10-07T12:26:23Z</time>
</trkpt>
<trkpt lat="39.475138" lon="-8.218936">
<time>2021-10-07T12:26:24Z</time>
</trkpt>
<trkpt lat="39.475125" lon="-8.218882">
<time>2021-10-07T12:26:25Z</time>
</trkpt>
<trkpt lat="39.475111" lon="-8.218827">
<time>2021-10-07T12:26:26Z</time>
</trkpt>
<trkpt lat="39.475098" lon="-8.218774">
<time>2021-10-07T12:26:27Z</time>
</trkpt>
<trkpt lat="39.475084" lon="-8.21872">
<time>2021-10-07T12:26:28Z</time>
</trkpt>
<trkpt lat="39.475069" lon="-8.21867">
<time>2021-10-07T12:26:29Z</time>
</trkpt>
<trkpt lat="39.475051" lon="-8.218623">
<time>2021-10-07T12:26:30Z</time>
</trkpt>
<trkpt lat="39.475034" lon="-8.218574">
<time>2021-10-07T12:26:31Z</time>
</trkpt>
<trkpt lat="39.475018" lon="-8.218524">
<time>2021-10-07T12:26:32Z</time>
</trkpt>
<trkpt lat="39.475004" lon="-8.218475">
<time>2021-10-07T12:26:33Z</time>
</trkpt>
<trkpt lat="39.474989" lon="-8.218427">
<time>2021-10-07T12:26:34Z</time>
</trkpt>
<trkpt lat="39.474972" lon="-8.218378">
<time>2021-10-07T12:26:35Z</time>
</trkpt>
<trkpt lat="39.474956" lon="-8.21833">
<time>2021-10-07T12:26:36Z</time>
</trkpt>
<trkpt lat="39.474938" lon="-8.218283">
<time>2021-10-07T12:26:37Z</time>
</trkpt>
<trkpt lat="39.474918" lon="-8.218237">
<time>2021-10-07T12:26:38Z</time>
</trkpt>
<trkpt lat="39.474899" lon="-8.218192">
<time>2021-10-07T12:26:39Z</time>
</trkpt>
<trkpt lat="39.47488" lon="-8.218148">
<time>2021-10-07T12:26:40Z</time>
</trkpt>
<trkpt lat="39.474862" lon="-8.21811">
<time>2021-10-07T12:26:41Z</time>
</trkpt>
<trkpt lat="39.474846" lon="-8.218071">
<time>2021-10-07T12:26:42Z</time>
</trkpt>
<trkpt lat="39.474832" lon="-8.218029">
<time>2021-10-07T12:26:43Z</time>
</trkpt>
<trkpt lat="39.474818" lon="-8.217988">
<time>2021-10-07T12:26:44Z</time>
</trkpt>
<trkpt lat="39.474804" lon="-8.217948">
<time>2021-10-07T12:26:45Z</time>
</trkpt>
<trkpt lat="39.47479" lon="-8.217905">
<time>2021-10-07T12:26:46Z</time>
</trkpt>
<trkpt lat="39.474778" lon="-8.217862">
<time>2021-10-07T12:26:47Z</time>
</trkpt>
<trkpt lat="39.474765" lon="-8.217821">
<time>2021-10-07T12:26:48Z</time>
</trkpt>
<trkpt lat="39.474752" lon="-8.217779">
<time>2021-10-07T12:26:49Z</time>
</trkpt>
<trkpt lat="39.474738" lon="-8.217738">
<time>2021-10-07T12:26:50Z</time>
</trkpt>
<trkpt lat="39.474725" lon="-8.217696">
<time>2021-10-07T12:26:51Z</time>
</trkpt>
<trkpt lat="39.474714" lon="-8.217653">
<time>2021-10-07T12:26:52Z</time>
</trkpt>
<trkpt lat="39.474704" lon="-8.217613">
<time>2021-10-07T12:26:53Z</time>
</trkpt>
<trkpt lat="39.474692" lon="-8.217575">
<time>2021-10-07T12:26:54Z</time>
</trkpt>
<trkpt lat="39.474681" lon="-8.217534">
<time>2021-10-07T12:26:55Z</time>
</trkpt>
<trkpt lat="39.47467" lon="-8.217493">
<time>2021-10-07T12:26:56Z</time>
</trkpt>
<trkpt lat="39.47466" lon="-8.217454">
<time>2021-10-07T12:26:57Z</time>
</trkpt>
<trkpt lat="39.474646" lon="-8.21741">
<time>2021-10-07T12:26:58Z</time>
</trkpt>
<trkpt lat="39.474632" lon="-8.217363">
<time>2021-10-07T12:26:59Z</time>
</trkpt>
<trkpt lat="39.474621" lon="-8.217318">
<time>2021-10-07T12:27:00Z</time>
</trkpt>
<trkpt lat="39.474611" lon="-8.217275">
<time>2021-10-07T12:27:01Z</time>
</trkpt>
<trkpt lat="39.474606" lon="-8.217227">
<time>2021-10-07T12:27:02Z</time>
</trkpt>
<trkpt lat="39.4746" lon="-8.21718">
<time>2021-10-07T12:27:03Z</time>
</trkpt>
<trkpt lat="39.474595" lon="-8.217133">
<time>2021-10-07T12:27:04Z</time>
</trkpt>
<trkpt lat="39.474585" lon="-8.217086">
<time>2021-10-07T12:27:05Z</time>
</trkpt>
<trkpt lat="39.474579" lon="-8.21704">
<time>2021-10-07T12:27:06Z</time>
</trkpt>
<trkpt lat="39.474571" lon="-8.216991">
<time>2021-10-07T12:27:07Z</time>
</trkpt>
<trkpt lat="39.474559" lon="-8.216943">
<time>2021-10-07T12:27:08Z</time>
</trkpt>
<trkpt lat="39.474545" lon="-8.216896">
<time>2021-10-07T12:27:09Z</time>
</trkpt>
<trkpt lat="39.474526" lon="-8.216847">
<time>2021-10-07T12:27:10Z</time>
</trkpt>
<trkpt lat="39.474508" lon="-8.216798">
<time>2021-10-07T12:27:11Z</time>
</trkpt>
<trkpt lat="39.474491" lon="-8.216748">
<time>2021-10-07T12:27:12Z</time>
</trkpt>
<trkpt lat="39.474477" lon="-8.216698">
<time>2021-10-07T12:27:13Z</time>
</trkpt>
<trkpt lat="39.474465" lon="-8.216645">
<time>2021-10-07T12:27:14Z</time>
</trkpt>
<trkpt lat="39.474451" lon="-8.216591">
<time>2021-10-07T12:27:15Z</time>
</trkpt>
<trkpt lat="39.474439" lon="-8.216538">
<time>2021-10-07T12:27:16Z</time>
</trkpt>
<trkpt lat="39.474427" lon="-8.216485">
<time>2021-10-07T12:27:17Z</time>
</trkpt>
<trkpt lat="39.474414" lon="-8.216432">
<time>2021-10-07T12:27:18Z</time>
</trkpt>
<trkpt lat="39.474401" lon="-8.21638">
<time>2021-10-07T12:27:19Z</time>
</trkpt>
<trkpt lat="39.474388" lon="-8.216327">
<time>2021-10-07T12:27:20Z</time>
</trkpt>
<trkpt lat="39.474375" lon="-8.216275">
<time>2021-10-07T12:27:21Z</time>
</trkpt>
<trkpt lat="39.474362" lon="-8.216223">
<time>2021-10-07T12:27:22Z</time>
</trkpt>
<trkpt lat="39.474348" lon="-8.216169">
<time>2021-10-07T12:27:23Z</time>
</trkpt>
<trkpt lat="39.474335" lon="-8.216116">
<time>2021-10-07T12:27:24Z</time>
</trkpt>
<trkpt lat="39.474325" lon="-8.216064">
<time>2021-10-07T12:27:25Z</time>
</trkpt>
<trkpt lat="39.474316" lon="-8.216014">
<time>2021-10-07T12:27:26Z</time>
</trkpt>
<trkpt lat="39.47431" lon="-8.215964">
<time>2021-10-07T12:27:27Z</time>
</trkpt>
<trkpt lat="39.4743" lon="-8.215912">
<time>2021-10-07T12:27:28Z</time>
</trkpt>
<trkpt lat="39.474294" lon="-8.215857">
<time>2021-10-07T12:27:29Z</time>
</trkpt>
<trkpt lat="39.4743" lon="-8.2158">
<time>2021-10-07T12:27:30Z</time>
</trkpt>
<trkpt lat="39.474322" lon="-8.215745">
<time>2021-10-07T12:27:31Z</time>
</trkpt>
<trkpt lat="39.474358" lon="-8.215702">
<time>2021-10-07T12:27:32Z</time>
</trkpt>
<trkpt lat="39.4744" lon="-8.215669">
<time>2021-10-07T12:27:33Z</time>
</trkpt>
<trkpt lat="39.474447" lon="-8.215646">
<time>2021-10-07T12:27:34Z</time>
</trkpt>
<trkpt lat="39.474497" lon="-8.215631">
<time>2021-10-07T12:27:35Z</time>
</trkpt>
<trkpt lat="39.474549" lon="-8.215618">
<time>2021-10-07T12:27:36Z</time>
</trkpt>
<trkpt lat="39.4746" lon="-8.21561">
<time>2021-10-07T12:27:37Z</time>
</trkpt>
<trkpt lat="39.474654" lon="-8.215604">
<time>2021-10-07T12:27:38Z</time>
</trkpt>
<trkpt lat="39.474707" lon="-8.215602">
<time>2021-10-07T12:27:39Z</time>
</trkpt>
<trkpt lat="39.47476" lon="-8.215601">
<time>2021-10-07T12:27:40Z</time>
</trkpt>
<trkpt lat="39.474811" lon="-8.215599">
<time>2021-10-07T12:27:41Z</time>
</trkpt>
<trkpt lat="39.474864" lon="-8.215596">
<time>2021-10-07T12:27:42Z</time>
</trkpt>
<trkpt lat="39.474917" lon="-8.21559">
<time>2021-10-07T12:27:43Z</time>
</trkpt>
<trkpt lat="39.474971" lon="-8.215581">
<time>2021-10-07T12:27:44Z</time>
</trkpt>
<trkpt lat="39.475026" lon="-8.215571">
<time>2021-10-07T12:27:45Z</time>
</trkpt>
<trkpt lat="39.475082" lon="-8.215561">
<time>2021-10-07T12:27:46Z</time>
</trkpt>
<trkpt lat="39.475139" lon="-8.21555">
<time>2021-10-07T12:27:47Z</time>
</trkpt>
<trkpt lat="39.475196" lon="-8.215537">
<time>2021-10-07T12:27:48Z</time>
</trkpt>
<trkpt lat="39.475251" lon="-8.215519">
<time>2021-10-07T12:27:49Z</time>
</trkpt>
<trkpt lat="39.475307" lon="-8.215499">
<time>2021-10-07T12:27:50Z</time>
</trkpt>
<trkpt lat="39.475365" lon="-8.215479">
<time>2021-10-07T12:27:51Z</time>
</trkpt>
<trkpt lat="39.475423" lon="-8.215456">
<time>2021-10-07T12:27:52Z</time>
</trkpt>
<trkpt lat="39.475479" lon="-8.215434">
<time>2021-10-07T12:27:53Z</time>
</trkpt>
<trkpt lat="39.475541" lon="-8.21541">
<time>2021-10-07T12:27:54Z</time>
</trkpt>
<trkpt lat="39.475605" lon="-8.215381">
<time>2021-10-07T12:27:55Z</time>
</trkpt>
<trkpt lat="39.475669" lon="-8.215353">
<time>2021-10-07T12:27:56Z</time>
</trkpt>
<trkpt lat="39.475735" lon="-8.215331">
<time>2021-10-07T12:27:57Z</time>
</trkpt>
<trkpt lat="39.475801" lon="-8.215308">
<time>2021-10-07T12:27:58Z</time>
</trkpt>
<trkpt lat="39.475869" lon="-8.215284">
<time>2021-10-07T12:27:59Z</time>
</trkpt>
<trkpt lat="39.475938" lon="-8.21526">
<time>2021-10-07T12:28:00Z</time>
</trkpt>
<trkpt lat="39.476009" lon="-8.215236">
<time>2021-10-07T12:28:01Z</time>
</trkpt>
<trkpt lat="39.476078" lon="-8.215211">
<time>2021-10-07T12:28:02Z</time>
</trkpt>
<trkpt lat="39.476148" lon="-8.215188">
<time>2021-10-07T12:28:03Z</time>
</trkpt>
<trkpt lat="39.476215" lon="-8.215164">
<time>2021-10-07T12:28:04Z</time>
</trkpt>
<trkpt lat="39.476286" lon="-8.215143">
<time>2021-10-07T12:28:05Z</time>
</trkpt>
<trkpt lat="39.476357" lon="-8.215123">
<time>2021-10-07T12:28:06Z</time>
</trkpt>
<trkpt lat="39.47643" lon="-8.215103">
<time>2021-10-07T12:28:07Z</time>
</trkpt>
<trkpt lat="39.4765" lon="-8.215082">
<time>2021-10-07T12:28:08Z</time>
</trkpt>
<trkpt lat="39.476569" lon="-8.215059">
<time>2021-10-07T12:28:09Z</time>
</trkpt>
<trkpt lat="39.47664" lon="-8.215037">
<time>2021-10-07T12:28:10Z</time>
</trkpt>
<trkpt lat="39.476715" lon="-8.215016">
<time>2021-10-07T12:28:11Z</time>
</trkpt>
<trkpt lat="39.476794" lon="-8.214993">
<time>2021-10-07T12:28:12Z</time>
</trkpt>
<trkpt lat="39.476872" lon="-8.214967">
<time>2021-10-07T12:28:13Z</time>
</trkpt>
<trkpt lat="39.476946" lon="-8.214943">
<time>2021-10-07T12:28:14Z</time>
</trkpt>
<trkpt lat="39.477019" lon="-8.214918">
<time>2021-10-07T12:28:15Z</time>
</trkpt>
<trkpt lat="39.477091" lon="-8.214891">
<time>2021-10-07T12:28:16Z</time>
</trkpt>
<trkpt lat="39.477167" lon="-8.21486">
<time>2021-10-07T12:28:17Z</time>
</trkpt>
<trkpt lat="39.477242" lon="-8.214831">
<time>2021-10-07T12:28:18Z</time>
</trkpt>
<trkpt lat="39.477316" lon="-8.214807">
<time>2021-10-07T12:28:19Z</time>
</trkpt>
<trkpt lat="39.477391" lon="-8.214785">
<time>2021-10-07T12:28:20Z</time>
</trkpt>
<trkpt lat="39.477465" lon="-8.21476">
<time>2021-10-07T12:28:21Z</time>
</trkpt>
<trkpt lat="39.477536" lon="-8.214732">
<time>2021-10-07T12:28:22Z</time>
</trkpt>
<trkpt lat="39.477606" lon="-8.214708">
<time>2021-10-07T12:28:23Z</time>
</trkpt>
<trkpt lat="39.477676" lon="-8.214684">
<time>2021-10-07T12:28:24Z</time>
</trkpt>
<trkpt lat="39.477744" lon="-8.214662">
<time>2021-10-07T12:28:25Z</time>
</trkpt>
<trkpt lat="39.477812" lon="-8.214639">
<time>2021-10-07T12:28:26Z</time>
</trkpt>
<trkpt lat="39.47788" lon="-8.214618">
<time>2021-10-07T12:28:27Z</time>
</trkpt>
<trkpt lat="39.477945" lon="-8.214594">
<time>2021-10-07T12:28:28Z</time>
</trkpt>
<trkpt lat="39.478003" lon="-8.214559">
<time>2021-10-07T12:28:29Z</time>
</trkpt>
<trkpt lat="39.478048" lon="-8.214505">
<time>2021-10-07T12:28:30Z</time>
</trkpt>
<trkpt lat="39.478072" lon="-8.214435">
<time>2021-10-07T12:28:31Z</time>
</trkpt>
<trkpt lat="39.478083" lon="-8.214353">
<time>2021-10-07T12:28:32Z</time>
</trkpt>
<trkpt lat="39.478085" lon="-8.21426">
<time>2021-10-07T12:28:33Z</time>
</trkpt>
<trkpt lat="39.478078" lon="-8.214162">
<time>2021-10-07T12:28:34Z</time>
</trkpt>
<trkpt lat="39.478057" lon="-8.214056">
<time>2021-10-07T12:28:35Z</time>
</trkpt>
<trkpt lat="39.478028" lon="-8.213958">
<time>2021-10-07T12:28:36Z</time>
</trkpt>
<trkpt lat="39.477989" lon="-8.213863">
<time>2021-10-07T12:28:37Z</time>
</trkpt>
<trkpt lat="39.477949" lon="-8.213769">
<time>2021-10-07T12:28:38Z</time>
</trkpt>
<trkpt lat="39.477907" lon="-8.213677">
<time>2021-10-07T12:28:39Z</time>
</trkpt>
<trkpt lat="39.477864" lon="-8.213588">
<time>2021-10-07T12:28:40Z</time>
</trkpt>
<trkpt lat="39.477823" lon="-8.213497">
<time>2021-10-07T12:28:41Z</time>
</trkpt>
<trkpt lat="39.477798" lon="-8.213398">
<time>2021-10-07T12:28:42Z</time>
</trkpt>
<trkpt lat="39.477805" lon="-8.213296">
<time>2021-10-07T12:28:43Z</time>
</trkpt>
<trkpt lat="39.477836" lon="-8.213198">
<time>2021-10-07T12:28:44Z</time>
</trkpt>
<trkpt lat="39.477874" lon="-8.213104">
<time>2021-10-07T12:28:45Z</time>
</trkpt>
<trkpt lat="39.477921" lon="-8.213024">
<time>2021-10-07T12:28:46Z</time>
</trkpt>
<trkpt lat="39.477979" lon="-8.212958">
<time>2021-10-07T12:28:47Z</time>
</trkpt>
<trkpt lat="39.478037" lon="-8.212892">
<time>2021-10-07T12:28:48Z</time>
</trkpt>
<trkpt lat="39.478093" lon="-8.212825">
<time>2021-10-07T12:28:49Z</time>
</trkpt>
<trkpt lat="39.478149" lon="-8.212755">
<time>2021-10-07T12:28:50Z</time>
</trkpt>
<trkpt lat="39.478204" lon="-8.212683">
<time>2021-10-07T12:28:51Z</time>
</trkpt>
<trkpt lat="39.47826" lon="-8.212605">
<time>2021-10-07T12:28:52Z</time>
</trkpt>
<trkpt lat="39.478319" lon="-8.212533">
<time>2021-10-07T12:28:53Z</time>
</trkpt>
<trkpt lat="39.478377" lon="-8.212459">
<time>2021-10-07T12:28:54Z</time>
</trkpt>
<trkpt lat="39.478436" lon="-8.21239">
<time>2021-10-07T12:28:55Z</time>
</trkpt>
<trkpt lat="39.478499" lon="-8.212327">
<time>2021-10-07T12:28:56Z</time>
</trkpt>
<trkpt lat="39.478563" lon="-8.212256">
<time>2021-10-07T12:28:57Z</time>
</trkpt>
<trkpt lat="39.478628" lon="-8.212183">
<time>2021-10-07T12:28:58Z</time>
</trkpt>
<trkpt lat="39.478696" lon="-8.2121">
<time>2021-10-07T12:28:59Z</time>
</trkpt>
<trkpt lat="39.478764" lon="-8.212011">
<time>2021-10-07T12:29:00Z</time>
</trkpt>
<trkpt lat="39.478831" lon="-8.211912">
<time>2021-10-07T12:29:01Z</time>
</trkpt>
<trkpt lat="39.4789" lon="-8.211809">
<time>2021-10-07T12:29:02Z</time>
</trkpt>
<trkpt lat="39.47897" lon="-8.211699">
<time>2021-10-07T12:29:03Z</time>
</trkpt>
<trkpt lat="39.479041" lon="-8.211586">
<time>2021-10-07T12:29:04Z</time>
</trkpt>
<trkpt lat="39.479114" lon="-8.211472">
<time>2021-10-07T12:29:05Z</time>
</trkpt>
<trkpt lat="39.479188" lon="-8.211356">
<time>2021-10-07T12:29:06Z</time>
</trkpt>
<trkpt lat="39.479262" lon="-8.211241">
<time>2021-10-07T12:29:07Z</time>
</trkpt>
<trkpt lat="39.479338" lon="-8.211129">
<time>2021-10-07T12:29:08Z</time>
</trkpt>
<trkpt lat="39.479416" lon="-8.211016">
<time>2021-10-07T12:29:09Z</time>
</trkpt>
<trkpt lat="39.479492" lon="-8.210901">
<time>2021-10-07T12:29:10Z</time>
</trkpt>
<trkpt lat="39.479567" lon="-8.21078">
<time>2021-10-07T12:29:11Z</time>
</trkpt>
<trkpt lat="39.479643" lon="-8.210656">
<time>2021-10-07T12:29:12Z</time>
</trkpt>
<trkpt lat="39.479723" lon="-8.210526">
<time>2021-10-07T12:29:13Z</time>
</trkpt>
<trkpt lat="39.479801" lon="-8.210395">
<time>2021-10-07T12:29:14Z</time>
</trkpt>
<trkpt lat="39.479874" lon="-8.210264">
<time>2021-10-07T12:29:15Z</time>
</trkpt>
<trkpt lat="39.479937" lon="-8.21015">
<time>2021-10-07T12:29:16Z</time>
</trkpt>
<trkpt lat="39.47999" lon="-8.210056">
<time>2021-10-07T12:29:17Z</time>
</trkpt>
<trkpt lat="39.480027" lon="-8.209983">
<time>2021-10-07T12:29:18Z</time>
</trkpt>
<trkpt lat="39.480065" lon="-8.20994">
<time>2021-10-07T12:29:19Z</time>
</trkpt>
<trkpt lat="39.480109" lon="-8.209943">
<time>2021-10-07T12:29:20Z</time>
</trkpt>
<trkpt lat="39.480151" lon="-8.209978">
<time>2021-10-07T12:29:21Z</time>
</trkpt>
<trkpt lat="39.480179" lon="-8.210022">
<time>2021-10-07T12:29:22Z</time>
</trkpt>
<trkpt lat="39.480187" lon="-8.210076">
<time>2021-10-07T12:29:23Z</time>
</trkpt>
<trkpt lat="39.48018" lon="-8.210129">
<time>2021-10-07T12:29:24Z</time>
</trkpt>
<trkpt lat="39.480166" lon="-8.210188">
<time>2021-10-07T12:29:25Z</time>
</trkpt>
<trkpt lat="39.480158" lon="-8.21025">
<time>2021-10-07T12:29:26Z</time>
</trkpt>
<trkpt lat="39.480153" lon="-8.210309">
<time>2021-10-07T12:29:27Z</time>
</trkpt>
<trkpt lat="39.480157" lon="-8.210364">
<time>2021-10-07T12:29:28Z</time>
</trkpt>
<trkpt lat="39.480167" lon="-8.210414">
<time>2021-10-07T12:29:29Z</time>
</trkpt>
<trkpt lat="39.480186" lon="-8.210462">
<time>2021-10-07T12:29:30Z</time>
</trkpt>
<trkpt lat="39.48021" lon="-8.210507">
<time>2021-10-07T12:29:31Z</time>
</trkpt>
<trkpt lat="39.480241" lon="-8.210549">
<time>2021-10-07T12:29:32Z</time>
</trkpt>
<trkpt lat="39.480279" lon="-8.210584">
<time>2021-10-07T12:29:33Z</time>
</trkpt>
<trkpt lat="39.480316" lon="-8.210619">
<time>2021-10-07T12:29:34Z</time>
</trkpt>
<trkpt lat="39.480351" lon="-8.210658">
<time>2021-10-07T12:29:35Z</time>
</trkpt>
<trkpt lat="39.480382" lon="-8.210698">
<time>2021-10-07T12:29:36Z</time>
</trkpt>
<trkpt lat="39.480412" lon="-8.210741">
<time>2021-10-07T12:29:37Z</time>
</trkpt>
<trkpt lat="39.480442" lon="-8.210786">
<time>2021-10-07T12:29:38Z</time>
</trkpt>
<trkpt lat="39.480465" lon="-8.21083">
<time>2021-10-07T12:29:39Z</time>
</trkpt>
<trkpt lat="39.480488" lon="-8.210874">
<time>2021-10-07T12:29:40Z</time>
</trkpt>
<trkpt lat="39.480508" lon="-8.210917">
<time>2021-10-07T12:29:41Z</time>
</trkpt>
<trkpt lat="39.480525" lon="-8.210963">
<time>2021-10-07T12:29:42Z</time>
</trkpt>
<trkpt lat="39.48054" lon="-8.211009">
<time>2021-10-07T12:29:43Z</time>
</trkpt>
<trkpt lat="39.480553" lon="-8.211047">
<time>2021-10-07T12:29:44Z</time>
</trkpt>
<trkpt lat="39.480549" lon="-8.211062">
<time>2021-10-07T12:29:45Z</time>
</trkpt>
<trkpt lat="39.480538" lon="-8.211052">
<time>2021-10-07T12:29:46Z</time>
</trkpt>
<trkpt lat="39.480531" lon="-8.21103">
<time>2021-10-07T12:29:47Z</time>
</trkpt>
<trkpt lat="39.480535" lon="-8.211">
<time>2021-10-07T12:29:48Z</time>
</trkpt>
<trkpt lat="39.480556" lon="-8.210972">
<time>2021-10-07T12:29:49Z</time>
</trkpt>
<trkpt lat="39.480589" lon="-8.210949">
<time>2021-10-07T12:29:50Z</time>
</trkpt>
<trkpt lat="39.480626" lon="-8.210932">
<time>2021-10-07T12:29:51Z</time>
</trkpt>
<trkpt lat="39.480661" lon="-8.210914">
<time>2021-10-07T12:29:52Z</time>
</trkpt>
<trkpt lat="39.480685" lon="-8.210903">
<time>2021-10-07T12:29:53Z</time>
</trkpt>
<trkpt lat="39.48069" lon="-8.210901">
<time>2021-10-07T12:29:54Z</time>
</trkpt>
<trkpt lat="39.48069" lon="-8.2109">
<time>2021-10-07T12:29:55Z</time>
</trkpt>
<trkpt lat="39.48069" lon="-8.210898">
<time>2021-10-07T12:29:56Z</time>
</trkpt>
<trkpt lat="39.48069" lon="-8.210897">
<time>2021-10-07T12:29:57Z</time>
</trkpt>
<trkpt lat="39.48069" lon="-8.210895">
<time>2021-10-07T12:29:58Z</time>
</trkpt>
<trkpt lat="39.48069" lon="-8.210895">
<time>2021-10-07T12:29:59Z</time>
</trkpt>
<trkpt lat="39.48069" lon="-8.210895">
<time>2021-10-07T12:30:00Z</time>
</trkpt>
<trkpt lat="39.48069" lon="-8.210893">
<time>2021-10-07T12:30:01Z</time>
</trkpt>
<trkpt lat="39.480693" lon="-8.210889">
<time>2021-10-07T12:30:02Z</time>
</trkpt>
<trkpt lat="39.480698" lon="-8.210886">
<time>2021-10-07T12:30:03Z</time>
</trkpt>
<trkpt lat="39.480705" lon="-8.210882">
<time>2021-10-07T12:30:04Z</time>
</trkpt>
<trkpt lat="39.480712" lon="-8.21088">
<time>2021-10-07T12:30:05Z</time>
</trkpt>
<trkpt lat="39.480722" lon="-8.210874">
<time>2021-10-07T12:30:06Z</time>
</trkpt>
<trkpt lat="39.480732" lon="-8.210865">
<time>2021-10-07T12:30:07Z</time>
</trkpt>
<trkpt lat="39.480744" lon="-8.210856">
<time>2021-10-07T12:30:08Z</time>
</trkpt>
<trkpt lat="39.480762" lon="-8.210852">
<time>2021-10-07T12:30:09Z</time>
</trkpt>
<trkpt lat="39.48078" lon="-8.210853">
<time>2021-10-07T12:30:10Z</time>
</trkpt>
<trkpt lat="39.480801" lon="-8.210851">
<time>2021-10-07T12:30:11Z</time>
</trkpt>
<trkpt lat="39.480822" lon="-8.210845">
<time>2021-10-07T12:30:12Z</time>
</trkpt>
<trkpt lat="39.480841" lon="-8.210838">
<time>2021-10-07T12:30:13Z</time>
</trkpt>
<trkpt lat="39.480861" lon="-8.21083">
<time>2021-10-07T12:30:14Z</time>
</trkpt>
<trkpt lat="39.480881" lon="-8.210824">
<time>2021-10-07T12:30:15Z</time>
</trkpt>
<trkpt lat="39.480902" lon="-8.21082">
<time>2021-10-07T12:30:16Z</time>
</trkpt>
<trkpt lat="39.480922" lon="-8.210817">
<time>2021-10-07T12:30:17Z</time>
</trkpt>
<trkpt lat="39.480941" lon="-8.210814">
<time>2021-10-07T12:30:18Z</time>
</trkpt>
<trkpt lat="39.480959" lon="-8.210814">
<time>2021-10-07T12:30:19Z</time>
</trkpt>
<trkpt lat="39.480976" lon="-8.210813">
<time>2021-10-07T12:30:20Z</time>
</trkpt>
<trkpt lat="39.480993" lon="-8.21081">
<time>2021-10-07T12:30:21Z</time>
</trkpt>
<trkpt lat="39.481008" lon="-8.210809">
<time>2021-10-07T12:30:22Z</time>
</trkpt>
<trkpt lat="39.481022" lon="-8.210804">
<time>2021-10-07T12:30:23Z</time>
</trkpt>
<trkpt lat="39.481035" lon="-8.210799">
<time>2021-10-07T12:30:24Z</time>
</trkpt>
<trkpt lat="39.481048" lon="-8.210797">
<time>2021-10-07T12:30:25Z</time>
</trkpt>
<trkpt lat="39.481061" lon="-8.210798">
<time>2021-10-07T12:30:26Z</time>
</trkpt>
<trkpt lat="39.481076" lon="-8.2108">
<time>2021-10-07T12:30:27Z</time>
</trkpt>
<trkpt lat="39.481091" lon="-8.210801">
<time>2021-10-07T12:30:28Z</time>
</trkpt>
<trkpt lat="39.481105" lon="-8.210805">
<time>2021-10-07T12:30:29Z</time>
</trkpt>
<trkpt lat="39.481119" lon="-8.210809">
<time>2021-10-07T12:30:30Z</time>
</trkpt>
<trkpt lat="39.481135" lon="-8.210813">
<time>2021-10-07T12:30:31Z</time>
</trkpt>
<trkpt lat="39.481151" lon="-8.210817">
<time>2021-10-07T12:30:32Z</time>
</trkpt>
<trkpt lat="39.481163" lon="-8.210822">
<time>2021-10-07T12:30:33Z</time>
</trkpt>
<trkpt lat="39.481166" lon="-8.210823">
<time>2021-10-07T12:30:34Z</time>
</trkpt>
<trkpt lat="39.481167" lon="-8.210832">
<time>2021-10-07T12:30:35Z</time>
</trkpt>
<trkpt lat="39.481167" lon="-8.210824">
<time>2021-10-07T12:30:36Z</time>
</trkpt>
<trkpt lat="39.481169" lon="-8.21081">
<time>2021-10-07T12:30:37Z</time>
</trkpt>
<trkpt lat="39.481172" lon="-8.210791">
<time>2021-10-07T12:30:38Z</time>
</trkpt>
<trkpt lat="39.481175" lon="-8.210768">
<time>2021-10-07T12:30:39Z</time>
</trkpt>
<trkpt lat="39.481176" lon="-8.210744">
<time>2021-10-07T12:30:40Z</time>
</trkpt>
<trkpt lat="39.481181" lon="-8.210717">
<time>2021-10-07T12:30:41Z</time>
</trkpt>
<trkpt lat="39.48119" lon="-8.210688">
<time>2021-10-07T12:30:42Z</time>
</trkpt>
<trkpt lat="39.4812" lon="-8.21065">
<time>2021-10-07T12:30:43Z</time>
</trkpt>
<trkpt lat="39.481214" lon="-8.210606">
<time>2021-10-07T12:30:44Z</time>
</trkpt>
<trkpt lat="39.481231" lon="-8.210558">
<time>2021-10-07T12:30:45Z</time>
</trkpt>
<trkpt lat="39.48125" lon="-8.210509">
<time>2021-10-07T12:30:46Z</time>
</trkpt>
<trkpt lat="39.481259" lon="-8.210447">
<time>2021-10-07T12:30:47Z</time>
</trkpt>
<trkpt lat="39.481263" lon="-8.210389">
<time>2021-10-07T12:30:48Z</time>
</trkpt>
<trkpt lat="39.481266" lon="-8.210341">
<time>2021-10-07T12:30:49Z</time>
</trkpt>
<trkpt lat="39.481278" lon="-8.210307">
<time>2021-10-07T12:30:50Z</time>
</trkpt>
<trkpt lat="39.481297" lon="-8.210295">
<time>2021-10-07T12:30:51Z</time>
</trkpt>
<trkpt lat="39.481317" lon="-8.210308">
<time>2021-10-07T12:30:52Z</time>
</trkpt>
<trkpt lat="39.481334" lon="-8.210335">
<time>2021-10-07T12:30:53Z</time>
</trkpt>
<trkpt lat="39.481346" lon="-8.21037">
<time>2021-10-07T12:30:54Z</time>
</trkpt>
<trkpt lat="39.481357" lon="-8.210412">
<time>2021-10-07T12:30:55Z</time>
</trkpt>
<trkpt lat="39.481369" lon="-8.210458">
<time>2021-10-07T12:30:56Z</time>
</trkpt>
<trkpt lat="39.481381" lon="-8.210499">
<time>2021-10-07T12:30:57Z</time>
</trkpt>
<trkpt lat="39.481394" lon="-8.210541">
<time>2021-10-07T12:30:58Z</time>
</trkpt>
<trkpt lat="39.481405" lon="-8.210581">
<time>2021-10-07T12:30:59Z</time>
</trkpt>
<trkpt lat="39.481417" lon="-8.210621">
<time>2021-10-07T12:31:00Z</time>
</trkpt>
<trkpt lat="39.481431" lon="-8.21066">
<time>2021-10-07T12:31:01Z</time>
</trkpt>
<trkpt lat="39.481449" lon="-8.210693">
<time>2021-10-07T12:31:02Z</time>
</trkpt>
<trkpt lat="39.481465" lon="-8.210725">
<time>2021-10-07T12:31:03Z</time>
</trkpt>
<trkpt lat="39.481481" lon="-8.210761">
<time>2021-10-07T12:31:04Z</time>
</trkpt>
<trkpt lat="39.481495" lon="-8.210798">
<time>2021-10-07T12:31:05Z</time>
</trkpt>
<trkpt lat="39.481504" lon="-8.210829">
<time>2021-10-07T12:31:06Z</time>
</trkpt>
<trkpt lat="39.481512" lon="-8.210857">
<time>2021-10-07T12:31:07Z</time>
</trkpt>
<trkpt lat="39.481524" lon="-8.210885">
<time>2021-10-07T12:31:08Z</time>
</trkpt>
<trkpt lat="39.481539" lon="-8.210912">
<time>2021-10-07T12:31:09Z</time>
</trkpt>
<trkpt lat="39.481554" lon="-8.210938">
<time>2021-10-07T12:31:10Z</time>
</trkpt>
<trkpt lat="39.481566" lon="-8.210964">
<time>2021-10-07T12:31:11Z</time>
</trkpt>
<trkpt lat="39.481577" lon="-8.210986">
<time>2021-10-07T12:31:12Z</time>
</trkpt>
<trkpt lat="39.48159" lon="-8.21101">
<time>2021-10-07T12:31:13Z</time>
</trkpt>
<trkpt lat="39.481605" lon="-8.211037">
<time>2021-10-07T12:31:14Z</time>
</trkpt>
<trkpt lat="39.481618" lon="-8.211069">
<time>2021-10-07T12:31:15Z</time>
</trkpt>
<trkpt lat="39.48163" lon="-8.2111">
<time>2021-10-07T12:31:16Z</time>
</trkpt>
<trkpt lat="39.481646" lon="-8.21113">
<time>2021-10-07T12:31:17Z</time>
</trkpt>
<trkpt lat="39.481661" lon="-8.211155">
<time>2021-10-07T12:31:18Z</time>
</trkpt>
<trkpt lat="39.481677" lon="-8.211183">
<time>2021-10-07T12:31:19Z</time>
</trkpt>
<trkpt lat="39.481699" lon="-8.211213">
<time>2021-10-07T12:31:20Z</time>
</trkpt>
<trkpt lat="39.481732" lon="-8.211248">
<time>2021-10-07T12:31:21Z</time>
</trkpt>
<trkpt lat="39.481763" lon="-8.211282">
<time>2021-10-07T12:31:22Z</time>
</trkpt>
<trkpt lat="39.481791" lon="-8.211318">
<time>2021-10-07T12:31:23Z</time>
</trkpt>
<trkpt lat="39.481817" lon="-8.211352">
<time>2021-10-07T12:31:24Z</time>
</trkpt>
<trkpt lat="39.481842" lon="-8.211383">
<time>2021-10-07T12:31:25Z</time>
</trkpt>
<trkpt lat="39.481864" lon="-8.211413">
<time>2021-10-07T12:31:26Z</time>
</trkpt>
<trkpt lat="39.481887" lon="-8.211446">
<time>2021-10-07T12:31:27Z</time>
</trkpt>
<trkpt lat="39.48191" lon="-8.211482">
<time>2021-10-07T12:31:28Z</time>
</trkpt>
<trkpt lat="39.481936" lon="-8.211518">
<time>2021-10-07T12:31:29Z</time>
</trkpt>
<trkpt lat="39.481961" lon="-8.211549">
<time>2021-10-07T12:31:30Z</time>
</trkpt>
<trkpt lat="39.481985" lon="-8.211585">
<time>2021-10-07T12:31:31Z</time>
</trkpt>
<trkpt lat="39.482008" lon="-8.211622">
<time>2021-10-07T12:31:32Z</time>
</trkpt>
<trkpt lat="39.482032" lon="-8.211657">
<time>2021-10-07T12:31:33Z</time>
</trkpt>
<trkpt lat="39.482057" lon="-8.211691">
<time>2021-10-07T12:31:34Z</time>
</trkpt>
<trkpt lat="39.482082" lon="-8.211726">
<time>2021-10-07T12:31:35Z</time>
</trkpt>
<trkpt lat="39.482106" lon="-8.211757">
<time>2021-10-07T12:31:36Z</time>
</trkpt>
<trkpt lat="39.482132" lon="-8.211788">
<time>2021-10-07T12:31:37Z</time>
</trkpt>
<trkpt lat="39.482157" lon="-8.211817">
<time>2021-10-07T12:31:38Z</time>
</trkpt>
<trkpt lat="39.482181" lon="-8.21185">
<time>2021-10-07T12:31:39Z</time>
</trkpt>
<trkpt lat="39.482206" lon="-8.211886">
<time>2021-10-07T12:31:40Z</time>
</trkpt>
<trkpt lat="39.482227" lon="-8.211919">
<time>2021-10-07T12:31:41Z</time>
</trkpt>
<trkpt lat="39.48225" lon="-8.211951">
<time>2021-10-07T12:31:42Z</time>
</trkpt>
<trkpt lat="39.482276" lon="-8.211982">
<time>2021-10-07T12:31:43Z</time>
</trkpt>
<trkpt lat="39.482298" lon="-8.212008">
<time>2021-10-07T12:31:44Z</time>
</trkpt>
<trkpt lat="39.482323" lon="-8.212034">
<time>2021-10-07T12:31:45Z</time>
</trkpt>
<trkpt lat="39.482344" lon="-8.212062">
<time>2021-10-07T12:31:46Z</time>
</trkpt>
<trkpt lat="39.482367" lon="-8.212088">
<time>2021-10-07T12:31:47Z</time>
</trkpt>
<trkpt lat="39.482388" lon="-8.212116">
<time>2021-10-07T12:31:48Z</time>
</trkpt>
<trkpt lat="39.482412" lon="-8.212145">
<time>2021-10-07T12:31:49Z</time>
</trkpt>
<trkpt lat="39.482435" lon="-8.212171">
<time>2021-10-07T12:31:50Z</time>
</trkpt>
<trkpt lat="39.48246" lon="-8.2122">
<time>2021-10-07T12:31:51Z</time>
</trkpt>
<trkpt lat="39.482482" lon="-8.212225">
<time>2021-10-07T12:31:52Z</time>
</trkpt>
<trkpt lat="39.482511" lon="-8.212254">
<time>2021-10-07T12:31:53Z</time>
</trkpt>
<trkpt lat="39.482532" lon="-8.212283">
<time>2021-10-07T12:31:54Z</time>
</trkpt>
<trkpt lat="39.482558" lon="-8.212314">
<time>2021-10-07T12:31:55Z</time>
</trkpt>
<trkpt lat="39.482582" lon="-8.212349">
<time>2021-10-07T12:31:56Z</time>
</trkpt>
<trkpt lat="39.482608" lon="-8.212381">
<time>2021-10-07T12:31:57Z</time>
</trkpt>
<trkpt lat="39.482631" lon="-8.212412">
<time>2021-10-07T12:31:58Z</time>
</trkpt>
<trkpt lat="39.482658" lon="-8.212443">
<time>2021-10-07T12:31:59Z</time>
</trkpt>
<trkpt lat="39.482686" lon="-8.212477">
<time>2021-10-07T12:32:00Z</time>
</trkpt>
<trkpt lat="39.482715" lon="-8.212511">
<time>2021-10-07T12:32:01Z</time>
</trkpt>
<trkpt lat="39.482743" lon="-8.212545">
<time>2021-10-07T12:32:02Z</time>
</trkpt>
<trkpt lat="39.482773" lon="-8.212575">
<time>2021-10-07T12:32:03Z</time>
</trkpt>
<trkpt lat="39.482802" lon="-8.212607">
<time>2021-10-07T12:32:04Z</time>
</trkpt>
<trkpt lat="39.482831" lon="-8.212636">
<time>2021-10-07T12:32:05Z</time>
</trkpt>
<trkpt lat="39.48286" lon="-8.212665">
<time>2021-10-07T12:32:06Z</time>
</trkpt>
<trkpt lat="39.482891" lon="-8.21269">
<time>2021-10-07T12:32:07Z</time>
</trkpt>
<trkpt lat="39.482922" lon="-8.21272">
<time>2021-10-07T12:32:08Z</time>
</trkpt>
<trkpt lat="39.482952" lon="-8.212752">
<time>2021-10-07T12:32:09Z</time>
</trkpt>
<trkpt lat="39.482982" lon="-8.212785">
<time>2021-10-07T12:32:10Z</time>
</trkpt>
<trkpt lat="39.483012" lon="-8.212819">
<time>2021-10-07T12:32:11Z</time>
</trkpt>
<trkpt lat="39.483044" lon="-8.212851">
<time>2021-10-07T12:32:12Z</time>
</trkpt>
<trkpt lat="39.483074" lon="-8.212883">
<time>2021-10-07T12:32:13Z</time>
</trkpt>
<trkpt lat="39.483101" lon="-8.212915">
<time>2021-10-07T12:32:14Z</time>
</trkpt>
<trkpt lat="39.483127" lon="-8.212948">
<time>2021-10-07T12:32:15Z</time>
</trkpt>
<trkpt lat="39.483152" lon="-8.212982">
<time>2021-10-07T12:32:16Z</time>
</trkpt>
<trkpt lat="39.483179" lon="-8.213016">
<time>2021-10-07T12:32:17Z</time>
</trkpt>
<trkpt lat="39.483208" lon="-8.213051">
<time>2021-10-07T12:32:18Z</time>
</trkpt>
<trkpt lat="39.48324" lon="-8.213087">
<time>2021-10-07T12:32:19Z</time>
</trkpt>
<trkpt lat="39.48327" lon="-8.213121">
<time>2021-10-07T12:32:20Z</time>
</trkpt>
<trkpt lat="39.4833" lon="-8.213158">
<time>2021-10-07T12:32:21Z</time>
</trkpt>
<trkpt lat="39.483333" lon="-8.2132">
<time>2021-10-07T12:32:22Z</time>
</trkpt>
<trkpt lat="39.483363" lon="-8.213245">
<time>2021-10-07T12:32:23Z</time>
</trkpt>
<trkpt lat="39.483389" lon="-8.213292">
<time>2021-10-07T12:32:24Z</time>
</trkpt>
<trkpt lat="39.483414" lon="-8.213343">
<time>2021-10-07T12:32:25Z</time>
</trkpt>
<trkpt lat="39.483433" lon="-8.213395">
<time>2021-10-07T12:32:26Z</time>
</trkpt>
<trkpt lat="39.483451" lon="-8.213445">
<time>2021-10-07T12:32:27Z</time>
</trkpt>
<trkpt lat="39.483473" lon="-8.213481">
<time>2021-10-07T12:32:28Z</time>
</trkpt>
<trkpt lat="39.483502" lon="-8.213501">
<time>2021-10-07T12:32:29Z</time>
</trkpt>
<trkpt lat="39.483537" lon="-8.213495">
<time>2021-10-07T12:32:30Z</time>
</trkpt>
<trkpt lat="39.483574" lon="-8.213466">
<time>2021-10-07T12:32:31Z</time>
</trkpt>
<trkpt lat="39.483614" lon="-8.213424">
<time>2021-10-07T12:32:32Z</time>
</trkpt>
<trkpt lat="39.483656" lon="-8.213379">
<time>2021-10-07T12:32:33Z</time>
</trkpt>
<trkpt lat="39.483704" lon="-8.213332">
<time>2021-10-07T12:32:34Z</time>
</trkpt>
<trkpt lat="39.483756" lon="-8.213291">
<time>2021-10-07T12:32:35Z</time>
</trkpt>
<trkpt lat="39.483811" lon="-8.21325">
<time>2021-10-07T12:32:36Z</time>
</trkpt>
<trkpt lat="39.483867" lon="-8.213216">
<time>2021-10-07T12:32:37Z</time>
</trkpt>
<trkpt lat="39.483925" lon="-8.213189">
<time>2021-10-07T12:32:38Z</time>
</trkpt>
<trkpt lat="39.483983" lon="-8.213167">
<time>2021-10-07T12:32:39Z</time>
</trkpt>
<trkpt lat="39.48404" lon="-8.213147">
<time>2021-10-07T12:32:40Z</time>
</trkpt>
<trkpt lat="39.484095" lon="-8.213132">
<time>2021-10-07T12:32:41Z</time>
</trkpt>
<trkpt lat="39.484151" lon="-8.213119">
<time>2021-10-07T12:32:42Z</time>
</trkpt>
<trkpt lat="39.484207" lon="-8.213106">
<time>2021-10-07T12:32:43Z</time>
</trkpt>
<trkpt lat="39.484261" lon="-8.213091">
<time>2021-10-07T12:32:44Z</time>
</trkpt>
<trkpt lat="39.484316" lon="-8.213075">
<time>2021-10-07T12:32:45Z</time>
</trkpt>
<trkpt lat="39.48437" lon="-8.213058">
<time>2021-10-07T12:32:46Z</time>
</trkpt>
<trkpt lat="39.484425" lon="-8.213041">
<time>2021-10-07T12:32:47Z</time>
</trkpt>
<trkpt lat="39.484481" lon="-8.213024">
<time>2021-10-07T12:32:48Z</time>
</trkpt>
<trkpt lat="39.484538" lon="-8.213011">
<time>2021-10-07T12:32:49Z</time>
</trkpt>
<trkpt lat="39.484596" lon="-8.213">
<time>2021-10-07T12:32:50Z</time>
</trkpt>
<trkpt lat="39.484655" lon="-8.212991">
<time>2021-10-07T12:32:51Z</time>
</trkpt>
<trkpt lat="39.484714" lon="-8.212981">
<time>2021-10-07T12:32:52Z</time>
</trkpt>
<trkpt lat="39.484774" lon="-8.212971">
<time>2021-10-07T12:32:53Z</time>
</trkpt>
<trkpt lat="39.484838" lon="-8.212961">
<time>2021-10-07T12:32:54Z</time>
</trkpt>
<trkpt lat="39.484897" lon="-8.212944">
<time>2021-10-07T12:32:55Z</time>
</trkpt>
<trkpt lat="39.484952" lon="-8.212918">
<time>2021-10-07T12:32:56Z</time>
</trkpt>
<trkpt lat="39.485004" lon="-8.212883">
<time>2021-10-07T12:32:57Z</time>
</trkpt>
<trkpt lat="39.485052" lon="-8.212842">
<time>2021-10-07T12:32:58Z</time>
</trkpt>
<trkpt lat="39.485093" lon="-8.212798">
<time>2021-10-07T12:32:59Z</time>
</trkpt>
<trkpt lat="39.485125" lon="-8.212752">
<time>2021-10-07T12:33:00Z</time>
</trkpt>
<trkpt lat="39.485139" lon="-8.212698">
<time>2021-10-07T12:33:01Z</time>
</trkpt>
<trkpt lat="39.485139" lon="-8.212648">
<time>2021-10-07T12:33:02Z</time>
</trkpt>
<trkpt lat="39.485134" lon="-8.212596">
<time>2021-10-07T12:33:03Z</time>
</trkpt>
<trkpt lat="39.485124" lon="-8.212534">
<time>2021-10-07T12:33:04Z</time>
</trkpt>
<trkpt lat="39.485123" lon="-8.212473">
<time>2021-10-07T12:33:05Z</time>
</trkpt>
<trkpt lat="39.485123" lon="-8.212412">
<time>2021-10-07T12:33:06Z</time>
</trkpt>
<trkpt lat="39.485125" lon="-8.212344">
<time>2021-10-07T12:33:07Z</time>
</trkpt>
<trkpt lat="39.485128" lon="-8.212284">
<time>2021-10-07T12:33:08Z</time>
</trkpt>
<trkpt lat="39.48515" lon="-8.212257">
<time>2021-10-07T12:33:09Z</time>
</trkpt>
<trkpt lat="39.485183" lon="-8.212247">
<time>2021-10-07T12:33:10Z</time>
</trkpt>
<trkpt lat="39.485217" lon="-8.212245">
<time>2021-10-07T12:33:11Z</time>
</trkpt>
<trkpt lat="39.485252" lon="-8.212243">
<time>2021-10-07T12:33:12Z</time>
</trkpt>
<trkpt lat="39.48529" lon="-8.212237">
<time>2021-10-07T12:33:13Z</time>
</trkpt>
<trkpt lat="39.485331" lon="-8.212227">
<time>2021-10-07T12:33:14Z</time>
</trkpt>
<trkpt lat="39.485373" lon="-8.212226">
<time>2021-10-07T12:33:15Z</time>
</trkpt>
<trkpt lat="39.48541" lon="-8.212224">
<time>2021-10-07T12:33:16Z</time>
</trkpt>
<trkpt lat="39.485448" lon="-8.212218">
<time>2021-10-07T12:33:17Z</time>
</trkpt>
<trkpt lat="39.485487" lon="-8.212199">
<time>2021-10-07T12:33:18Z</time>
</trkpt>
<trkpt lat="39.48553" lon="-8.212189">
<time>2021-10-07T12:33:19Z</time>
</trkpt>
<trkpt lat="39.485572" lon="-8.212181">
<time>2021-10-07T12:33:20Z</time>
</trkpt>
<trkpt lat="39.485609" lon="-8.212159">
<time>2021-10-07T12:33:21Z</time>
</trkpt>
<trkpt lat="39.485652" lon="-8.212119">
<time>2021-10-07T12:33:22Z</time>
</trkpt>
<trkpt lat="39.485697" lon="-8.212069">
<time>2021-10-07T12:33:23Z</time>
</trkpt>
<trkpt lat="39.485745" lon="-8.212029">
<time>2021-10-07T12:33:24Z</time>
</trkpt>
<trkpt lat="39.485793" lon="-8.211997">
<time>2021-10-07T12:33:25Z</time>
</trkpt>
<trkpt lat="39.485846" lon="-8.211969">
<time>2021-10-07T12:33:26Z</time>
</trkpt>
<trkpt lat="39.485903" lon="-8.211949">
<time>2021-10-07T12:33:27Z</time>
</trkpt>
<trkpt lat="39.485961" lon="-8.211941">
<time>2021-10-07T12:33:28Z</time>
</trkpt>
<trkpt lat="39.486022" lon="-8.21194">
<time>2021-10-07T12:33:29Z</time>
</trkpt>
<trkpt lat="39.486083" lon="-8.211947">
<time>2021-10-07T12:33:30Z</time>
</trkpt>
<trkpt lat="39.486147" lon="-8.211962">
<time>2021-10-07T12:33:31Z</time>
</trkpt>
<trkpt lat="39.486213" lon="-8.21198">
<time>2021-10-07T12:33:32Z</time>
</trkpt>
<trkpt lat="39.48628" lon="-8.211992">
<time>2021-10-07T12:33:33Z</time>
</trkpt>
<trkpt lat="39.486348" lon="-8.211995">
<time>2021-10-07T12:33:34Z</time>
</trkpt>
<trkpt lat="39.486415" lon="-8.21199">
<time>2021-10-07T12:33:35Z</time>
</trkpt>
<trkpt lat="39.486494" lon="-8.211979">
<time>2021-10-07T12:33:36Z</time>
</trkpt>
<trkpt lat="39.486573" lon="-8.21196">
<time>2021-10-07T12:33:37Z</time>
</trkpt>
<trkpt lat="39.48665" lon="-8.211931">
<time>2021-10-07T12:33:38Z</time>
</trkpt>
<trkpt lat="39.48672" lon="-8.211896">
<time>2021-10-07T12:33:39Z</time>
</trkpt>
<trkpt lat="39.486788" lon="-8.211856">
<time>2021-10-07T12:33:40Z</time>
</trkpt>
<trkpt lat="39.486851" lon="-8.211811">
<time>2021-10-07T12:33:41Z</time>
</trkpt>
<trkpt lat="39.486911" lon="-8.211764">
<time>2021-10-07T12:33:42Z</time>
</trkpt>
<trkpt lat="39.486969" lon="-8.211716">
<time>2021-10-07T12:33:43Z</time>
</trkpt>
<trkpt lat="39.487026" lon="-8.211663">
<time>2021-10-07T12:33:44Z</time>
</trkpt>
<trkpt lat="39.487081" lon="-8.211605">
<time>2021-10-07T12:33:45Z</time>
</trkpt>
<trkpt lat="39.487134" lon="-8.211546">
<time>2021-10-07T12:33:46Z</time>
</trkpt>
<trkpt lat="39.487182" lon="-8.211483">
<time>2021-10-07T12:33:47Z</time>
</trkpt>
<trkpt lat="39.487224" lon="-8.21142">
<time>2021-10-07T12:33:48Z</time>
</trkpt>
<trkpt lat="39.487262" lon="-8.21136">
<time>2021-10-07T12:33:49Z</time>
</trkpt>
<trkpt lat="39.487299" lon="-8.211303">
<time>2021-10-07T12:33:50Z</time>
</trkpt>
<trkpt lat="39.487337" lon="-8.211247">
<time>2021-10-07T12:33:51Z</time>
</trkpt>
<trkpt lat="39.487376" lon="-8.211194">
<time>2021-10-07T12:33:52Z</time>
</trkpt>
<trkpt lat="39.487419" lon="-8.211148">
<time>2021-10-07T12:33:53Z</time>
</trkpt>
<trkpt lat="39.487463" lon="-8.211107">
<time>2021-10-07T12:33:54Z</time>
</trkpt>
<trkpt lat="39.487509" lon="-8.211068">
<time>2021-10-07T12:33:55Z</time>
</trkpt>
<trkpt lat="39.487554" lon="-8.211026">
<time>2021-10-07T12:33:56Z</time>
</trkpt>
<trkpt lat="39.487601" lon="-8.210985">
<time>2021-10-07T12:33:57Z</time>
</trkpt>
<trkpt lat="39.487647" lon="-8.210941">
<time>2021-10-07T12:33:58Z</time>
</trkpt>
<trkpt lat="39.487689" lon="-8.210895">
<time>2021-10-07T12:33:59Z</time>
</trkpt>
<trkpt lat="39.48773" lon="-8.21085">
<time>2021-10-07T12:34:00Z</time>
</trkpt>
<trkpt lat="39.48777" lon="-8.210805">
<time>2021-10-07T12:34:01Z</time>
</trkpt>
<trkpt lat="39.48781" lon="-8.210759">
<time>2021-10-07T12:34:02Z</time>
</trkpt>
<trkpt lat="39.487852" lon="-8.210708">
<time>2021-10-07T12:34:03Z</time>
</trkpt>
<trkpt lat="39.487894" lon="-8.210656">
<time>2021-10-07T12:34:04Z</time>
</trkpt>
<trkpt lat="39.487938" lon="-8.2106">
<time>2021-10-07T12:34:05Z</time>
</trkpt>
<trkpt lat="39.487982" lon="-8.210542">
<time>2021-10-07T12:34:06Z</time>
</trkpt>
<trkpt lat="39.48803" lon="-8.210489">
<time>2021-10-07T12:34:07Z</time>
</trkpt>
<trkpt lat="39.488084" lon="-8.210433">
<time>2021-10-07T12:34:08Z</time>
</trkpt>
<trkpt lat="39.488145" lon="-8.210384">
<time>2021-10-07T12:34:09Z</time>
</trkpt>
<trkpt lat="39.488209" lon="-8.210341">
<time>2021-10-07T12:34:10Z</time>
</trkpt>
<trkpt lat="39.488278" lon="-8.210307">
<time>2021-10-07T12:34:11Z</time>
</trkpt>
<trkpt lat="39.488354" lon="-8.210278">
<time>2021-10-07T12:34:12Z</time>
</trkpt>
<trkpt lat="39.488435" lon="-8.21025">
<time>2021-10-07T12:34:13Z</time>
</trkpt>
<trkpt lat="39.488522" lon="-8.210217">
<time>2021-10-07T12:34:14Z</time>
</trkpt>
<trkpt lat="39.488612" lon="-8.210174">
<time>2021-10-07T12:34:15Z</time>
</trkpt>
<trkpt lat="39.488702" lon="-8.210123">
<time>2021-10-07T12:34:16Z</time>
</trkpt>
<trkpt lat="39.48879" lon="-8.210063">
<time>2021-10-07T12:34:17Z</time>
</trkpt>
<trkpt lat="39.488877" lon="-8.209992">
<time>2021-10-07T12:34:18Z</time>
</trkpt>
<trkpt lat="39.488961" lon="-8.209908">
<time>2021-10-07T12:34:19Z</time>
</trkpt>
<trkpt lat="39.489041" lon="-8.209814">
<time>2021-10-07T12:34:20Z</time>
</trkpt>
<trkpt lat="39.489122" lon="-8.209726">
<time>2021-10-07T12:34:21Z</time>
</trkpt>
<trkpt lat="39.489201" lon="-8.209639">
<time>2021-10-07T12:34:22Z</time>
</trkpt>
<trkpt lat="39.489283" lon="-8.209557">
<time>2021-10-07T12:34:23Z</time>
</trkpt>
<trkpt lat="39.489368" lon="-8.209488">
<time>2021-10-07T12:34:24Z</time>
</trkpt>
<trkpt lat="39.489455" lon="-8.209426">
<time>2021-10-07T12:34:25Z</time>
</trkpt>
<trkpt lat="39.489543" lon="-8.209366">
<time>2021-10-07T12:34:26Z</time>
</trkpt>
<trkpt lat="39.489634" lon="-8.209312">
<time>2021-10-07T12:34:27Z</time>
</trkpt>
<trkpt lat="39.489727" lon="-8.209263">
<time>2021-10-07T12:34:28Z</time>
</trkpt>
<trkpt lat="39.48982" lon="-8.209218">
<time>2021-10-07T12:34:29Z</time>
</trkpt>
<trkpt lat="39.489919" lon="-8.209183">
<time>2021-10-07T12:34:30Z</time>
</trkpt>
<trkpt lat="39.490021" lon="-8.209162">
<time>2021-10-07T12:34:31Z</time>
</trkpt>
<trkpt lat="39.49012" lon="-8.209154">
<time>2021-10-07T12:34:32Z</time>
</trkpt>
<trkpt lat="39.490217" lon="-8.209161">
<time>2021-10-07T12:34:33Z</time>
</trkpt>
<trkpt lat="39.490314" lon="-8.209181">
<time>2021-10-07T12:34:34Z</time>
</trkpt>
<trkpt lat="39.490412" lon="-8.209206">
<time>2021-10-07T12:34:35Z</time>
</trkpt>
<trkpt lat="39.490506" lon="-8.209229">
<time>2021-10-07T12:34:36Z</time>
</trkpt>
<trkpt lat="39.490601" lon="-8.209253">
<time>2021-10-07T12:34:37Z</time>
</trkpt>
<trkpt lat="39.490695" lon="-8.209276">
<time>2021-10-07T12:34:38Z</time>
</trkpt>
<trkpt lat="39.490789" lon="-8.209296">
<time>2021-10-07T12:34:39Z</time>
</trkpt>
<trkpt lat="39.490884" lon="-8.209317">
<time>2021-10-07T12:34:40Z</time>
</trkpt>
<trkpt lat="39.490979" lon="-8.209336">
<time>2021-10-07T12:34:41Z</time>
</trkpt>
<trkpt lat="39.491075" lon="-8.209359">
<time>2021-10-07T12:34:42Z</time>
</trkpt>
<trkpt lat="39.491168" lon="-8.209381">
<time>2021-10-07T12:34:43Z</time>
</trkpt>
<trkpt lat="39.49126" lon="-8.209403">
<time>2021-10-07T12:34:44Z</time>
</trkpt>
<trkpt lat="39.491354" lon="-8.209424">
<time>2021-10-07T12:34:45Z</time>
</trkpt>
<trkpt lat="39.491445" lon="-8.209445">
<time>2021-10-07T12:34:46Z</time>
</trkpt>
<trkpt lat="39.491535" lon="-8.209463">
<time>2021-10-07T12:34:47Z</time>
</trkpt>
<trkpt lat="39.491621" lon="-8.209478">
<time>2021-10-07T12:34:48Z</time>
</trkpt>
<trkpt lat="39.491705" lon="-8.209484">
<time>2021-10-07T12:34:49Z</time>
</trkpt>
<trkpt lat="39.491788" lon="-8.209478">
<time>2021-10-07T12:34:50Z</time>
</trkpt>
<trkpt lat="39.491864" lon="-8.20946">
<time>2021-10-07T12:34:51Z</time>
</trkpt>
<trkpt lat="39.491934" lon="-8.209435">
<time>2021-10-07T12:34:52Z</time>
</trkpt>
<trkpt lat="39.492" lon="-8.209408">
<time>2021-10-07T12:34:53Z</time>
</trkpt>
<trkpt lat="39.492059" lon="-8.209374">
<time>2021-10-07T12:34:54Z</time>
</trkpt>
<trkpt lat="39.492115" lon="-8.209336">
<time>2021-10-07T12:34:55Z</time>
</trkpt>
<trkpt lat="39.492166" lon="-8.209301">
<time>2021-10-07T12:34:56Z</time>
</trkpt>
<trkpt lat="39.492215" lon="-8.209267">
<time>2021-10-07T12:34:57Z</time>
</trkpt>
<trkpt lat="39.492262" lon="-8.209233">
<time>2021-10-07T12:34:58Z</time>
</trkpt>
<trkpt lat="39.492307" lon="-8.209199">
<time>2021-10-07T12:34:59Z</time>
</trkpt>
<trkpt lat="39.49235" lon="-8.209165">
<time>2021-10-07T12:35:00Z</time>
</trkpt>
<trkpt lat="39.492392" lon="-8.209133">
<time>2021-10-07T12:35:01Z</time>
</trkpt>
<trkpt lat="39.492431" lon="-8.209102">
<time>2021-10-07T12:35:02Z</time>
</trkpt>
<trkpt lat="39.49247" lon="-8.209069">
<time>2021-10-07T12:35:03Z</time>
</trkpt>
<trkpt lat="39.492503" lon="-8.209032">
<time>2021-10-07T12:35:04Z</time>
</trkpt>
<trkpt lat="39.492534" lon="-8.208986">
<time>2021-10-07T12:35:05Z</time>
</trkpt>
<trkpt lat="39.492556" lon="-8.208937">
<time>2021-10-07T12:35:06Z</time>
</trkpt>
<trkpt lat="39.492564" lon="-8.208884">
<time>2021-10-07T12:35:07Z</time>
</trkpt>
<trkpt lat="39.492567" lon="-8.208829">
<time>2021-10-07T12:35:08Z</time>
</trkpt>
<trkpt lat="39.492566" lon="-8.20877">
<time>2021-10-07T12:35:09Z</time>
</trkpt>
<trkpt lat="39.492565" lon="-8.208714">
<time>2021-10-07T12:35:10Z</time>
</trkpt>
<trkpt lat="39.492569" lon="-8.208656">
<time>2021-10-07T12:35:11Z</time>
</trkpt>
<trkpt lat="39.492573" lon="-8.208595">
<time>2021-10-07T12:35:12Z</time>
</trkpt>
<trkpt lat="39.492579" lon="-8.208534">
<time>2021-10-07T12:35:13Z</time>
</trkpt>
<trkpt lat="39.492586" lon="-8.208474">
<time>2021-10-07T12:35:14Z</time>
</trkpt>
<trkpt lat="39.492596" lon="-8.208416">
<time>2021-10-07T12:35:15Z</time>
</trkpt>
<trkpt lat="39.492608" lon="-8.208354">
<time>2021-10-07T12:35:16Z</time>
</trkpt>
<trkpt lat="39.492621" lon="-8.208296">
<time>2021-10-07T12:35:17Z</time>
</trkpt>
<trkpt lat="39.492638" lon="-8.208241">
<time>2021-10-07T12:35:18Z</time>
</trkpt>
<trkpt lat="39.492656" lon="-8.208188">
<time>2021-10-07T12:35:19Z</time>
</trkpt>
<trkpt lat="39.492676" lon="-8.208138">
<time>2021-10-07T12:35:20Z</time>
</trkpt>
<trkpt lat="39.492699" lon="-8.208087">
<time>2021-10-07T12:35:21Z</time>
</trkpt>
<trkpt lat="39.492728" lon="-8.208032">
<time>2021-10-07T12:35:22Z</time>
</trkpt>
<trkpt lat="39.492762" lon="-8.207977">
<time>2021-10-07T12:35:23Z</time>
</trkpt>
<trkpt lat="39.492799" lon="-8.207915">
<time>2021-10-07T12:35:24Z</time>
</trkpt>
<trkpt lat="39.492838" lon="-8.207851">
<time>2021-10-07T12:35:25Z</time>
</trkpt>
<trkpt lat="39.49288" lon="-8.207783">
<time>2021-10-07T12:35:26Z</time>
</trkpt>
<trkpt lat="39.492924" lon="-8.207719">
<time>2021-10-07T12:35:27Z</time>
</trkpt>
<trkpt lat="39.492972" lon="-8.207648">
<time>2021-10-07T12:35:28Z</time>
</trkpt>
<trkpt lat="39.493027" lon="-8.207585">
<time>2021-10-07T12:35:29Z</time>
</trkpt>
<trkpt lat="39.493087" lon="-8.207529">
<time>2021-10-07T12:35:30Z</time>
</trkpt>
<trkpt lat="39.493148" lon="-8.207477">
<time>2021-10-07T12:35:31Z</time>
</trkpt>
<trkpt lat="39.493216" lon="-8.207428">
<time>2021-10-07T12:35:32Z</time>
</trkpt>
<trkpt lat="39.493285" lon="-8.207388">
<time>2021-10-07T12:35:33Z</time>
</trkpt>
<trkpt lat="39.49335" lon="-8.207347">
<time>2021-10-07T12:35:34Z</time>
</trkpt>
<trkpt lat="39.493413" lon="-8.207303">
<time>2021-10-07T12:35:35Z</time>
</trkpt>
<trkpt lat="39.493474" lon="-8.207261">
<time>2021-10-07T12:35:36Z</time>
</trkpt>
<trkpt lat="39.493534" lon="-8.207222">
<time>2021-10-07T12:35:37Z</time>
</trkpt>
<trkpt lat="39.493596" lon="-8.207192">
<time>2021-10-07T12:35:38Z</time>
</trkpt>
<trkpt lat="39.493658" lon="-8.207168">
<time>2021-10-07T12:35:39Z</time>
</trkpt>
<trkpt lat="39.493722" lon="-8.207152">
<time>2021-10-07T12:35:40Z</time>
</trkpt>
<trkpt lat="39.493788" lon="-8.207138">
<time>2021-10-07T12:35:41Z</time>
</trkpt>
<trkpt lat="39.493854" lon="-8.207119">
<time>2021-10-07T12:35:42Z</time>
</trkpt>
<trkpt lat="39.493923" lon="-8.2071">
<time>2021-10-07T12:35:43Z</time>
</trkpt>
<trkpt lat="39.493992" lon="-8.207077">
<time>2021-10-07T12:35:44Z</time>
</trkpt>
<trkpt lat="39.494061" lon="-8.207054">
<time>2021-10-07T12:35:45Z</time>
</trkpt>
<trkpt lat="39.49413" lon="-8.207026">
<time>2021-10-07T12:35:46Z</time>
</trkpt>
<trkpt lat="39.494199" lon="-8.206998">
<time>2021-10-07T12:35:47Z</time>
</trkpt>
<trkpt lat="39.494265" lon="-8.206973">
<time>2021-10-07T12:35:48Z</time>
</trkpt>
<trkpt lat="39.49433" lon="-8.206951">
<time>2021-10-07T12:35:49Z</time>
</trkpt>
<trkpt lat="39.494397" lon="-8.206934">
<time>2021-10-07T12:35:50Z</time>
</trkpt>
<trkpt lat="39.494463" lon="-8.206921">
<time>2021-10-07T12:35:51Z</time>
</trkpt>
<trkpt lat="39.494529" lon="-8.206905">
<time>2021-10-07T12:35:52Z</time>
</trkpt>
<trkpt lat="39.494594" lon="-8.206887">
<time>2021-10-07T12:35:53Z</time>
</trkpt>
<trkpt lat="39.494658" lon="-8.206867">
<time>2021-10-07T12:35:54Z</time>
</trkpt>
<trkpt lat="39.494721" lon="-8.206847">
<time>2021-10-07T12:35:55Z</time>
</trkpt>
<trkpt lat="39.494785" lon="-8.206832">
<time>2021-10-07T12:35:56Z</time>
</trkpt>
<trkpt lat="39.494849" lon="-8.20683">
<time>2021-10-07T12:35:57Z</time>
</trkpt>
<trkpt lat="39.494911" lon="-8.206838">
<time>2021-10-07T12:35:58Z</time>
</trkpt>
<trkpt lat="39.494973" lon="-8.206854">
<time>2021-10-07T12:35:59Z</time>
</trkpt>
<trkpt lat="39.49503" lon="-8.206874">
<time>2021-10-07T12:36:00Z</time>
</trkpt>
<trkpt lat="39.495086" lon="-8.206898">
<time>2021-10-07T12:36:01Z</time>
</trkpt>
<trkpt lat="39.49514" lon="-8.206921">
<time>2021-10-07T12:36:02Z</time>
</trkpt>
<trkpt lat="39.495191" lon="-8.206943">
<time>2021-10-07T12:36:03Z</time>
</trkpt>
<trkpt lat="39.495244" lon="-8.206965">
<time>2021-10-07T12:36:04Z</time>
</trkpt>
<trkpt lat="39.495296" lon="-8.206987">
<time>2021-10-07T12:36:05Z</time>
</trkpt>
<trkpt lat="39.495352" lon="-8.207005">
<time>2021-10-07T12:36:06Z</time>
</trkpt>
<trkpt lat="39.495412" lon="-8.207012">
<time>2021-10-07T12:36:07Z</time>
</trkpt>
<trkpt lat="39.495474" lon="-8.207008">
<time>2021-10-07T12:36:08Z</time>
</trkpt>
<trkpt lat="39.495541" lon="-8.206996">
<time>2021-10-07T12:36:09Z</time>
</trkpt>
<trkpt lat="39.495604" lon="-8.206981">
<time>2021-10-07T12:36:10Z</time>
</trkpt>
<trkpt lat="39.495669" lon="-8.206965">
<time>2021-10-07T12:36:11Z</time>
</trkpt>
<trkpt lat="39.495735" lon="-8.206948">
<time>2021-10-07T12:36:12Z</time>
</trkpt>
<trkpt lat="39.495804" lon="-8.206934">
<time>2021-10-07T12:36:13Z</time>
</trkpt>
<trkpt lat="39.495875" lon="-8.206922">
<time>2021-10-07T12:36:14Z</time>
</trkpt>
<trkpt lat="39.495946" lon="-8.206904">
<time>2021-10-07T12:36:15Z</time>
</trkpt>
<trkpt lat="39.496017" lon="-8.206877">
<time>2021-10-07T12:36:16Z</time>
</trkpt>
<trkpt lat="39.496087" lon="-8.206845">
<time>2021-10-07T12:36:17Z</time>
</trkpt>
<trkpt lat="39.49616" lon="-8.206809">
<time>2021-10-07T12:36:18Z</time>
</trkpt>
<trkpt lat="39.496237" lon="-8.206774">
<time>2021-10-07T12:36:19Z</time>
</trkpt>
<trkpt lat="39.496314" lon="-8.206739">
<time>2021-10-07T12:36:20Z</time>
</trkpt>
<trkpt lat="39.496386" lon="-8.206697">
<time>2021-10-07T12:36:21Z</time>
</trkpt>
<trkpt lat="39.496449" lon="-8.206642">
<time>2021-10-07T12:36:22Z</time>
</trkpt>
<trkpt lat="39.496501" lon="-8.206577">
<time>2021-10-07T12:36:23Z</time>
</trkpt>
<trkpt lat="39.496547" lon="-8.206511">
<time>2021-10-07T12:36:24Z</time>
</trkpt>
<trkpt lat="39.49659" lon="-8.206449">
<time>2021-10-07T12:36:25Z</time>
</trkpt>
<trkpt lat="39.496628" lon="-8.206392">
<time>2021-10-07T12:36:26Z</time>
</trkpt>
<trkpt lat="39.496663" lon="-8.206335">
<time>2021-10-07T12:36:27Z</time>
</trkpt>
<trkpt lat="39.496698" lon="-8.206279">
<time>2021-10-07T12:36:28Z</time>
</trkpt>
<trkpt lat="39.496731" lon="-8.206226">
<time>2021-10-07T12:36:29Z</time>
</trkpt>
<trkpt lat="39.496762" lon="-8.206174">
<time>2021-10-07T12:36:30Z</time>
</trkpt>
<trkpt lat="39.496792" lon="-8.206122">
<time>2021-10-07T12:36:31Z</time>
</trkpt>
<trkpt lat="39.496822" lon="-8.206069">
<time>2021-10-07T12:36:32Z</time>
</trkpt>
<trkpt lat="39.496855" lon="-8.206022">
<time>2021-10-07T12:36:33Z</time>
</trkpt>
<trkpt lat="39.496891" lon="-8.205977">
<time>2021-10-07T12:36:34Z</time>
</trkpt>
<trkpt lat="39.496935" lon="-8.205937">
<time>2021-10-07T12:36:35Z</time>
</trkpt>
<trkpt lat="39.496977" lon="-8.205893">
<time>2021-10-07T12:36:36Z</time>
</trkpt>
<trkpt lat="39.497021" lon="-8.205841">
<time>2021-10-07T12:36:37Z</time>
</trkpt>
<trkpt lat="39.497068" lon="-8.205791">
<time>2021-10-07T12:36:38Z</time>
</trkpt>
<trkpt lat="39.497118" lon="-8.205744">
<time>2021-10-07T12:36:39Z</time>
</trkpt>
<trkpt lat="39.497171" lon="-8.2057">
<time>2021-10-07T12:36:40Z</time>
</trkpt>
<trkpt lat="39.497226" lon="-8.205655">
<time>2021-10-07T12:36:41Z</time>
</trkpt>
<trkpt lat="39.497282" lon="-8.205611">
<time>2021-10-07T12:36:42Z</time>
</trkpt>
<trkpt lat="39.497339" lon="-8.205566">
<time>2021-10-07T12:36:43Z</time>
</trkpt>
<trkpt lat="39.497401" lon="-8.205531">
<time>2021-10-07T12:36:44Z</time>
</trkpt>
<trkpt lat="39.497464" lon="-8.205515">
<time>2021-10-07T12:36:45Z</time>
</trkpt>
<trkpt lat="39.497523" lon="-8.205501">
<time>2021-10-07T12:36:46Z</time>
</trkpt>
<trkpt lat="39.497578" lon="-8.205484">
<time>2021-10-07T12:36:47Z</time>
</trkpt>
<trkpt lat="39.497631" lon="-8.20547">
<time>2021-10-07T12:36:48Z</time>
</trkpt>
<trkpt lat="39.49768" lon="-8.205456">
<time>2021-10-07T12:36:49Z</time>
</trkpt>
<trkpt lat="39.497728" lon="-8.205438">
<time>2021-10-07T12:36:50Z</time>
</trkpt>
<trkpt lat="39.49777" lon="-8.205419">
<time>2021-10-07T12:36:51Z</time>
</trkpt>
<trkpt lat="39.497806" lon="-8.2054">
<time>2021-10-07T12:36:52Z</time>
</trkpt>
<trkpt lat="39.49784" lon="-8.205379">
<time>2021-10-07T12:36:53Z</time>
</trkpt>
<trkpt lat="39.497868" lon="-8.205352">
<time>2021-10-07T12:36:54Z</time>
</trkpt>
<trkpt lat="39.497895" lon="-8.205321">
<time>2021-10-07T12:36:55Z</time>
</trkpt>
<trkpt lat="39.497924" lon="-8.205287">
<time>2021-10-07T12:36:56Z</time>
</trkpt>
<trkpt lat="39.497951" lon="-8.20525">
<time>2021-10-07T12:36:57Z</time>
</trkpt>
<trkpt lat="39.497974" lon="-8.205208">
<time>2021-10-07T12:36:58Z</time>
</trkpt>
<trkpt lat="39.497997" lon="-8.205168">
<time>2021-10-07T12:36:59Z</time>
</trkpt>
<trkpt lat="39.498027" lon="-8.20513">
<time>2021-10-07T12:37:00Z</time>
</trkpt>
<trkpt lat="39.498061" lon="-8.205093">
<time>2021-10-07T12:37:01Z</time>
</trkpt>
<trkpt lat="39.498104" lon="-8.205066">
<time>2021-10-07T12:37:02Z</time>
</trkpt>
<trkpt lat="39.49815" lon="-8.205049">
<time>2021-10-07T12:37:03Z</time>
</trkpt>
<trkpt lat="39.498197" lon="-8.205046">
<time>2021-10-07T12:37:04Z</time>
</trkpt>
<trkpt lat="39.498245" lon="-8.205055">
<time>2021-10-07T12:37:05Z</time>
</trkpt>
<trkpt lat="39.49829" lon="-8.205081">
<time>2021-10-07T12:37:06Z</time>
</trkpt>
<trkpt lat="39.498332" lon="-8.205111">
<time>2021-10-07T12:37:07Z</time>
</trkpt>
<trkpt lat="39.49837" lon="-8.205143">
<time>2021-10-07T12:37:08Z</time>
</trkpt>
<trkpt lat="39.498406" lon="-8.205182">
<time>2021-10-07T12:37:09Z</time>
</trkpt>
<trkpt lat="39.49844" lon="-8.205217">
<time>2021-10-07T12:37:10Z</time>
</trkpt>
<trkpt lat="39.498475" lon="-8.205252">
<time>2021-10-07T12:37:11Z</time>
</trkpt>
<trkpt lat="39.498508" lon="-8.20529">
<time>2021-10-07T12:37:12Z</time>
</trkpt>
<trkpt lat="39.498545" lon="-8.205333">
<time>2021-10-07T12:37:13Z</time>
</trkpt>
<trkpt lat="39.498582" lon="-8.205381">
<time>2021-10-07T12:37:14Z</time>
</trkpt>
<trkpt lat="39.498617" lon="-8.205437">
<time>2021-10-07T12:37:15Z</time>
</trkpt>
<trkpt lat="39.498651" lon="-8.205504">
<time>2021-10-07T12:37:16Z</time>
</trkpt>
<trkpt lat="39.498676" lon="-8.20558">
<time>2021-10-07T12:37:17Z</time>
</trkpt>
<trkpt lat="39.498697" lon="-8.205661">
<time>2021-10-07T12:37:18Z</time>
</trkpt>
<trkpt lat="39.498714" lon="-8.205743">
<time>2021-10-07T12:37:19Z</time>
</trkpt>
<trkpt lat="39.498727" lon="-8.205825">
<time>2021-10-07T12:37:20Z</time>
</trkpt>
<trkpt lat="39.498741" lon="-8.205903">
<time>2021-10-07T12:37:21Z</time>
</trkpt>
<trkpt lat="39.498753" lon="-8.205976">
<time>2021-10-07T12:37:22Z</time>
</trkpt>
<trkpt lat="39.498762" lon="-8.206045">
<time>2021-10-07T12:37:23Z</time>
</trkpt>
<trkpt lat="39.498769" lon="-8.206107">
<time>2021-10-07T12:37:24Z</time>
</trkpt>
<trkpt lat="39.498768" lon="-8.206164">
<time>2021-10-07T12:37:25Z</time>
</trkpt>
<trkpt lat="39.498757" lon="-8.206215">
<time>2021-10-07T12:37:26Z</time>
</trkpt>
<trkpt lat="39.498737" lon="-8.206263">
<time>2021-10-07T12:37:27Z</time>
</trkpt>
<trkpt lat="39.49871" lon="-8.206313">
<time>2021-10-07T12:37:28Z</time>
</trkpt>
<trkpt lat="39.498676" lon="-8.206372">
<time>2021-10-07T12:37:29Z</time>
</trkpt>
<trkpt lat="39.498639" lon="-8.206438">
<time>2021-10-07T12:37:30Z</time>
</trkpt>
<trkpt lat="39.498604" lon="-8.206513">
<time>2021-10-07T12:37:31Z</time>
</trkpt>
<trkpt lat="39.49857" lon="-8.206597">
<time>2021-10-07T12:37:32Z</time>
</trkpt>
<trkpt lat="39.498537" lon="-8.206693">
<time>2021-10-07T12:37:33Z</time>
</trkpt>
<trkpt lat="39.498497" lon="-8.206799">
<time>2021-10-07T12:37:34Z</time>
</trkpt>
<trkpt lat="39.498455" lon="-8.206913">
<time>2021-10-07T12:37:35Z</time>
</trkpt>
<trkpt lat="39.498415" lon="-8.207033">
<time>2021-10-07T12:37:36Z</time>
</trkpt>
<trkpt lat="39.498386" lon="-8.207161">
<time>2021-10-07T12:37:37Z</time>
</trkpt>
<trkpt lat="39.498369" lon="-8.20729">
<time>2021-10-07T12:37:38Z</time>
</trkpt>
<trkpt lat="39.498365" lon="-8.207402">
<time>2021-10-07T12:37:39Z</time>
</trkpt>
<trkpt lat="39.498374" lon="-8.207496">
<time>2021-10-07T12:37:40Z</time>
</trkpt>
<trkpt lat="39.498393" lon="-8.207575">
<time>2021-10-07T12:37:41Z</time>
</trkpt>
<trkpt lat="39.498422" lon="-8.207638">
<time>2021-10-07T12:37:42Z</time>
</trkpt>
<trkpt lat="39.498462" lon="-8.207692">
<time>2021-10-07T12:37:43Z</time>
</trkpt>
<trkpt lat="39.498514" lon="-8.20775">
<time>2021-10-07T12:37:44Z</time>
</trkpt>
<trkpt lat="39.498575" lon="-8.207811">
<time>2021-10-07T12:37:45Z</time>
</trkpt>
<trkpt lat="39.498641" lon="-8.20787">
<time>2021-10-07T12:37:46Z</time>
</trkpt>
<trkpt lat="39.498709" lon="-8.20793">
<time>2021-10-07T12:37:47Z</time>
</trkpt>
<trkpt lat="39.498773" lon="-8.20799">
<time>2021-10-07T12:37:48Z</time>
</trkpt>
<trkpt lat="39.498831" lon="-8.208051">
<time>2021-10-07T12:37:49Z</time>
</trkpt>
<trkpt lat="39.498882" lon="-8.208123">
<time>2021-10-07T12:37:50Z</time>
</trkpt>
<trkpt lat="39.498926" lon="-8.208205">
<time>2021-10-07T12:37:51Z</time>
</trkpt>
<trkpt lat="39.498968" lon="-8.208294">
<time>2021-10-07T12:37:52Z</time>
</trkpt>
<trkpt lat="39.499011" lon="-8.208384">
<time>2021-10-07T12:37:53Z</time>
</trkpt>
<trkpt lat="39.499052" lon="-8.208477">
<time>2021-10-07T12:37:54Z</time>
</trkpt>
<trkpt lat="39.499094" lon="-8.208572">
<time>2021-10-07T12:37:55Z</time>
</trkpt>
<trkpt lat="39.499136" lon="-8.208658">
<time>2021-10-07T12:37:56Z</time>
</trkpt>
<trkpt lat="39.499183" lon="-8.208736">
<time>2021-10-07T12:37:57Z</time>
</trkpt>
<trkpt lat="39.499237" lon="-8.208811">
<time>2021-10-07T12:37:58Z</time>
</trkpt>
<trkpt lat="39.499294" lon="-8.208883">
<time>2021-10-07T12:37:59Z</time>
</trkpt>
<trkpt lat="39.499352" lon="-8.208947">
<time>2021-10-07T12:38:00Z</time>
</trkpt>
<trkpt lat="39.499413" lon="-8.20901">
<time>2021-10-07T12:38:01Z</time>
</trkpt>
<trkpt lat="39.499471" lon="-8.209082">
<time>2021-10-07T12:38:02Z</time>
</trkpt>
<trkpt lat="39.499518" lon="-8.209166">
<time>2021-10-07T12:38:03Z</time>
</trkpt>
<trkpt lat="39.499552" lon="-8.209261">
<time>2021-10-07T12:38:04Z</time>
</trkpt>
<trkpt lat="39.499583" lon="-8.209356">
<time>2021-10-07T12:38:05Z</time>
</trkpt>
<trkpt lat="39.499611" lon="-8.209443">
<time>2021-10-07T12:38:06Z</time>
</trkpt>
<trkpt lat="39.499638" lon="-8.209527">
<time>2021-10-07T12:38:07Z</time>
</trkpt>
<trkpt lat="39.499669" lon="-8.209621">
<time>2021-10-07T12:38:08Z</time>
</trkpt>
<trkpt lat="39.499704" lon="-8.209721">
<time>2021-10-07T12:38:09Z</time>
</trkpt>
<trkpt lat="39.499739" lon="-8.209812">
<time>2021-10-07T12:38:10Z</time>
</trkpt>
<trkpt lat="39.49977" lon="-8.209877">
<time>2021-10-07T12:38:11Z</time>
</trkpt>
<trkpt lat="39.499795" lon="-8.209914">
<time>2021-10-07T12:38:12Z</time>
</trkpt>
<trkpt lat="39.499805" lon="-8.209912">
<time>2021-10-07T12:38:13Z</time>
</trkpt>
<trkpt lat="39.499815" lon="-8.209892">
<time>2021-10-07T12:38:14Z</time>
</trkpt>
<trkpt lat="39.499829" lon="-8.209858">
<time>2021-10-07T12:38:15Z</time>
</trkpt>
<trkpt lat="39.499851" lon="-8.209816">
<time>2021-10-07T12:38:16Z</time>
</trkpt>
<trkpt lat="39.499888" lon="-8.209781">
<time>2021-10-07T12:38:17Z</time>
</trkpt>
<trkpt lat="39.499926" lon="-8.20975">
<time>2021-10-07T12:38:18Z</time>
</trkpt>
<trkpt lat="39.499969" lon="-8.20972">
<time>2021-10-07T12:38:19Z</time>
</trkpt>
<trkpt lat="39.500014" lon="-8.209688">
<time>2021-10-07T12:38:20Z</time>
</trkpt>
<trkpt lat="39.500058" lon="-8.209656">
<time>2021-10-07T12:38:21Z</time>
</trkpt>
<trkpt lat="39.5001" lon="-8.209625">
<time>2021-10-07T12:38:22Z</time>
</trkpt>
<trkpt lat="39.500142" lon="-8.209593">
<time>2021-10-07T12:38:23Z</time>
</trkpt>
<trkpt lat="39.500182" lon="-8.209554">
<time>2021-10-07T12:38:24Z</time>
</trkpt>
<trkpt lat="39.500225" lon="-8.209517">
<time>2021-10-07T12:38:25Z</time>
</trkpt>
<trkpt lat="39.500269" lon="-8.209481">
<time>2021-10-07T12:38:26Z</time>
</trkpt>
<trkpt lat="39.500313" lon="-8.209439">
<time>2021-10-07T12:38:27Z</time>
</trkpt>
<trkpt lat="39.500358" lon="-8.209394">
<time>2021-10-07T12:38:28Z</time>
</trkpt>
<trkpt lat="39.500404" lon="-8.209346">
<time>2021-10-07T12:38:29Z</time>
</trkpt>
<trkpt lat="39.500451" lon="-8.209298">
<time>2021-10-07T12:38:30Z</time>
</trkpt>
<trkpt lat="39.500501" lon="-8.209247">
<time>2021-10-07T12:38:31Z</time>
</trkpt>
<trkpt lat="39.500551" lon="-8.209197">
<time>2021-10-07T12:38:32Z</time>
</trkpt>
<trkpt lat="39.500597" lon="-8.209145">
<time>2021-10-07T12:38:33Z</time>
</trkpt>
<trkpt lat="39.50064" lon="-8.209095">
<time>2021-10-07T12:38:34Z</time>
</trkpt>
<trkpt lat="39.500682" lon="-8.209049">
<time>2021-10-07T12:38:35Z</time>
</trkpt>
<trkpt lat="39.500723" lon="-8.209004">
<time>2021-10-07T12:38:36Z</time>
</trkpt>
<trkpt lat="39.500767" lon="-8.208944">
<time>2021-10-07T12:38:37Z</time>
</trkpt>
<trkpt lat="39.50081" lon="-8.20889">
<time>2021-10-07T12:38:38Z</time>
</trkpt>
<trkpt lat="39.50085" lon="-8.208843">
<time>2021-10-07T12:38:39Z</time>
</trkpt>
<trkpt lat="39.50089" lon="-8.208794">
<time>2021-10-07T12:38:40Z</time>
</trkpt>
<trkpt lat="39.500929" lon="-8.208769">
<time>2021-10-07T12:38:41Z</time>
</trkpt>
<trkpt lat="39.500971" lon="-8.208776">
<time>2021-10-07T12:38:42Z</time>
</trkpt>
<trkpt lat="39.501009" lon="-8.20881">
<time>2021-10-07T12:38:43Z</time>
</trkpt>
<trkpt lat="39.501047" lon="-8.20886">
<time>2021-10-07T12:38:44Z</time>
</trkpt>
<trkpt lat="39.501085" lon="-8.208921">
<time>2021-10-07T12:38:45Z</time>
</trkpt>
<trkpt lat="39.501125" lon="-8.208989">
<time>2021-10-07T12:38:46Z</time>
</trkpt>
<trkpt lat="39.501166" lon="-8.209054">
<time>2021-10-07T12:38:47Z</time>
</trkpt>
<trkpt lat="39.501206" lon="-8.20911">
<time>2021-10-07T12:38:48Z</time>
</trkpt>
<trkpt lat="39.501246" lon="-8.209166">
<time>2021-10-07T12:38:49Z</time>
</trkpt>
<trkpt lat="39.501282" lon="-8.209221">
<time>2021-10-07T12:38:50Z</time>
</trkpt>
<trkpt lat="39.501317" lon="-8.209264">
<time>2021-10-07T12:38:51Z</time>
</trkpt>
<trkpt lat="39.501338" lon="-8.209283">
<time>2021-10-07T12:38:52Z</time>
</trkpt>
<trkpt lat="39.501362" lon="-8.209279">
<time>2021-10-07T12:38:53Z</time>
</trkpt>
<trkpt lat="39.501389" lon="-8.209262">
<time>2021-10-07T12:38:54Z</time>
</trkpt>
<trkpt lat="39.501417" lon="-8.209235">
<time>2021-10-07T12:38:55Z</time>
</trkpt>
<trkpt lat="39.501448" lon="-8.209206">
<time>2021-10-07T12:38:56Z</time>
</trkpt>
<trkpt lat="39.501478" lon="-8.209177">
<time>2021-10-07T12:38:57Z</time>
</trkpt>
<trkpt lat="39.501515" lon="-8.209157">
<time>2021-10-07T12:38:58Z</time>
</trkpt>
<trkpt lat="39.501554" lon="-8.20913">
<time>2021-10-07T12:38:59Z</time>
</trkpt>
<trkpt lat="39.501591" lon="-8.209097">
<time>2021-10-07T12:39:00Z</time>
</trkpt>
<trkpt lat="39.501627" lon="-8.209065">
<time>2021-10-07T12:39:01Z</time>
</trkpt>
<trkpt lat="39.501663" lon="-8.209031">
<time>2021-10-07T12:39:02Z</time>
</trkpt>
<trkpt lat="39.501694" lon="-8.208985">
<time>2021-10-07T12:39:03Z</time>
</trkpt>
<trkpt lat="39.501727" lon="-8.20894">
<time>2021-10-07T12:39:04Z</time>
</trkpt>
<trkpt lat="39.501761" lon="-8.208894">
<time>2021-10-07T12:39:05Z</time>
</trkpt>
<trkpt lat="39.501791" lon="-8.208841">
<time>2021-10-07T12:39:06Z</time>
</trkpt>
<trkpt lat="39.501819" lon="-8.208785">
<time>2021-10-07T12:39:07Z</time>
</trkpt>
<trkpt lat="39.501848" lon="-8.208728">
<time>2021-10-07T12:39:08Z</time>
</trkpt>
<trkpt lat="39.501881" lon="-8.208674">
<time>2021-10-07T12:39:09Z</time>
</trkpt>
<trkpt lat="39.50192" lon="-8.208616">
<time>2021-10-07T12:39:10Z</time>
</trkpt>
<trkpt lat="39.501965" lon="-8.20856">
<time>2021-10-07T12:39:11Z</time>
</trkpt>
<trkpt lat="39.502017" lon="-8.208506">
<time>2021-10-07T12:39:12Z</time>
</trkpt>
<trkpt lat="39.502074" lon="-8.208463">
<time>2021-10-07T12:39:13Z</time>
</trkpt>
<trkpt lat="39.50213" lon="-8.20842">
<time>2021-10-07T12:39:14Z</time>
</trkpt>
<trkpt lat="39.50218" lon="-8.208373">
<time>2021-10-07T12:39:15Z</time>
</trkpt>
<trkpt lat="39.502228" lon="-8.208322">
<time>2021-10-07T12:39:16Z</time>
</trkpt>
<trkpt lat="39.502269" lon="-8.208287">
<time>2021-10-07T12:39:17Z</time>
</trkpt>
<trkpt lat="39.502296" lon="-8.208274">
<time>2021-10-07T12:39:18Z</time>
</trkpt>
<trkpt lat="39.502314" lon="-8.20828">
<time>2021-10-07T12:39:19Z</time>
</trkpt>
<trkpt lat="39.502318" lon="-8.20829">
<time>2021-10-07T12:39:20Z</time>
</trkpt>
<trkpt lat="39.502302" lon="-8.208293">
<time>2021-10-07T12:39:21Z</time>
</trkpt>
<trkpt lat="39.502272" lon="-8.208294">
<time>2021-10-07T12:39:22Z</time>
</trkpt>
<trkpt lat="39.502241" lon="-8.208305">
<time>2021-10-07T12:39:23Z</time>
</trkpt>
<trkpt lat="39.502206" lon="-8.208325">
<time>2021-10-07T12:39:24Z</time>
</trkpt>
<trkpt lat="39.502168" lon="-8.208364">
<time>2021-10-07T12:39:25Z</time>
</trkpt>
<trkpt lat="39.502123" lon="-8.208401">
<time>2021-10-07T12:39:26Z</time>
</trkpt>
<trkpt lat="39.502075" lon="-8.208436">
<time>2021-10-07T12:39:27Z</time>
</trkpt>
<trkpt lat="39.502024" lon="-8.20848">
<time>2021-10-07T12:39:28Z</time>
</trkpt>
<trkpt lat="39.501977" lon="-8.208524">
<time>2021-10-07T12:39:29Z</time>
</trkpt>
<trkpt lat="39.50194" lon="-8.208572">
<time>2021-10-07T12:39:30Z</time>
</trkpt>
<trkpt lat="39.501909" lon="-8.208622">
<time>2021-10-07T12:39:31Z</time>
</trkpt>
<trkpt lat="39.501878" lon="-8.208675">
<time>2021-10-07T12:39:32Z</time>
</trkpt>
<trkpt lat="39.501844" lon="-8.208732">
<time>2021-10-07T12:39:33Z</time>
</trkpt>
<trkpt lat="39.501809" lon="-8.208797">
<time>2021-10-07T12:39:34Z</time>
</trkpt>
<trkpt lat="39.501769" lon="-8.20886">
<time>2021-10-07T12:39:35Z</time>
</trkpt>
<trkpt lat="39.501724" lon="-8.208922">
<time>2021-10-07T12:39:36Z</time>
</trkpt>
<trkpt lat="39.501676" lon="-8.208981">
<time>2021-10-07T12:39:37Z</time>
</trkpt>
<trkpt lat="39.50163" lon="-8.209036">
<time>2021-10-07T12:39:38Z</time>
</trkpt>
<trkpt lat="39.501578" lon="-8.209086">
<time>2021-10-07T12:39:39Z</time>
</trkpt>
<trkpt lat="39.501527" lon="-8.209129">
<time>2021-10-07T12:39:40Z</time>
</trkpt>
<trkpt lat="39.501471" lon="-8.209177">
<time>2021-10-07T12:39:41Z</time>
</trkpt>
<trkpt lat="39.501419" lon="-8.209232">
<time>2021-10-07T12:39:42Z</time>
</trkpt>
<trkpt lat="39.501366" lon="-8.209295">
<time>2021-10-07T12:39:43Z</time>
</trkpt>
<trkpt lat="39.50131" lon="-8.20936">
<time>2021-10-07T12:39:44Z</time>
</trkpt>
<trkpt lat="39.501257" lon="-8.209426">
<time>2021-10-07T12:39:45Z</time>
</trkpt>
<trkpt lat="39.501208" lon="-8.209497">
<time>2021-10-07T12:39:46Z</time>
</trkpt>
<trkpt lat="39.501152" lon="-8.209575">
<time>2021-10-07T12:39:47Z</time>
</trkpt>
<trkpt lat="39.501092" lon="-8.209649">
<time>2021-10-07T12:39:48Z</time>
</trkpt>
<trkpt lat="39.501025" lon="-8.209731">
<time>2021-10-07T12:39:49Z</time>
</trkpt>
<trkpt lat="39.500958" lon="-8.209818">
<time>2021-10-07T12:39:50Z</time>
</trkpt>
<trkpt lat="39.500897" lon="-8.209899">
<time>2021-10-07T12:39:51Z</time>
</trkpt>
<trkpt lat="39.50084" lon="-8.209981">
<time>2021-10-07T12:39:52Z</time>
</trkpt>
<trkpt lat="39.500783" lon="-8.210059">
<time>2021-10-07T12:39:53Z</time>
</trkpt>
<trkpt lat="39.50072" lon="-8.210115">
<time>2021-10-07T12:39:54Z</time>
</trkpt>
<trkpt lat="39.500652" lon="-8.210152">
<time>2021-10-07T12:39:55Z</time>
</trkpt>
<trkpt lat="39.500582" lon="-8.210183">
<time>2021-10-07T12:39:56Z</time>
</trkpt>
<trkpt lat="39.500514" lon="-8.210222">
<time>2021-10-07T12:39:57Z</time>
</trkpt>
<trkpt lat="39.500446" lon="-8.210268">
<time>2021-10-07T12:39:58Z</time>
</trkpt>
<trkpt lat="39.500377" lon="-8.210315">
<time>2021-10-07T12:39:59Z</time>
</trkpt>
<trkpt lat="39.500312" lon="-8.210369">
<time>2021-10-07T12:40:00Z</time>
</trkpt>
<trkpt lat="39.500241" lon="-8.21042">
<time>2021-10-07T12:40:01Z</time>
</trkpt>
<trkpt lat="39.50017" lon="-8.210472">
<time>2021-10-07T12:40:02Z</time>
</trkpt>
<trkpt lat="39.500099" lon="-8.210521">
<time>2021-10-07T12:40:03Z</time>
</trkpt>
<trkpt lat="39.50003" lon="-8.210575">
<time>2021-10-07T12:40:04Z</time>
</trkpt>
<trkpt lat="39.499967" lon="-8.210635">
<time>2021-10-07T12:40:05Z</time>
</trkpt>
<trkpt lat="39.499907" lon="-8.210692">
<time>2021-10-07T12:40:06Z</time>
</trkpt>
<trkpt lat="39.499845" lon="-8.210748">
<time>2021-10-07T12:40:07Z</time>
</trkpt>
<trkpt lat="39.499785" lon="-8.210805">
<time>2021-10-07T12:40:08Z</time>
</trkpt>
<trkpt lat="39.499725" lon="-8.210867">
<time>2021-10-07T12:40:09Z</time>
</trkpt>
<trkpt lat="39.499669" lon="-8.210925">
<time>2021-10-07T12:40:10Z</time>
</trkpt>
<trkpt lat="39.499607" lon="-8.210983">
<time>2021-10-07T12:40:11Z</time>
</trkpt>
<trkpt lat="39.499545" lon="-8.211034">
<time>2021-10-07T12:40:12Z</time>
</trkpt>
<trkpt lat="39.499479" lon="-8.211082">
<time>2021-10-07T12:40:13Z</time>
</trkpt>
<trkpt lat="39.499414" lon="-8.211128">
<time>2021-10-07T12:40:14Z</time>
</trkpt>
<trkpt lat="39.499349" lon="-8.211171">
<time>2021-10-07T12:40:15Z</time>
</trkpt>
<trkpt lat="39.499285" lon="-8.211212">
<time>2021-10-07T12:40:16Z</time>
</trkpt>
<trkpt lat="39.499222" lon="-8.211257">
<time>2021-10-07T12:40:17Z</time>
</trkpt>
<trkpt lat="39.49916" lon="-8.211304">
<time>2021-10-07T12:40:18Z</time>
</trkpt>
<trkpt lat="39.4991" lon="-8.211357">
<time>2021-10-07T12:40:19Z</time>
</trkpt>
<trkpt lat="39.49904" lon="-8.211415">
<time>2021-10-07T12:40:20Z</time>
</trkpt>
<trkpt lat="39.498977" lon="-8.211462">
<time>2021-10-07T12:40:21Z</time>
</trkpt>
<trkpt lat="39.49891" lon="-8.2115">
<time>2021-10-07T12:40:22Z</time>
</trkpt>
<trkpt lat="39.498844" lon="-8.21154">
<time>2021-10-07T12:40:23Z</time>
</trkpt>
<trkpt lat="39.498778" lon="-8.211587">
<time>2021-10-07T12:40:24Z</time>
</trkpt>
<trkpt lat="39.498711" lon="-8.211633">
<time>2021-10-07T12:40:25Z</time>
</trkpt>
<trkpt lat="39.498645" lon="-8.211677">
<time>2021-10-07T12:40:26Z</time>
</trkpt>
<trkpt lat="39.498575" lon="-8.21172">
<time>2021-10-07T12:40:27Z</time>
</trkpt>
<trkpt lat="39.498503" lon="-8.211772">
<time>2021-10-07T12:40:28Z</time>
</trkpt>
<trkpt lat="39.498431" lon="-8.211826">
<time>2021-10-07T12:40:29Z</time>
</trkpt>
<trkpt lat="39.498362" lon="-8.211872">
<time>2021-10-07T12:40:30Z</time>
</trkpt>
<trkpt lat="39.498294" lon="-8.211918">
<time>2021-10-07T12:40:31Z</time>
</trkpt>
<trkpt lat="39.498227" lon="-8.211963">
<time>2021-10-07T12:40:32Z</time>
</trkpt>
<trkpt lat="39.498161" lon="-8.211999">
<time>2021-10-07T12:40:33Z</time>
</trkpt>
<trkpt lat="39.498095" lon="-8.212024">
<time>2021-10-07T12:40:34Z</time>
</trkpt>
<trkpt lat="39.498023" lon="-8.212038">
<time>2021-10-07T12:40:35Z</time>
</trkpt>
<trkpt lat="39.497948" lon="-8.212057">
<time>2021-10-07T12:40:36Z</time>
</trkpt>
<trkpt lat="39.49787" lon="-8.212086">
<time>2021-10-07T12:40:37Z</time>
</trkpt>
<trkpt lat="39.497797" lon="-8.212125">
<time>2021-10-07T12:40:38Z</time>
</trkpt>
<trkpt lat="39.497724" lon="-8.212171">
<time>2021-10-07T12:40:39Z</time>
</trkpt>
<trkpt lat="39.497656" lon="-8.21222">
<time>2021-10-07T12:40:40Z</time>
</trkpt>
<trkpt lat="39.497591" lon="-8.212278">
<time>2021-10-07T12:40:41Z</time>
</trkpt>
<trkpt lat="39.497526" lon="-8.212335">
<time>2021-10-07T12:40:42Z</time>
</trkpt>
<trkpt lat="39.497465" lon="-8.2124">
<time>2021-10-07T12:40:43Z</time>
</trkpt>
<trkpt lat="39.49741" lon="-8.212476">
<time>2021-10-07T12:40:44Z</time>
</trkpt>
<trkpt lat="39.497351" lon="-8.21256">
<time>2021-10-07T12:40:45Z</time>
</trkpt>
<trkpt lat="39.497287" lon="-8.212637">
<time>2021-10-07T12:40:46Z</time>
</trkpt>
<trkpt lat="39.49722" lon="-8.212711">
<time>2021-10-07T12:40:47Z</time>
</trkpt>
<trkpt lat="39.497151" lon="-8.212779">
<time>2021-10-07T12:40:48Z</time>
</trkpt>
<trkpt lat="39.49708" lon="-8.212843">
<time>2021-10-07T12:40:49Z</time>
</trkpt>
<trkpt lat="39.497006" lon="-8.212902">
<time>2021-10-07T12:40:50Z</time>
</trkpt>
<trkpt lat="39.49693" lon="-8.212948">
<time>2021-10-07T12:40:51Z</time>
</trkpt>
<trkpt lat="39.496853" lon="-8.212989">
<time>2021-10-07T12:40:52Z</time>
</trkpt>
<trkpt lat="39.496775" lon="-8.213029">
<time>2021-10-07T12:40:53Z</time>
</trkpt>
<trkpt lat="39.496697" lon="-8.213081">
<time>2021-10-07T12:40:54Z</time>
</trkpt>
<trkpt lat="39.496623" lon="-8.213137">
<time>2021-10-07T12:40:55Z</time>
</trkpt>
<trkpt lat="39.496552" lon="-8.213197">
<time>2021-10-07T12:40:56Z</time>
</trkpt>
<trkpt lat="39.496481" lon="-8.213257">
<time>2021-10-07T12:40:57Z</time>
</trkpt>
<trkpt lat="39.49641" lon="-8.213314">
<time>2021-10-07T12:40:58Z</time>
</trkpt>
<trkpt lat="39.496339" lon="-8.21337">
<time>2021-10-07T12:40:59Z</time>
</trkpt>
<trkpt lat="39.496281" lon="-8.213431">
<time>2021-10-07T12:41:00Z</time>
</trkpt>
<trkpt lat="39.496252" lon="-8.213502">
<time>2021-10-07T12:41:01Z</time>
</trkpt>
<trkpt lat="39.496255" lon="-8.213577">
<time>2021-10-07T12:41:02Z</time>
</trkpt>
<trkpt lat="39.49628" lon="-8.213641">
<time>2021-10-07T12:41:03Z</time>
</trkpt>
<trkpt lat="39.496322" lon="-8.213683">
<time>2021-10-07T12:41:04Z</time>
</trkpt>
<trkpt lat="39.496374" lon="-8.213708">
<time>2021-10-07T12:41:05Z</time>
</trkpt>
<trkpt lat="39.496426" lon="-8.213725">
<time>2021-10-07T12:41:06Z</time>
</trkpt>
<trkpt lat="39.496477" lon="-8.213741">
<time>2021-10-07T12:41:07Z</time>
</trkpt>
<trkpt lat="39.496526" lon="-8.21376">
<time>2021-10-07T12:41:08Z</time>
</trkpt>
<trkpt lat="39.496572" lon="-8.21378">
<time>2021-10-07T12:41:09Z</time>
</trkpt>
<trkpt lat="39.496616" lon="-8.2138">
<time>2021-10-07T12:41:10Z</time>
</trkpt>
<trkpt lat="39.496658" lon="-8.213818">
<time>2021-10-07T12:41:11Z</time>
</trkpt>
<trkpt lat="39.4967" lon="-8.213836">
<time>2021-10-07T12:41:12Z</time>
</trkpt>
<trkpt lat="39.496744" lon="-8.213851">
<time>2021-10-07T12:41:13Z</time>
</trkpt>
<trkpt lat="39.496786" lon="-8.213863">
<time>2021-10-07T12:41:14Z</time>
</trkpt>
<trkpt lat="39.496827" lon="-8.213879">
<time>2021-10-07T12:41:15Z</time>
</trkpt>
<trkpt lat="39.496865" lon="-8.213899">
<time>2021-10-07T12:41:16Z</time>
</trkpt>
<trkpt lat="39.496904" lon="-8.21392">
<time>2021-10-07T12:41:17Z</time>
</trkpt>
<trkpt lat="39.496943" lon="-8.213942">
<time>2021-10-07T12:41:18Z</time>
</trkpt>
<trkpt lat="39.496979" lon="-8.213961">
<time>2021-10-07T12:41:19Z</time>
</trkpt>
<trkpt lat="39.497016" lon="-8.213976">
<time>2021-10-07T12:41:20Z</time>
</trkpt>
<trkpt lat="39.497051" lon="-8.213991">
<time>2021-10-07T12:41:21Z</time>
</trkpt>
<trkpt lat="39.497086" lon="-8.214005">
<time>2021-10-07T12:41:22Z</time>
</trkpt>
<trkpt lat="39.497119" lon="-8.214019">
<time>2021-10-07T12:41:23Z</time>
</trkpt>
<trkpt lat="39.497152" lon="-8.214033">
<time>2021-10-07T12:41:24Z</time>
</trkpt>
<trkpt lat="39.497185" lon="-8.214048">
<time>2021-10-07T12:41:25Z</time>
</trkpt>
<trkpt lat="39.497221" lon="-8.214064">
<time>2021-10-07T12:41:26Z</time>
</trkpt>
<trkpt lat="39.497256" lon="-8.214079">
<time>2021-10-07T12:41:27Z</time>
</trkpt>
<trkpt lat="39.49729" lon="-8.214096">
<time>2021-10-07T12:41:28Z</time>
</trkpt>
<trkpt lat="39.497324" lon="-8.214112">
<time>2021-10-07T12:41:29Z</time>
</trkpt>
<trkpt lat="39.49736" lon="-8.214128">
<time>2021-10-07T12:41:30Z</time>
</trkpt>
<trkpt lat="39.497398" lon="-8.214144">
<time>2021-10-07T12:41:31Z</time>
</trkpt>
<trkpt lat="39.497438" lon="-8.21416">
<time>2021-10-07T12:41:32Z</time>
</trkpt>
<trkpt lat="39.497477" lon="-8.214178">
<time>2021-10-07T12:41:33Z</time>
</trkpt>
<trkpt lat="39.497515" lon="-8.214193">
<time>2021-10-07T12:41:34Z</time>
</trkpt>
<trkpt lat="39.497554" lon="-8.214209">
<time>2021-10-07T12:41:35Z</time>
</trkpt>
<trkpt lat="39.497594" lon="-8.214225">
<time>2021-10-07T12:41:36Z</time>
</trkpt>
<trkpt lat="39.497635" lon="-8.214241">
<time>2021-10-07T12:41:37Z</time>
</trkpt>
<trkpt lat="39.497677" lon="-8.214258">
<time>2021-10-07T12:41:38Z</time>
</trkpt>
<trkpt lat="39.497719" lon="-8.214277">
<time>2021-10-07T12:41:39Z</time>
</trkpt>
<trkpt lat="39.497762" lon="-8.214294">
<time>2021-10-07T12:41:40Z</time>
</trkpt>
<trkpt lat="39.497807" lon="-8.214311">
<time>2021-10-07T12:41:41Z</time>
</trkpt>
<trkpt lat="39.497852" lon="-8.214329">
<time>2021-10-07T12:41:42Z</time>
</trkpt>
<trkpt lat="39.497897" lon="-8.214346">
<time>2021-10-07T12:41:43Z</time>
</trkpt>
<trkpt lat="39.497945" lon="-8.214361">
<time>2021-10-07T12:41:44Z</time>
</trkpt>
<trkpt lat="39.497991" lon="-8.21438">
<time>2021-10-07T12:41:45Z</time>
</trkpt>
<trkpt lat="39.498039" lon="-8.214399">
<time>2021-10-07T12:41:46Z</time>
</trkpt>
<trkpt lat="39.49809" lon="-8.214421">
<time>2021-10-07T12:41:47Z</time>
</trkpt>
<trkpt lat="39.498138" lon="-8.214444">
<time>2021-10-07T12:41:48Z</time>
</trkpt>
<trkpt lat="39.498189" lon="-8.214468">
<time>2021-10-07T12:41:49Z</time>
</trkpt>
<trkpt lat="39.498242" lon="-8.214491">
<time>2021-10-07T12:41:50Z</time>
</trkpt>
<trkpt lat="39.498293" lon="-8.214515">
<time>2021-10-07T12:41:51Z</time>
</trkpt>
<trkpt lat="39.498346" lon="-8.21454">
<time>2021-10-07T12:41:52Z</time>
</trkpt>
<trkpt lat="39.4984" lon="-8.214566">
<time>2021-10-07T12:41:53Z</time>
</trkpt>
<trkpt lat="39.498455" lon="-8.214593">
<time>2021-10-07T12:41:54Z</time>
</trkpt>
<trkpt lat="39.498509" lon="-8.214621">
<time>2021-10-07T12:41:55Z</time>
</trkpt>
<trkpt lat="39.498565" lon="-8.214648">
<time>2021-10-07T12:41:56Z</time>
</trkpt>
<trkpt lat="39.498623" lon="-8.214675">
<time>2021-10-07T12:41:57Z</time>
</trkpt>
<trkpt lat="39.498681" lon="-8.214706">
<time>2021-10-07T12:41:58Z</time>
</trkpt>
<trkpt lat="39.498736" lon="-8.21474">
<time>2021-10-07T12:41:59Z</time>
</trkpt>
<trkpt lat="39.498794" lon="-8.214778">
<time>2021-10-07T12:42:00Z</time>
</trkpt>
<trkpt lat="39.498849" lon="-8.214817">
<time>2021-10-07T12:42:01Z</time>
</trkpt>
<trkpt lat="39.498906" lon="-8.214853">
<time>2021-10-07T12:42:02Z</time>
</trkpt>
<trkpt lat="39.49896" lon="-8.214893">
<time>2021-10-07T12:42:03Z</time>
</trkpt>
<trkpt lat="39.499021" lon="-8.214933">
<time>2021-10-07T12:42:04Z</time>
</trkpt>
<trkpt lat="39.499081" lon="-8.214976">
<time>2021-10-07T12:42:05Z</time>
</trkpt>
<trkpt lat="39.499144" lon="-8.215023">
<time>2021-10-07T12:42:06Z</time>
</trkpt>
<trkpt lat="39.499203" lon="-8.215069">
<time>2021-10-07T12:42:07Z</time>
</trkpt>
<trkpt lat="39.499264" lon="-8.215114">
<time>2021-10-07T12:42:08Z</time>
</trkpt>
<trkpt lat="39.499324" lon="-8.215157">
<time>2021-10-07T12:42:09Z</time>
</trkpt>
<trkpt lat="39.499385" lon="-8.215202">
<time>2021-10-07T12:42:10Z</time>
</trkpt>
<trkpt lat="39.499447" lon="-8.215246">
<time>2021-10-07T12:42:11Z</time>
</trkpt>
<trkpt lat="39.499512" lon="-8.215287">
<time>2021-10-07T12:42:12Z</time>
</trkpt>
<trkpt lat="39.499583" lon="-8.21532">
<time>2021-10-07T12:42:13Z</time>
</trkpt>
<trkpt lat="39.499654" lon="-8.215342">
<time>2021-10-07T12:42:14Z</time>
</trkpt>
<trkpt lat="39.499729" lon="-8.215354">
<time>2021-10-07T12:42:15Z</time>
</trkpt>
<trkpt lat="39.499803" lon="-8.215353">
<time>2021-10-07T12:42:16Z</time>
</trkpt>
<trkpt lat="39.499881" lon="-8.215344">
<time>2021-10-07T12:42:17Z</time>
</trkpt>
<trkpt lat="39.499956" lon="-8.215327">
<time>2021-10-07T12:42:18Z</time>
</trkpt>
<trkpt lat="39.500031" lon="-8.215303">
<time>2021-10-07T12:42:19Z</time>
</trkpt>
<trkpt lat="39.500105" lon="-8.215276">
<time>2021-10-07T12:42:20Z</time>
</trkpt>
<trkpt lat="39.500178" lon="-8.215244">
<time>2021-10-07T12:42:21Z</time>
</trkpt>
<trkpt lat="39.500252" lon="-8.215211">
<time>2021-10-07T12:42:22Z</time>
</trkpt>
<trkpt lat="39.500325" lon="-8.215181">
<time>2021-10-07T12:42:23Z</time>
</trkpt>
<trkpt lat="39.500398" lon="-8.215151">
<time>2021-10-07T12:42:24Z</time>
</trkpt>
<trkpt lat="39.500471" lon="-8.215125">
<time>2021-10-07T12:42:25Z</time>
</trkpt>
<trkpt lat="39.500545" lon="-8.215103">
<time>2021-10-07T12:42:26Z</time>
</trkpt>
<trkpt lat="39.500621" lon="-8.21509">
<time>2021-10-07T12:42:27Z</time>
</trkpt>
<trkpt lat="39.5007" lon="-8.215085">
<time>2021-10-07T12:42:28Z</time>
</trkpt>
<trkpt lat="39.500779" lon="-8.215086">
<time>2021-10-07T12:42:29Z</time>
</trkpt>
<trkpt lat="39.50086" lon="-8.215089">
<time>2021-10-07T12:42:30Z</time>
</trkpt>
<trkpt lat="39.500939" lon="-8.215094">
<time>2021-10-07T12:42:31Z</time>
</trkpt>
<trkpt lat="39.501019" lon="-8.215104">
<time>2021-10-07T12:42:32Z</time>
</trkpt>
<trkpt lat="39.5011" lon="-8.215117">
<time>2021-10-07T12:42:33Z</time>
</trkpt>
<trkpt lat="39.501181" lon="-8.215136">
<time>2021-10-07T12:42:34Z</time>
</trkpt>
<trkpt lat="39.501262" lon="-8.215158">
<time>2021-10-07T12:42:35Z</time>
</trkpt>
<trkpt lat="39.501342" lon="-8.21519">
<time>2021-10-07T12:42:36Z</time>
</trkpt>
<trkpt lat="39.501421" lon="-8.215233">
<time>2021-10-07T12:42:37Z</time>
</trkpt>
<trkpt lat="39.501497" lon="-8.215285">
<time>2021-10-07T12:42:38Z</time>
</trkpt>
<trkpt lat="39.50157" lon="-8.215344">
<time>2021-10-07T12:42:39Z</time>
</trkpt>
<trkpt lat="39.501638" lon="-8.215409">
<time>2021-10-07T12:42:40Z</time>
</trkpt>
<trkpt lat="39.501704" lon="-8.215477">
<time>2021-10-07T12:42:41Z</time>
</trkpt>
<trkpt lat="39.50177" lon="-8.215545">
<time>2021-10-07T12:42:42Z</time>
</trkpt>
<trkpt lat="39.501835" lon="-8.21561">
<time>2021-10-07T12:42:43Z</time>
</trkpt>
<trkpt lat="39.5019" lon="-8.215678">
<time>2021-10-07T12:42:44Z</time>
</trkpt>
<trkpt lat="39.501963" lon="-8.215745">
<time>2021-10-07T12:42:45Z</time>
</trkpt>
<trkpt lat="39.502027" lon="-8.21581">
<time>2021-10-07T12:42:46Z</time>
</trkpt>
<trkpt lat="39.502089" lon="-8.215876">
<time>2021-10-07T12:42:47Z</time>
</trkpt>
<trkpt lat="39.502148" lon="-8.215943">
<time>2021-10-07T12:42:48Z</time>
</trkpt>
<trkpt lat="39.502204" lon="-8.216011">
<time>2021-10-07T12:42:49Z</time>
</trkpt>
<trkpt lat="39.502258" lon="-8.216077">
<time>2021-10-07T12:42:50Z</time>
</trkpt>
<trkpt lat="39.502311" lon="-8.216143">
<time>2021-10-07T12:42:51Z</time>
</trkpt>
<trkpt lat="39.502361" lon="-8.216212">
<time>2021-10-07T12:42:52Z</time>
</trkpt>
<trkpt lat="39.502407" lon="-8.216282">
<time>2021-10-07T12:42:53Z</time>
</trkpt>
<trkpt lat="39.502451" lon="-8.216353">
<time>2021-10-07T12:42:54Z</time>
</trkpt>
<trkpt lat="39.502491" lon="-8.216422">
<time>2021-10-07T12:42:55Z</time>
</trkpt>
<trkpt lat="39.50253" lon="-8.216491">
<time>2021-10-07T12:42:56Z</time>
</trkpt>
<trkpt lat="39.502566" lon="-8.216558">
<time>2021-10-07T12:42:57Z</time>
</trkpt>
<trkpt lat="39.502601" lon="-8.216623">
<time>2021-10-07T12:42:58Z</time>
</trkpt>
<trkpt lat="39.502636" lon="-8.216683">
<time>2021-10-07T12:42:59Z</time>
</trkpt>
<trkpt lat="39.502669" lon="-8.21674">
<time>2021-10-07T12:43:00Z</time>
</trkpt>
<trkpt lat="39.502701" lon="-8.216798">
<time>2021-10-07T12:43:01Z</time>
</trkpt>
<trkpt lat="39.50273" lon="-8.216854">
<time>2021-10-07T12:43:02Z</time>
</trkpt>
<trkpt lat="39.502759" lon="-8.216911">
<time>2021-10-07T12:43:03Z</time>
</trkpt>
<trkpt lat="39.502788" lon="-8.216967">
<time>2021-10-07T12:43:04Z</time>
</trkpt>
<trkpt lat="39.502818" lon="-8.217023">
<time>2021-10-07T12:43:05Z</time>
</trkpt>
<trkpt lat="39.502848" lon="-8.217077">
<time>2021-10-07T12:43:06Z</time>
</trkpt>
<trkpt lat="39.502878" lon="-8.217127">
<time>2021-10-07T12:43:07Z</time>
</trkpt>
<trkpt lat="39.502907" lon="-8.217177">
<time>2021-10-07T12:43:08Z</time>
</trkpt>
<trkpt lat="39.502936" lon="-8.217228">
<time>2021-10-07T12:43:09Z</time>
</trkpt>
<trkpt lat="39.502966" lon="-8.217281">
<time>2021-10-07T12:43:10Z</time>
</trkpt>
<trkpt lat="39.502996" lon="-8.217334">
<time>2021-10-07T12:43:11Z</time>
</trkpt>
<trkpt lat="39.503027" lon="-8.217389">
<time>2021-10-07T12:43:12Z</time>
</trkpt>
<trkpt lat="39.503059" lon="-8.217448">
<time>2021-10-07T12:43:13Z</time>
</trkpt>
<trkpt lat="39.50309" lon="-8.217506">
<time>2021-10-07T12:43:14Z</time>
</trkpt>
<trkpt lat="39.503121" lon="-8.217568">
<time>2021-10-07T12:43:15Z</time>
</trkpt>
<trkpt lat="39.503155" lon="-8.217627">
<time>2021-10-07T12:43:16Z</time>
</trkpt>
<trkpt lat="39.50319" lon="-8.217687">
<time>2021-10-07T12:43:17Z</time>
</trkpt>
<trkpt lat="39.503225" lon="-8.217749">
<time>2021-10-07T12:43:18Z</time>
</trkpt>
<trkpt lat="39.503258" lon="-8.21781">
<time>2021-10-07T12:43:19Z</time>
</trkpt>
<trkpt lat="39.503292" lon="-8.217869">
<time>2021-10-07T12:43:20Z</time>
</trkpt>
<trkpt lat="39.503328" lon="-8.217927">
<time>2021-10-07T12:43:21Z</time>
</trkpt>
<trkpt lat="39.503364" lon="-8.217983">
<time>2021-10-07T12:43:22Z</time>
</trkpt>
<trkpt lat="39.503398" lon="-8.218039">
<time>2021-10-07T12:43:23Z</time>
</trkpt>
<trkpt lat="39.503428" lon="-8.218093">
<time>2021-10-07T12:43:24Z</time>
</trkpt>
<trkpt lat="39.50346" lon="-8.218146">
<time>2021-10-07T12:43:25Z</time>
</trkpt>
<trkpt lat="39.503491" lon="-8.218197">
<time>2021-10-07T12:43:26Z</time>
</trkpt>
<trkpt lat="39.503524" lon="-8.218245">
<time>2021-10-07T12:43:27Z</time>
</trkpt>
<trkpt lat="39.503558" lon="-8.218291">
<time>2021-10-07T12:43:28Z</time>
</trkpt>
<trkpt lat="39.503596" lon="-8.218336">
<time>2021-10-07T12:43:29Z</time>
</trkpt>
<trkpt lat="39.503632" lon="-8.218379">
<time>2021-10-07T12:43:30Z</time>
</trkpt>
<trkpt lat="39.503672" lon="-8.21842">
<time>2021-10-07T12:43:31Z</time>
</trkpt>
<trkpt lat="39.50371" lon="-8.218459">
<time>2021-10-07T12:43:32Z</time>
</trkpt>
<trkpt lat="39.50375" lon="-8.218496">
<time>2021-10-07T12:43:33Z</time>
</trkpt>
<trkpt lat="39.50379" lon="-8.218531">
<time>2021-10-07T12:43:34Z</time>
</trkpt>
<trkpt lat="39.503835" lon="-8.21856">
<time>2021-10-07T12:43:35Z</time>
</trkpt>
<trkpt lat="39.50388" lon="-8.218589">
<time>2021-10-07T12:43:36Z</time>
</trkpt>
<trkpt lat="39.503928" lon="-8.218616">
<time>2021-10-07T12:43:37Z</time>
</trkpt>
<trkpt lat="39.503976" lon="-8.218644">
<time>2021-10-07T12:43:38Z</time>
</trkpt>
<trkpt lat="39.504023" lon="-8.218674">
<time>2021-10-07T12:43:39Z</time>
</trkpt>
<trkpt lat="39.504071" lon="-8.218706">
<time>2021-10-07T12:43:40Z</time>
</trkpt>
<trkpt lat="39.504119" lon="-8.218737">
<time>2021-10-07T12:43:41Z</time>
</trkpt>
<trkpt lat="39.504166" lon="-8.21877">
<time>2021-10-07T12:43:42Z</time>
</trkpt>
<trkpt lat="39.504214" lon="-8.218802">
<time>2021-10-07T12:43:43Z</time>
</trkpt>
<trkpt lat="39.504262" lon="-8.218833">
<time>2021-10-07T12:43:44Z</time>
</trkpt>
<trkpt lat="39.504313" lon="-8.218864">
<time>2021-10-07T12:43:45Z</time>
</trkpt>
<trkpt lat="39.504365" lon="-8.218897">
<time>2021-10-07T12:43:46Z</time>
</trkpt>
<trkpt lat="39.504415" lon="-8.218931">
<time>2021-10-07T12:43:47Z</time>
</trkpt>
<trkpt lat="39.504463" lon="-8.218963">
<time>2021-10-07T12:43:48Z</time>
</trkpt>
<trkpt lat="39.504514" lon="-8.218996">
<time>2021-10-07T12:43:49Z</time>
</trkpt>
<trkpt lat="39.504566" lon="-8.219029">
<time>2021-10-07T12:43:50Z</time>
</trkpt>
<trkpt lat="39.504616" lon="-8.219064">
<time>2021-10-07T12:43:51Z</time>
</trkpt>
<trkpt lat="39.504667" lon="-8.219098">
<time>2021-10-07T12:43:52Z</time>
</trkpt>
<trkpt lat="39.504719" lon="-8.219132">
<time>2021-10-07T12:43:53Z</time>
</trkpt>
<trkpt lat="39.504773" lon="-8.219166">
<time>2021-10-07T12:43:54Z</time>
</trkpt>
<trkpt lat="39.504826" lon="-8.219202">
<time>2021-10-07T12:43:55Z</time>
</trkpt>
<trkpt lat="39.504879" lon="-8.219237">
<time>2021-10-07T12:43:56Z</time>
</trkpt>
<trkpt lat="39.504932" lon="-8.219273">
<time>2021-10-07T12:43:57Z</time>
</trkpt>
<trkpt lat="39.504984" lon="-8.219308">
<time>2021-10-07T12:43:58Z</time>
</trkpt>
<trkpt lat="39.505036" lon="-8.219344">
<time>2021-10-07T12:43:59Z</time>
</trkpt>
<trkpt lat="39.505088" lon="-8.219381">
<time>2021-10-07T12:44:00Z</time>
</trkpt>
<trkpt lat="39.50514" lon="-8.219417">
<time>2021-10-07T12:44:01Z</time>
</trkpt>
<trkpt lat="39.505193" lon="-8.219452">
<time>2021-10-07T12:44:02Z</time>
</trkpt>
<trkpt lat="39.505245" lon="-8.219487">
<time>2021-10-07T12:44:03Z</time>
</trkpt>
<trkpt lat="39.505298" lon="-8.219522">
<time>2021-10-07T12:44:04Z</time>
</trkpt>
<trkpt lat="39.505352" lon="-8.219555">
<time>2021-10-07T12:44:05Z</time>
</trkpt>
<trkpt lat="39.505406" lon="-8.219588">
<time>2021-10-07T12:44:06Z</time>
</trkpt>
<trkpt lat="39.505462" lon="-8.219622">
<time>2021-10-07T12:44:07Z</time>
</trkpt>
<trkpt lat="39.505517" lon="-8.219658">
<time>2021-10-07T12:44:08Z</time>
</trkpt>
<trkpt lat="39.505573" lon="-8.219693">
<time>2021-10-07T12:44:09Z</time>
</trkpt>
<trkpt lat="39.505629" lon="-8.21973">
<time>2021-10-07T12:44:10Z</time>
</trkpt>
<trkpt lat="39.505684" lon="-8.219764">
<time>2021-10-07T12:44:11Z</time>
</trkpt>
<trkpt lat="39.505739" lon="-8.219796">
<time>2021-10-07T12:44:12Z</time>
</trkpt>
<trkpt lat="39.505795" lon="-8.219829">
<time>2021-10-07T12:44:13Z</time>
</trkpt>
<trkpt lat="39.505852" lon="-8.219862">
<time>2021-10-07T12:44:14Z</time>
</trkpt>
<trkpt lat="39.505906" lon="-8.219896">
<time>2021-10-07T12:44:15Z</time>
</trkpt>
<trkpt lat="39.505961" lon="-8.21993">
<time>2021-10-07T12:44:16Z</time>
</trkpt>
<trkpt lat="39.506016" lon="-8.219966">
<time>2021-10-07T12:44:17Z</time>
</trkpt>
<trkpt lat="39.506069" lon="-8.220002">
<time>2021-10-07T12:44:18Z</time>
</trkpt>
<trkpt lat="39.506123" lon="-8.220037">
<time>2021-10-07T12:44:19Z</time>
</trkpt>
<trkpt lat="39.506178" lon="-8.220073">
<time>2021-10-07T12:44:20Z</time>
</trkpt>
<trkpt lat="39.506231" lon="-8.220109">
<time>2021-10-07T12:44:21Z</time>
</trkpt>
<trkpt lat="39.506282" lon="-8.220147">
<time>2021-10-07T12:44:22Z</time>
</trkpt>
<trkpt lat="39.50633" lon="-8.22019">
<time>2021-10-07T12:44:23Z</time>
</trkpt>
<trkpt lat="39.506375" lon="-8.220238">
<time>2021-10-07T12:44:24Z</time>
</trkpt>
<trkpt lat="39.50642" lon="-8.220289">
<time>2021-10-07T12:44:25Z</time>
</trkpt>
<trkpt lat="39.506467" lon="-8.22034">
<time>2021-10-07T12:44:26Z</time>
</trkpt>
<trkpt lat="39.506517" lon="-8.220391">
<time>2021-10-07T12:44:27Z</time>
</trkpt>
<trkpt lat="39.506564" lon="-8.220448">
<time>2021-10-07T12:44:28Z</time>
</trkpt>
<trkpt lat="39.506608" lon="-8.220512">
<time>2021-10-07T12:44:29Z</time>
</trkpt>
<trkpt lat="39.506651" lon="-8.220576">
<time>2021-10-07T12:44:30Z</time>
</trkpt>
<trkpt lat="39.506696" lon="-8.220637">
<time>2021-10-07T12:44:31Z</time>
</trkpt>
<trkpt lat="39.506739" lon="-8.220693">
<time>2021-10-07T12:44:32Z</time>
</trkpt>
<trkpt lat="39.506774" lon="-8.220737">
<time>2021-10-07T12:44:33Z</time>
</trkpt>
<trkpt lat="39.506799" lon="-8.220763">
<time>2021-10-07T12:44:34Z</time>
</trkpt>
<trkpt lat="39.506817" lon="-8.220768">
<time>2021-10-07T12:44:35Z</time>
</trkpt>
<trkpt lat="39.50683" lon="-8.220766">
<time>2021-10-07T12:44:36Z</time>
</trkpt>
<trkpt lat="39.506836" lon="-8.220755">
<time>2021-10-07T12:44:37Z</time>
</trkpt>
<trkpt lat="39.506845" lon="-8.220739">
<time>2021-10-07T12:44:38Z</time>
</trkpt>
<trkpt lat="39.506853" lon="-8.220711">
<time>2021-10-07T12:44:39Z</time>
</trkpt>
<trkpt lat="39.506864" lon="-8.220677">
<time>2021-10-07T12:44:40Z</time>
</trkpt>
<trkpt lat="39.506875" lon="-8.220644">
<time>2021-10-07T12:44:41Z</time>
</trkpt>
<trkpt lat="39.506887" lon="-8.220611">
<time>2021-10-07T12:44:42Z</time>
</trkpt>
<trkpt lat="39.506897" lon="-8.220577">
<time>2021-10-07T12:44:43Z</time>
</trkpt>
<trkpt lat="39.506903" lon="-8.220543">
<time>2021-10-07T12:44:44Z</time>
</trkpt>
<trkpt lat="39.5069" lon="-8.220509">
<time>2021-10-07T12:44:45Z</time>
</trkpt>
<trkpt lat="39.506885" lon="-8.220474">
<time>2021-10-07T12:44:46Z</time>
</trkpt>
<trkpt lat="39.506852" lon="-8.220441">
<time>2021-10-07T12:44:47Z</time>
</trkpt>
<trkpt lat="39.506809" lon="-8.220413">
<time>2021-10-07T12:44:48Z</time>
</trkpt>
<trkpt lat="39.50676" lon="-8.220389">
<time>2021-10-07T12:44:49Z</time>
</trkpt>
<trkpt lat="39.50671" lon="-8.220362">
<time>2021-10-07T12:44:50Z</time>
</trkpt>
<trkpt lat="39.506657" lon="-8.22033">
<time>2021-10-07T12:44:51Z</time>
</trkpt>
<trkpt lat="39.506596" lon="-8.220297">
<time>2021-10-07T12:44:52Z</time>
</trkpt>
<trkpt lat="39.506532" lon="-8.220264">
<time>2021-10-07T12:44:53Z</time>
</trkpt>
<trkpt lat="39.506467" lon="-8.22023">
<time>2021-10-07T12:44:54Z</time>
</trkpt>
<trkpt lat="39.506399" lon="-8.220196">
<time>2021-10-07T12:44:55Z</time>
</trkpt>
<trkpt lat="39.506327" lon="-8.22016">
<time>2021-10-07T12:44:56Z</time>
</trkpt>
<trkpt lat="39.506258" lon="-8.220122">
<time>2021-10-07T12:44:57Z</time>
</trkpt>
<trkpt lat="39.506187" lon="-8.220082">
<time>2021-10-07T12:44:58Z</time>
</trkpt>
<trkpt lat="39.506118" lon="-8.220037">
<time>2021-10-07T12:44:59Z</time>
</trkpt>
<trkpt lat="39.506047" lon="-8.21999">
<time>2021-10-07T12:45:00Z</time>
</trkpt>
<trkpt lat="39.505975" lon="-8.219942">
<time>2021-10-07T12:45:01Z</time>
</trkpt>
<trkpt lat="39.505904" lon="-8.219892">
<time>2021-10-07T12:45:02Z</time>
</trkpt>
<trkpt lat="39.505833" lon="-8.219843">
<time>2021-10-07T12:45:03Z</time>
</trkpt>
<trkpt lat="39.505765" lon="-8.219797">
<time>2021-10-07T12:45:04Z</time>
</trkpt>
<trkpt lat="39.505695" lon="-8.219754">
<time>2021-10-07T12:45:05Z</time>
</trkpt>
<trkpt lat="39.505625" lon="-8.219713">
<time>2021-10-07T12:45:06Z</time>
</trkpt>
<trkpt lat="39.505552" lon="-8.219672">
<time>2021-10-07T12:45:07Z</time>
</trkpt>
<trkpt lat="39.505475" lon="-8.219634">
<time>2021-10-07T12:45:08Z</time>
</trkpt>
<trkpt lat="39.505404" lon="-8.21959">
<time>2021-10-07T12:45:09Z</time>
</trkpt>
<trkpt lat="39.505333" lon="-8.219546">
<time>2021-10-07T12:45:10Z</time>
</trkpt>
<trkpt lat="39.505261" lon="-8.219501">
<time>2021-10-07T12:45:11Z</time>
</trkpt>
<trkpt lat="39.50519" lon="-8.219453">
<time>2021-10-07T12:45:12Z</time>
</trkpt>
<trkpt lat="39.505118" lon="-8.219405">
<time>2021-10-07T12:45:13Z</time>
</trkpt>
<trkpt lat="39.505047" lon="-8.219355">
<time>2021-10-07T12:45:14Z</time>
</trkpt>
<trkpt lat="39.504974" lon="-8.219305">
<time>2021-10-07T12:45:15Z</time>
</trkpt>
<trkpt lat="39.504899" lon="-8.219255">
<time>2021-10-07T12:45:16Z</time>
</trkpt>
<trkpt lat="39.504823" lon="-8.219207">
<time>2021-10-07T12:45:17Z</time>
</trkpt>
<trkpt lat="39.504745" lon="-8.219158">
<time>2021-10-07T12:45:18Z</time>
</trkpt>
<trkpt lat="39.504666" lon="-8.21911">
<time>2021-10-07T12:45:19Z</time>
</trkpt>
<trkpt lat="39.504586" lon="-8.219061">
<time>2021-10-07T12:45:20Z</time>
</trkpt>
<trkpt lat="39.504505" lon="-8.219012">
<time>2021-10-07T12:45:21Z</time>
</trkpt>
<trkpt lat="39.504426" lon="-8.21896">
<time>2021-10-07T12:45:22Z</time>
</trkpt>
<trkpt lat="39.504347" lon="-8.218908">
<time>2021-10-07T12:45:23Z</time>
</trkpt>
<trkpt lat="39.504268" lon="-8.218855">
<time>2021-10-07T12:45:24Z</time>
</trkpt>
<trkpt lat="39.504191" lon="-8.218798">
<time>2021-10-07T12:45:25Z</time>
</trkpt>
<trkpt lat="39.504112" lon="-8.218742">
<time>2021-10-07T12:45:26Z</time>
</trkpt>
<trkpt lat="39.504032" lon="-8.218684">
<time>2021-10-07T12:45:27Z</time>
</trkpt>
<trkpt lat="39.503954" lon="-8.218626">
<time>2021-10-07T12:45:28Z</time>
</trkpt>
<trkpt lat="39.503875" lon="-8.218569">
<time>2021-10-07T12:45:29Z</time>
</trkpt>
<trkpt lat="39.503795" lon="-8.218513">
<time>2021-10-07T12:45:30Z</time>
</trkpt>
<trkpt lat="39.503715" lon="-8.218455">
<time>2021-10-07T12:45:31Z</time>
</trkpt>
<trkpt lat="39.50364" lon="-8.218387">
<time>2021-10-07T12:45:32Z</time>
</trkpt>
<trkpt lat="39.503574" lon="-8.218316">
<time>2021-10-07T12:45:33Z</time>
</trkpt>
<trkpt lat="39.503522" lon="-8.218258">
<time>2021-10-07T12:45:34Z</time>
</trkpt>
<trkpt lat="39.503478" lon="-8.218224">
<time>2021-10-07T12:45:35Z</time>
</trkpt>
<trkpt lat="39.503441" lon="-8.218219">
<time>2021-10-07T12:45:36Z</time>
</trkpt>
<trkpt lat="39.503414" lon="-8.218246">
<time>2021-10-07T12:45:37Z</time>
</trkpt>
<trkpt lat="39.503393" lon="-8.218298">
<time>2021-10-07T12:45:38Z</time>
</trkpt>
<trkpt lat="39.503382" lon="-8.218371">
<time>2021-10-07T12:45:39Z</time>
</trkpt>
<trkpt lat="39.503378" lon="-8.21845">
<time>2021-10-07T12:45:40Z</time>
</trkpt>
<trkpt lat="39.503369" lon="-8.218534">
<time>2021-10-07T12:45:41Z</time>
</trkpt>
<trkpt lat="39.503349" lon="-8.218623">
<time>2021-10-07T12:45:42Z</time>
</trkpt>
<trkpt lat="39.503319" lon="-8.218716">
<time>2021-10-07T12:45:43Z</time>
</trkpt>
<trkpt lat="39.503282" lon="-8.218816">
<time>2021-10-07T12:45:44Z</time>
</trkpt>
<trkpt lat="39.503251" lon="-8.218926">
<time>2021-10-07T12:45:45Z</time>
</trkpt>
<trkpt lat="39.503221" lon="-8.219041">
<time>2021-10-07T12:45:46Z</time>
</trkpt>
<trkpt lat="39.50319" lon="-8.219151">
<time>2021-10-07T12:45:47Z</time>
</trkpt>
<trkpt lat="39.503146" lon="-8.219249">
<time>2021-10-07T12:45:48Z</time>
</trkpt>
<trkpt lat="39.503087" lon="-8.219326">
<time>2021-10-07T12:45:49Z</time>
</trkpt>
<trkpt lat="39.503019" lon="-8.219377">
<time>2021-10-07T12:45:50Z</time>
</trkpt>
<trkpt lat="39.502948" lon="-8.219408">
<time>2021-10-07T12:45:51Z</time>
</trkpt>
<trkpt lat="39.502876" lon="-8.219433">
<time>2021-10-07T12:45:52Z</time>
</trkpt>
<trkpt lat="39.502806" lon="-8.219463">
<time>2021-10-07T12:45:53Z</time>
</trkpt>
<trkpt lat="39.502739" lon="-8.219499">
<time>2021-10-07T12:45:54Z</time>
</trkpt>
<trkpt lat="39.502675" lon="-8.219537">
<time>2021-10-07T12:45:55Z</time>
</trkpt>
<trkpt lat="39.502612" lon="-8.219568">
<time>2021-10-07T12:45:56Z</time>
</trkpt>
<trkpt lat="39.502544" lon="-8.219592">
<time>2021-10-07T12:45:57Z</time>
</trkpt>
<trkpt lat="39.502475" lon="-8.219604">
<time>2021-10-07T12:45:58Z</time>
</trkpt>
<trkpt lat="39.502405" lon="-8.21961">
<time>2021-10-07T12:45:59Z</time>
</trkpt>
<trkpt lat="39.502334" lon="-8.219612">
<time>2021-10-07T12:46:00Z</time>
</trkpt>
<trkpt lat="39.502264" lon="-8.219612">
<time>2021-10-07T12:46:01Z</time>
</trkpt>
<trkpt lat="39.502193" lon="-8.219617">
<time>2021-10-07T12:46:02Z</time>
</trkpt>
<trkpt lat="39.502119" lon="-8.219628">
<time>2021-10-07T12:46:03Z</time>
</trkpt>
<trkpt lat="39.502046" lon="-8.219643">
<time>2021-10-07T12:46:04Z</time>
</trkpt>
<trkpt lat="39.501973" lon="-8.219662">
<time>2021-10-07T12:46:05Z</time>
</trkpt>
<trkpt lat="39.501903" lon="-8.219679">
<time>2021-10-07T12:46:06Z</time>
</trkpt>
<trkpt lat="39.501832" lon="-8.219695">
<time>2021-10-07T12:46:07Z</time>
</trkpt>
<trkpt lat="39.50176" lon="-8.219709">
<time>2021-10-07T12:46:08Z</time>
</trkpt>
<trkpt lat="39.50169" lon="-8.219716">
<time>2021-10-07T12:46:09Z</time>
</trkpt>
<trkpt lat="39.501624" lon="-8.219703">
<time>2021-10-07T12:46:10Z</time>
</trkpt>
<trkpt lat="39.501568" lon="-8.219668">
<time>2021-10-07T12:46:11Z</time>
</trkpt>
<trkpt lat="39.501523" lon="-8.219616">
<time>2021-10-07T12:46:12Z</time>
</trkpt>
<trkpt lat="39.501485" lon="-8.219555">
<time>2021-10-07T12:46:13Z</time>
</trkpt>
<trkpt lat="39.501449" lon="-8.219492">
<time>2021-10-07T12:46:14Z</time>
</trkpt>
<trkpt lat="39.501407" lon="-8.21944">
<time>2021-10-07T12:46:15Z</time>
</trkpt>
<trkpt lat="39.501361" lon="-8.219404">
<time>2021-10-07T12:46:16Z</time>
</trkpt>
<trkpt lat="39.501317" lon="-8.219385">
<time>2021-10-07T12:46:17Z</time>
</trkpt>
<trkpt lat="39.501275" lon="-8.219374">
<time>2021-10-07T12:46:18Z</time>
</trkpt>
<trkpt lat="39.501237" lon="-8.219366">
<time>2021-10-07T12:46:19Z</time>
</trkpt>
<trkpt lat="39.501203" lon="-8.219365">
<time>2021-10-07T12:46:20Z</time>
</trkpt>
<trkpt lat="39.501174" lon="-8.219377">
<time>2021-10-07T12:46:21Z</time>
</trkpt>
<trkpt lat="39.50115" lon="-8.219402">
<time>2021-10-07T12:46:22Z</time>
</trkpt>
<trkpt lat="39.501129" lon="-8.219439">
<time>2021-10-07T12:46:23Z</time>
</trkpt>
<trkpt lat="39.501107" lon="-8.219483">
<time>2021-10-07T12:46:24Z</time>
</trkpt>
<trkpt lat="39.501091" lon="-8.219522">
<time>2021-10-07T12:46:25Z</time>
</trkpt>
<trkpt lat="39.501077" lon="-8.219553">
<time>2021-10-07T12:46:26Z</time>
</trkpt>
<trkpt lat="39.501064" lon="-8.219577">
<time>2021-10-07T12:46:27Z</time>
</trkpt>
<trkpt lat="39.50105" lon="-8.219599">
<time>2021-10-07T12:46:28Z</time>
</trkpt>
<trkpt lat="39.501036" lon="-8.219617">
<time>2021-10-07T12:46:29Z</time>
</trkpt>
<trkpt lat="39.501021" lon="-8.219642">
<time>2021-10-07T12:46:30Z</time>
</trkpt>
<trkpt lat="39.501008" lon="-8.21967">
<time>2021-10-07T12:46:31Z</time>
</trkpt>
<trkpt lat="39.500996" lon="-8.219693">
<time>2021-10-07T12:46:32Z</time>
</trkpt>
<trkpt lat="39.500985" lon="-8.219713">
<time>2021-10-07T12:46:33Z</time>
</trkpt>
<trkpt lat="39.500978" lon="-8.219729">
<time>2021-10-07T12:46:34Z</time>
</trkpt>
<trkpt lat="39.500971" lon="-8.219752">
<time>2021-10-07T12:46:35Z</time>
</trkpt>
<trkpt lat="39.500966" lon="-8.219781">
<time>2021-10-07T12:46:36Z</time>
</trkpt>
<trkpt lat="39.500965" lon="-8.219797">
<time>2021-10-07T12:46:37Z</time>
</trkpt>
<trkpt lat="39.500964" lon="-8.219799">
<time>2021-10-07T12:46:38Z</time>
</trkpt>
<trkpt lat="39.500964" lon="-8.219807">
<time>2021-10-07T12:46:39Z</time>
</trkpt>
<trkpt lat="39.500965" lon="-8.219809">
<time>2021-10-07T12:46:40Z</time>
</trkpt>
<trkpt lat="39.500963" lon="-8.219818">
<time>2021-10-07T12:46:41Z</time>
</trkpt>
<trkpt lat="39.500959" lon="-8.219825">
<time>2021-10-07T12:46:42Z</time>
</trkpt>
<trkpt lat="39.500956" lon="-8.219832">
<time>2021-10-07T12:46:43Z</time>
</trkpt>
<trkpt lat="39.500955" lon="-8.219838">
<time>2021-10-07T12:46:44Z</time>
</trkpt>
<trkpt lat="39.500954" lon="-8.21984">
<time>2021-10-07T12:46:45Z</time>
</trkpt>
<trkpt lat="39.500953" lon="-8.219841">
<time>2021-10-07T12:46:46Z</time>
</trkpt>
<trkpt lat="39.500953" lon="-8.219843">
<time>2021-10-07T12:46:47Z</time>
</trkpt>
<trkpt lat="39.500952" lon="-8.219844">
<time>2021-10-07T12:46:48Z</time>
</trkpt>
<trkpt lat="39.500952" lon="-8.219845">
<time>2021-10-07T12:46:49Z</time>
</trkpt>
<trkpt lat="39.500952" lon="-8.219845">
<time>2021-10-07T12:46:50Z</time>
</trkpt>
<trkpt lat="39.500952" lon="-8.219846">
<time>2021-10-07T12:46:51Z</time>
</trkpt>
<trkpt lat="39.500951" lon="-8.219847">
<time>2021-10-07T12:46:52Z</time>
</trkpt>
<trkpt lat="39.500953" lon="-8.219846">
<time>2021-10-07T12:46:53Z</time>
</trkpt>
<trkpt lat="39.500952" lon="-8.219851">
<time>2021-10-07T12:46:54Z</time>
</trkpt>
<trkpt lat="39.500945" lon="-8.219858">
<time>2021-10-07T12:46:55Z</time>
</trkpt>
<trkpt lat="39.500936" lon="-8.219869">
<time>2021-10-07T12:46:56Z</time>
</trkpt>
<trkpt lat="39.500925" lon="-8.219886">
<time>2021-10-07T12:46:57Z</time>
</trkpt>
<trkpt lat="39.500915" lon="-8.219915">
<time>2021-10-07T12:46:58Z</time>
</trkpt>
<trkpt lat="39.500902" lon="-8.21995">
<time>2021-10-07T12:46:59Z</time>
</trkpt>
<trkpt lat="39.500887" lon="-8.219987">
<time>2021-10-07T12:47:00Z</time>
</trkpt>
<trkpt lat="39.500873" lon="-8.220024">
<time>2021-10-07T12:47:01Z</time>
</trkpt>
<trkpt lat="39.500862" lon="-8.220059">
<time>2021-10-07T12:47:02Z</time>
</trkpt>
<trkpt lat="39.500854" lon="-8.220095">
<time>2021-10-07T12:47:03Z</time>
</trkpt>
<trkpt lat="39.500846" lon="-8.220128">
<time>2021-10-07T12:47:04Z</time>
</trkpt>
<trkpt lat="39.500838" lon="-8.220163">
<time>2021-10-07T12:47:05Z</time>
</trkpt>
<trkpt lat="39.500828" lon="-8.220199">
<time>2021-10-07T12:47:06Z</time>
</trkpt>
<trkpt lat="39.500821" lon="-8.220235">
<time>2021-10-07T12:47:07Z</time>
</trkpt>
<trkpt lat="39.500814" lon="-8.22027">
<time>2021-10-07T12:47:08Z</time>
</trkpt>
<trkpt lat="39.500802" lon="-8.220302">
<time>2021-10-07T12:47:09Z</time>
</trkpt>
<trkpt lat="39.500791" lon="-8.220333">
<time>2021-10-07T12:47:10Z</time>
</trkpt>
<trkpt lat="39.500774" lon="-8.220369">
<time>2021-10-07T12:47:11Z</time>
</trkpt>
<trkpt lat="39.50076" lon="-8.220405">
<time>2021-10-07T12:47:12Z</time>
</trkpt>
<trkpt lat="39.500745" lon="-8.220443">
<time>2021-10-07T12:47:13Z</time>
</trkpt>
<trkpt lat="39.500734" lon="-8.220484">
<time>2021-10-07T12:47:14Z</time>
</trkpt>
<trkpt lat="39.500722" lon="-8.220527">
<time>2021-10-07T12:47:15Z</time>
</trkpt>
<trkpt lat="39.500711" lon="-8.220575">
<time>2021-10-07T12:47:16Z</time>
</trkpt>
<trkpt lat="39.500702" lon="-8.220621">
<time>2021-10-07T12:47:17Z</time>
</trkpt>
<trkpt lat="39.50069" lon="-8.220673">
<time>2021-10-07T12:47:18Z</time>
</trkpt>
<trkpt lat="39.500676" lon="-8.220731">
<time>2021-10-07T12:47:19Z</time>
</trkpt>
<trkpt lat="39.500663" lon="-8.220791">
<time>2021-10-07T12:47:20Z</time>
</trkpt>
<trkpt lat="39.500653" lon="-8.22085">
<time>2021-10-07T12:47:21Z</time>
</trkpt>
<trkpt lat="39.500644" lon="-8.220904">
<time>2021-10-07T12:47:22Z</time>
</trkpt>
<trkpt lat="39.500637" lon="-8.22095">
<time>2021-10-07T12:47:23Z</time>
</trkpt>
<trkpt lat="39.500631" lon="-8.22099">
<time>2021-10-07T12:47:24Z</time>
</trkpt>
<trkpt lat="39.500628" lon="-8.221028">
<time>2021-10-07T12:47:25Z</time>
</trkpt>
<trkpt lat="39.500622" lon="-8.221059">
<time>2021-10-07T12:47:26Z</time>
</trkpt>
<trkpt lat="39.500615" lon="-8.221097">
<time>2021-10-07T12:47:27Z</time>
</trkpt>
<trkpt lat="39.500608" lon="-8.221132">
<time>2021-10-07T12:47:28Z</time>
</trkpt>
<trkpt lat="39.500603" lon="-8.221163">
<time>2021-10-07T12:47:29Z</time>
</trkpt>
<trkpt lat="39.500598" lon="-8.221194">
<time>2021-10-07T12:47:30Z</time>
</trkpt>
<trkpt lat="39.500591" lon="-8.221224">
<time>2021-10-07T12:47:31Z</time>
</trkpt>
<trkpt lat="39.500584" lon="-8.221254">
<time>2021-10-07T12:47:32Z</time>
</trkpt>
<trkpt lat="39.500579" lon="-8.221285">
<time>2021-10-07T12:47:33Z</time>
</trkpt>
<trkpt lat="39.500576" lon="-8.221317">
<time>2021-10-07T12:47:34Z</time>
</trkpt>
<trkpt lat="39.500572" lon="-8.22135">
<time>2021-10-07T12:47:35Z</time>
</trkpt>
<trkpt lat="39.500566" lon="-8.221383">
<time>2021-10-07T12:47:36Z</time>
</trkpt>
<trkpt lat="39.500562" lon="-8.221418">
<time>2021-10-07T12:47:37Z</time>
</trkpt>
<trkpt lat="39.500556" lon="-8.221454">
<time>2021-10-07T12:47:38Z</time>
</trkpt>
<trkpt lat="39.500548" lon="-8.221489">
<time>2021-10-07T12:47:39Z</time>
</trkpt>
<trkpt lat="39.500537" lon="-8.221524">
<time>2021-10-07T12:47:40Z</time>
</trkpt>
<trkpt lat="39.500527" lon="-8.221559">
<time>2021-10-07T12:47:41Z</time>
</trkpt>
<trkpt lat="39.500517" lon="-8.221593">
<time>2021-10-07T12:47:42Z</time>
</trkpt>
<trkpt lat="39.500509" lon="-8.221629">
<time>2021-10-07T12:47:43Z</time>
</trkpt>
<trkpt lat="39.500499" lon="-8.221665">
<time>2021-10-07T12:47:44Z</time>
</trkpt>
<trkpt lat="39.500487" lon="-8.221704">
<time>2021-10-07T12:47:45Z</time>
</trkpt>
<trkpt lat="39.500473" lon="-8.221746">
<time>2021-10-07T12:47:46Z</time>
</trkpt>
<trkpt lat="39.500458" lon="-8.221791">
<time>2021-10-07T12:47:47Z</time>
</trkpt>
<trkpt lat="39.500445" lon="-8.221833">
<time>2021-10-07T12:47:48Z</time>
</trkpt>
<trkpt lat="39.500434" lon="-8.221872">
<time>2021-10-07T12:47:49Z</time>
</trkpt>
<trkpt lat="39.500422" lon="-8.221908">
<time>2021-10-07T12:47:50Z</time>
</trkpt>
<trkpt lat="39.500406" lon="-8.221937">
<time>2021-10-07T12:47:51Z</time>
</trkpt>
<trkpt lat="39.500389" lon="-8.22196">
<time>2021-10-07T12:47:52Z</time>
</trkpt>
<trkpt lat="39.500371" lon="-8.221981">
<time>2021-10-07T12:47:53Z</time>
</trkpt>
<trkpt lat="39.500354" lon="-8.221985">
<time>2021-10-07T12:47:54Z</time>
</trkpt>
<trkpt lat="39.50034" lon="-8.221975">
<time>2021-10-07T12:47:55Z</time>
</trkpt>
<trkpt lat="39.500339" lon="-8.221953">
<time>2021-10-07T12:47:56Z</time>
</trkpt>
<trkpt lat="39.500347" lon="-8.221926">
<time>2021-10-07T12:47:57Z</time>
</trkpt>
<trkpt lat="39.500362" lon="-8.22189">
<time>2021-10-07T12:47:58Z</time>
</trkpt>
<trkpt lat="39.500377" lon="-8.221842">
<time>2021-10-07T12:47:59Z</time>
</trkpt>
<trkpt lat="39.500394" lon="-8.221786">
<time>2021-10-07T12:48:00Z</time>
</trkpt>
<trkpt lat="39.500411" lon="-8.22173">
<time>2021-10-07T12:48:01Z</time>
</trkpt>
<trkpt lat="39.500428" lon="-8.221667">
<time>2021-10-07T12:48:02Z</time>
</trkpt>
<trkpt lat="39.500443" lon="-8.22161">
<time>2021-10-07T12:48:03Z</time>
</trkpt>
<trkpt lat="39.500454" lon="-8.221559">
<time>2021-10-07T12:48:04Z</time>
</trkpt>
<trkpt lat="39.500459" lon="-8.221516">
<time>2021-10-07T12:48:05Z</time>
</trkpt>
<trkpt lat="39.500466" lon="-8.221506">
<time>2021-10-07T12:48:06Z</time>
</trkpt>
<trkpt lat="39.500467" lon="-8.221516">
<time>2021-10-07T12:48:07Z</time>
</trkpt>
<trkpt lat="39.500466" lon="-8.221534">
<time>2021-10-07T12:48:08Z</time>
</trkpt>
<trkpt lat="39.50046" lon="-8.221556">
<time>2021-10-07T12:48:09Z</time>
</trkpt>
<trkpt lat="39.500453" lon="-8.221588">
<time>2021-10-07T12:48:10Z</time>
</trkpt>
<trkpt lat="39.500444" lon="-8.221627">
<time>2021-10-07T12:48:11Z</time>
</trkpt>
<trkpt lat="39.500435" lon="-8.22167">
<time>2021-10-07T12:48:12Z</time>
</trkpt>
<trkpt lat="39.500421" lon="-8.221716">
<time>2021-10-07T12:48:13Z</time>
</trkpt>
<trkpt lat="39.500405" lon="-8.221763">
<time>2021-10-07T12:48:14Z</time>
</trkpt>
<trkpt lat="39.50039" lon="-8.221816">
<time>2021-10-07T12:48:15Z</time>
</trkpt>
<trkpt lat="39.500373" lon="-8.221872">
<time>2021-10-07T12:48:16Z</time>
</trkpt>
<trkpt lat="39.500354" lon="-8.221931">
<time>2021-10-07T12:48:17Z</time>
</trkpt>
<trkpt lat="39.500337" lon="-8.221991">
<time>2021-10-07T12:48:18Z</time>
</trkpt>
<trkpt lat="39.500327" lon="-8.222052">
<time>2021-10-07T12:48:19Z</time>
</trkpt>
<trkpt lat="39.500316" lon="-8.222107">
<time>2021-10-07T12:48:20Z</time>
</trkpt>
<trkpt lat="39.500305" lon="-8.222157">
<time>2021-10-07T12:48:21Z</time>
</trkpt>
<trkpt lat="39.500292" lon="-8.222203">
<time>2021-10-07T12:48:22Z</time>
</trkpt>
<trkpt lat="39.500277" lon="-8.222244">
<time>2021-10-07T12:48:23Z</time>
</trkpt>
<trkpt lat="39.500256" lon="-8.222275">
<time>2021-10-07T12:48:24Z</time>
</trkpt>
<trkpt lat="39.500228" lon="-8.222291">
<time>2021-10-07T12:48:25Z</time>
</trkpt>
<trkpt lat="39.500195" lon="-8.222299">
<time>2021-10-07T12:48:26Z</time>
</trkpt>
<trkpt lat="39.500156" lon="-8.222309">
<time>2021-10-07T12:48:27Z</time>
</trkpt>
<trkpt lat="39.500113" lon="-8.222328">
<time>2021-10-07T12:48:28Z</time>
</trkpt>
<trkpt lat="39.500068" lon="-8.222361">
<time>2021-10-07T12:48:29Z</time>
</trkpt>
<trkpt lat="39.50002" lon="-8.222405">
<time>2021-10-07T12:48:30Z</time>
</trkpt>
<trkpt lat="39.499971" lon="-8.222455">
<time>2021-10-07T12:48:31Z</time>
</trkpt>
<trkpt lat="39.499917" lon="-8.222511">
<time>2021-10-07T12:48:32Z</time>
</trkpt>
<trkpt lat="39.49986" lon="-8.222569">
<time>2021-10-07T12:48:33Z</time>
</trkpt>
<trkpt lat="39.499802" lon="-8.222627">
<time>2021-10-07T12:48:34Z</time>
</trkpt>
<trkpt lat="39.499744" lon="-8.222683">
<time>2021-10-07T12:48:35Z</time>
</trkpt>
<trkpt lat="39.499687" lon="-8.222735">
<time>2021-10-07T12:48:36Z</time>
</trkpt>
<trkpt lat="39.499633" lon="-8.222791">
<time>2021-10-07T12:48:37Z</time>
</trkpt>
<trkpt lat="39.499587" lon="-8.222856">
<time>2021-10-07T12:48:38Z</time>
</trkpt>
<trkpt lat="39.499549" lon="-8.222928">
<time>2021-10-07T12:48:39Z</time>
</trkpt>
<trkpt lat="39.49952" lon="-8.223005">
<time>2021-10-07T12:48:40Z</time>
</trkpt>
<trkpt lat="39.499494" lon="-8.223085">
<time>2021-10-07T12:48:41Z</time>
</trkpt>
<trkpt lat="39.499471" lon="-8.223172">
<time>2021-10-07T12:48:42Z</time>
</trkpt>
<trkpt lat="39.499448" lon="-8.223263">
<time>2021-10-07T12:48:43Z</time>
</trkpt>
<trkpt lat="39.499429" lon="-8.223362">
<time>2021-10-07T12:48:44Z</time>
</trkpt>
<trkpt lat="39.499419" lon="-8.223465">
<time>2021-10-07T12:48:45Z</time>
</trkpt>
<trkpt lat="39.49942" lon="-8.223574">
<time>2021-10-07T12:48:46Z</time>
</trkpt>
<trkpt lat="39.499421" lon="-8.223683">
<time>2021-10-07T12:48:47Z</time>
</trkpt>
<trkpt lat="39.499406" lon="-8.223789">
<time>2021-10-07T12:48:48Z</time>
</trkpt>
<trkpt lat="39.499379" lon="-8.223872">
<time>2021-10-07T12:48:49Z</time>
</trkpt>
<trkpt lat="39.499337" lon="-8.223935">
<time>2021-10-07T12:48:50Z</time>
</trkpt>
<trkpt lat="39.499281" lon="-8.223987">
<time>2021-10-07T12:48:51Z</time>
</trkpt>
<trkpt lat="39.49922" lon="-8.224037">
<time>2021-10-07T12:48:52Z</time>
</trkpt>
<trkpt lat="39.499159" lon="-8.224093">
<time>2021-10-07T12:48:53Z</time>
</trkpt>
<trkpt lat="39.499095" lon="-8.224145">
<time>2021-10-07T12:48:54Z</time>
</trkpt>
<trkpt lat="39.49903" lon="-8.224194">
<time>2021-10-07T12:48:55Z</time>
</trkpt>
<trkpt lat="39.498968" lon="-8.224247">
<time>2021-10-07T12:48:56Z</time>
</trkpt>
<trkpt lat="39.498912" lon="-8.224296">
<time>2021-10-07T12:48:57Z</time>
</trkpt>
<trkpt lat="39.498879" lon="-8.22434">
<time>2021-10-07T12:48:58Z</time>
</trkpt>
<trkpt lat="39.49885" lon="-8.224384">
<time>2021-10-07T12:48:59Z</time>
</trkpt>
<trkpt lat="39.498813" lon="-8.224418">
<time>2021-10-07T12:49:00Z</time>
</trkpt>
<trkpt lat="39.498767" lon="-8.224431">
<time>2021-10-07T12:49:01Z</time>
</trkpt>
<trkpt lat="39.498725" lon="-8.224413">
<time>2021-10-07T12:49:02Z</time>
</trkpt>
<trkpt lat="39.498685" lon="-8.224381">
<time>2021-10-07T12:49:03Z</time>
</trkpt>
<trkpt lat="39.498641" lon="-8.224344">
<time>2021-10-07T12:49:04Z</time>
</trkpt>
<trkpt lat="39.49859" lon="-8.224304">
<time>2021-10-07T12:49:05Z</time>
</trkpt>
<trkpt lat="39.498537" lon="-8.224264">
<time>2021-10-07T12:49:06Z</time>
</trkpt>
<trkpt lat="39.498477" lon="-8.224228">
<time>2021-10-07T12:49:07Z</time>
</trkpt>
<trkpt lat="39.498414" lon="-8.224193">
<time>2021-10-07T12:49:08Z</time>
</trkpt>
<trkpt lat="39.498349" lon="-8.224158">
<time>2021-10-07T12:49:09Z</time>
</trkpt>
<trkpt lat="39.498285" lon="-8.224122">
<time>2021-10-07T12:49:10Z</time>
</trkpt>
<trkpt lat="39.498218" lon="-8.224086">
<time>2021-10-07T12:49:11Z</time>
</trkpt>
<trkpt lat="39.498148" lon="-8.224051">
<time>2021-10-07T12:49:12Z</time>
</trkpt>
<trkpt lat="39.498075" lon="-8.22402">
<time>2021-10-07T12:49:13Z</time>
</trkpt>
<trkpt lat="39.498001" lon="-8.223989">
<time>2021-10-07T12:49:14Z</time>
</trkpt>
<trkpt lat="39.497929" lon="-8.223955">
<time>2021-10-07T12:49:15Z</time>
</trkpt>
<trkpt lat="39.497857" lon="-8.223922">
<time>2021-10-07T12:49:16Z</time>
</trkpt>
<trkpt lat="39.497788" lon="-8.223891">
<time>2021-10-07T12:49:17Z</time>
</trkpt>
<trkpt lat="39.497719" lon="-8.223865">
<time>2021-10-07T12:49:18Z</time>
</trkpt>
<trkpt lat="39.49765" lon="-8.223838">
<time>2021-10-07T12:49:19Z</time>
</trkpt>
<trkpt lat="39.497581" lon="-8.22381">
<time>2021-10-07T12:49:20Z</time>
</trkpt>
<trkpt lat="39.497509" lon="-8.223784">
<time>2021-10-07T12:49:21Z</time>
</trkpt>
<trkpt lat="39.497436" lon="-8.223758">
<time>2021-10-07T12:49:22Z</time>
</trkpt>
<trkpt lat="39.497361" lon="-8.223735">
<time>2021-10-07T12:49:23Z</time>
</trkpt>
<trkpt lat="39.497286" lon="-8.223717">
<time>2021-10-07T12:49:24Z</time>
</trkpt>
<trkpt lat="39.497211" lon="-8.223703">
<time>2021-10-07T12:49:25Z</time>
</trkpt>
<trkpt lat="39.497138" lon="-8.223693">
<time>2021-10-07T12:49:26Z</time>
</trkpt>
<trkpt lat="39.497064" lon="-8.223685">
<time>2021-10-07T12:49:27Z</time>
</trkpt>
<trkpt lat="39.496992" lon="-8.223678">
<time>2021-10-07T12:49:28Z</time>
</trkpt>
<trkpt lat="39.49692" lon="-8.223673">
<time>2021-10-07T12:49:29Z</time>
</trkpt>
<trkpt lat="39.49685" lon="-8.22367">
<time>2021-10-07T12:49:30Z</time>
</trkpt>
<trkpt lat="39.496784" lon="-8.223668">
<time>2021-10-07T12:49:31Z</time>
</trkpt>
<trkpt lat="39.49672" lon="-8.223663">
<time>2021-10-07T12:49:32Z</time>
</trkpt>
<trkpt lat="39.496657" lon="-8.223651">
<time>2021-10-07T12:49:33Z</time>
</trkpt>
<trkpt lat="39.496595" lon="-8.223634">
<time>2021-10-07T12:49:34Z</time>
</trkpt>
<trkpt lat="39.49654" lon="-8.223616">
<time>2021-10-07T12:49:35Z</time>
</trkpt>
<trkpt lat="39.496492" lon="-8.223603">
<time>2021-10-07T12:49:36Z</time>
</trkpt>
<trkpt lat="39.496445" lon="-8.223586">
<time>2021-10-07T12:49:37Z</time>
</trkpt>
<trkpt lat="39.496396" lon="-8.223561">
<time>2021-10-07T12:49:38Z</time>
</trkpt>
<trkpt lat="39.496341" lon="-8.22353">
<time>2021-10-07T12:49:39Z</time>
</trkpt>
<trkpt lat="39.49628" lon="-8.223498">
<time>2021-10-07T12:49:40Z</time>
</trkpt>
<trkpt lat="39.496212" lon="-8.223468">
<time>2021-10-07T12:49:41Z</time>
</trkpt>
<trkpt lat="39.496139" lon="-8.223443">
<time>2021-10-07T12:49:42Z</time>
</trkpt>
<trkpt lat="39.496064" lon="-8.22343">
<time>2021-10-07T12:49:43Z</time>
</trkpt>
<trkpt lat="39.495998" lon="-8.223419">
<time>2021-10-07T12:49:44Z</time>
</trkpt>
<trkpt lat="39.495944" lon="-8.2234">
<time>2021-10-07T12:49:45Z</time>
</trkpt>
<trkpt lat="39.495901" lon="-8.223378">
<time>2021-10-07T12:49:46Z</time>
</trkpt>
<trkpt lat="39.495878" lon="-8.223348">
<time>2021-10-07T12:49:47Z</time>
</trkpt>
<trkpt lat="39.495867" lon="-8.223311">
<time>2021-10-07T12:49:48Z</time>
</trkpt>
<trkpt lat="39.495861" lon="-8.223262">
<time>2021-10-07T12:49:49Z</time>
</trkpt>
<trkpt lat="39.495851" lon="-8.223209">
<time>2021-10-07T12:49:50Z</time>
</trkpt>
<trkpt lat="39.495837" lon="-8.223152">
<time>2021-10-07T12:49:51Z</time>
</trkpt>
<trkpt lat="39.495823" lon="-8.223086">
<time>2021-10-07T12:49:52Z</time>
</trkpt>
<trkpt lat="39.495813" lon="-8.223014">
<time>2021-10-07T12:49:53Z</time>
</trkpt>
<trkpt lat="39.495806" lon="-8.222937">
<time>2021-10-07T12:49:54Z</time>
</trkpt>
<trkpt lat="39.495796" lon="-8.22286">
<time>2021-10-07T12:49:55Z</time>
</trkpt>
<trkpt lat="39.495783" lon="-8.222783">
<time>2021-10-07T12:49:56Z</time>
</trkpt>
<trkpt lat="39.495768" lon="-8.222703">
<time>2021-10-07T12:49:57Z</time>
</trkpt>
<trkpt lat="39.495754" lon="-8.222623">
<time>2021-10-07T12:49:58Z</time>
</trkpt>
<trkpt lat="39.495739" lon="-8.222544">
<time>2021-10-07T12:49:59Z</time>
</trkpt>
<trkpt lat="39.495723" lon="-8.222466">
<time>2021-10-07T12:50:00Z</time>
</trkpt>
<trkpt lat="39.495708" lon="-8.222389">
<time>2021-10-07T12:50:01Z</time>
</trkpt>
<trkpt lat="39.495692" lon="-8.222315">
<time>2021-10-07T12:50:02Z</time>
</trkpt>
<trkpt lat="39.495677" lon="-8.222239">
<time>2021-10-07T12:50:03Z</time>
</trkpt>
<trkpt lat="39.495665" lon="-8.22216">
<time>2021-10-07T12:50:04Z</time>
</trkpt>
<trkpt lat="39.495653" lon="-8.22208">
<time>2021-10-07T12:50:05Z</time>
</trkpt>
<trkpt lat="39.495642" lon="-8.221996">
<time>2021-10-07T12:50:06Z</time>
</trkpt>
<trkpt lat="39.495628" lon="-8.221909">
<time>2021-10-07T12:50:07Z</time>
</trkpt>
<trkpt lat="39.495615" lon="-8.221822">
<time>2021-10-07T12:50:08Z</time>
</trkpt>
<trkpt lat="39.495599" lon="-8.221743">
<time>2021-10-07T12:50:09Z</time>
</trkpt>
<trkpt lat="39.495573" lon="-8.221681">
<time>2021-10-07T12:50:10Z</time>
</trkpt>
<trkpt lat="39.49555" lon="-8.221635">
<time>2021-10-07T12:50:11Z</time>
</trkpt>
<trkpt lat="39.495544" lon="-8.221606">
<time>2021-10-07T12:50:12Z</time>
</trkpt>
<trkpt lat="39.495554" lon="-8.221603">
<time>2021-10-07T12:50:13Z</time>
</trkpt>
<trkpt lat="39.495568" lon="-8.221632">
<time>2021-10-07T12:50:14Z</time>
</trkpt>
<trkpt lat="39.495578" lon="-8.221669">
<time>2021-10-07T12:50:15Z</time>
</trkpt>
<trkpt lat="39.495592" lon="-8.221716">
<time>2021-10-07T12:50:16Z</time>
</trkpt>
<trkpt lat="39.495608" lon="-8.221773">
<time>2021-10-07T12:50:17Z</time>
</trkpt>
<trkpt lat="39.495622" lon="-8.221835">
<time>2021-10-07T12:50:18Z</time>
</trkpt>
<trkpt lat="39.495634" lon="-8.221901">
<time>2021-10-07T12:50:19Z</time>
</trkpt>
<trkpt lat="39.495646" lon="-8.221974">
<time>2021-10-07T12:50:20Z</time>
</trkpt>
<trkpt lat="39.495657" lon="-8.222046">
<time>2021-10-07T12:50:21Z</time>
</trkpt>
<trkpt lat="39.495669" lon="-8.222117">
<time>2021-10-07T12:50:22Z</time>
</trkpt>
<trkpt lat="39.495681" lon="-8.222188">
<time>2021-10-07T12:50:23Z</time>
</trkpt>
<trkpt lat="39.495693" lon="-8.222263">
<time>2021-10-07T12:50:24Z</time>
</trkpt>
<trkpt lat="39.495706" lon="-8.222342">
<time>2021-10-07T12:50:25Z</time>
</trkpt>
<trkpt lat="39.495721" lon="-8.222424">
<time>2021-10-07T12:50:26Z</time>
</trkpt>
<trkpt lat="39.495738" lon="-8.222509">
<time>2021-10-07T12:50:27Z</time>
</trkpt>
<trkpt lat="39.495757" lon="-8.222596">
<time>2021-10-07T12:50:28Z</time>
</trkpt>
<trkpt lat="39.495776" lon="-8.222686">
<time>2021-10-07T12:50:29Z</time>
</trkpt>
<trkpt lat="39.495796" lon="-8.222782">
<time>2021-10-07T12:50:30Z</time>
</trkpt>
<trkpt lat="39.495814" lon="-8.222882">
<time>2021-10-07T12:50:31Z</time>
</trkpt>
<trkpt lat="39.495833" lon="-8.222981">
<time>2021-10-07T12:50:32Z</time>
</trkpt>
<trkpt lat="39.495851" lon="-8.223077">
<time>2021-10-07T12:50:33Z</time>
</trkpt>
<trkpt lat="39.495872" lon="-8.223173">
<time>2021-10-07T12:50:34Z</time>
</trkpt>
<trkpt lat="39.495894" lon="-8.223262">
<time>2021-10-07T12:50:35Z</time>
</trkpt>
<trkpt lat="39.495915" lon="-8.223338">
<time>2021-10-07T12:50:36Z</time>
</trkpt>
<trkpt lat="39.495929" lon="-8.223406">
<time>2021-10-07T12:50:37Z</time>
</trkpt>
<trkpt lat="39.495925" lon="-8.223471">
<time>2021-10-07T12:50:38Z</time>
</trkpt>
<trkpt lat="39.495902" lon="-8.223522">
<time>2021-10-07T12:50:39Z</time>
</trkpt>
<trkpt lat="39.495864" lon="-8.223556">
<time>2021-10-07T12:50:40Z</time>
</trkpt>
<trkpt lat="39.495816" lon="-8.223578">
<time>2021-10-07T12:50:41Z</time>
</trkpt>
<trkpt lat="39.495763" lon="-8.223604">
<time>2021-10-07T12:50:42Z</time>
</trkpt>
<trkpt lat="39.495702" lon="-8.223624">
<time>2021-10-07T12:50:43Z</time>
</trkpt>
<trkpt lat="39.495642" lon="-8.223642">
<time>2021-10-07T12:50:44Z</time>
</trkpt>
<trkpt lat="39.49558" lon="-8.223656">
<time>2021-10-07T12:50:45Z</time>
</trkpt>
<trkpt lat="39.495516" lon="-8.223658">
<time>2021-10-07T12:50:46Z</time>
</trkpt>
<trkpt lat="39.495449" lon="-8.223652">
<time>2021-10-07T12:50:47Z</time>
</trkpt>
<trkpt lat="39.495379" lon="-8.22363">
<time>2021-10-07T12:50:48Z</time>
</trkpt>
<trkpt lat="39.495304" lon="-8.223608">
<time>2021-10-07T12:50:49Z</time>
</trkpt>
<trkpt lat="39.495225" lon="-8.22358">
<time>2021-10-07T12:50:50Z</time>
</trkpt>
<trkpt lat="39.495148" lon="-8.223549">
<time>2021-10-07T12:50:51Z</time>
</trkpt>
<trkpt lat="39.495067" lon="-8.22352">
<time>2021-10-07T12:50:52Z</time>
</trkpt>
<trkpt lat="39.49499" lon="-8.223495">
<time>2021-10-07T12:50:53Z</time>
</trkpt>
<trkpt lat="39.494911" lon="-8.22347">
<time>2021-10-07T12:50:54Z</time>
</trkpt>
<trkpt lat="39.49483" lon="-8.223445">
<time>2021-10-07T12:50:55Z</time>
</trkpt>
<trkpt lat="39.494753" lon="-8.223417">
<time>2021-10-07T12:50:56Z</time>
</trkpt>
<trkpt lat="39.494675" lon="-8.223387">
<time>2021-10-07T12:50:57Z</time>
</trkpt>
<trkpt lat="39.494598" lon="-8.223362">
<time>2021-10-07T12:50:58Z</time>
</trkpt>
<trkpt lat="39.494516" lon="-8.223344">
<time>2021-10-07T12:50:59Z</time>
</trkpt>
<trkpt lat="39.494437" lon="-8.223329">
<time>2021-10-07T12:51:00Z</time>
</trkpt>
<trkpt lat="39.494361" lon="-8.223314">
<time>2021-10-07T12:51:01Z</time>
</trkpt>
<trkpt lat="39.494286" lon="-8.223302">
<time>2021-10-07T12:51:02Z</time>
</trkpt>
<trkpt lat="39.494212" lon="-8.223293">
<time>2021-10-07T12:51:03Z</time>
</trkpt>
<trkpt lat="39.49414" lon="-8.223285">
<time>2021-10-07T12:51:04Z</time>
</trkpt>
<trkpt lat="39.494069" lon="-8.223276">
<time>2021-10-07T12:51:05Z</time>
</trkpt>
<trkpt lat="39.493996" lon="-8.223267">
<time>2021-10-07T12:51:06Z</time>
</trkpt>
<trkpt lat="39.493919" lon="-8.223261">
<time>2021-10-07T12:51:07Z</time>
</trkpt>
<trkpt lat="39.493838" lon="-8.223259">
<time>2021-10-07T12:51:08Z</time>
</trkpt>
<trkpt lat="39.493754" lon="-8.223258">
<time>2021-10-07T12:51:09Z</time>
</trkpt>
<trkpt lat="39.49367" lon="-8.223254">
<time>2021-10-07T12:51:10Z</time>
</trkpt>
<trkpt lat="39.493585" lon="-8.223247">
<time>2021-10-07T12:51:11Z</time>
</trkpt>
<trkpt lat="39.493498" lon="-8.223238">
<time>2021-10-07T12:51:12Z</time>
</trkpt>
<trkpt lat="39.493415" lon="-8.22322">
<time>2021-10-07T12:51:13Z</time>
</trkpt>
<trkpt lat="39.493334" lon="-8.223197">
<time>2021-10-07T12:51:14Z</time>
</trkpt>
<trkpt lat="39.49326" lon="-8.223171">
<time>2021-10-07T12:51:15Z</time>
</trkpt>
<trkpt lat="39.493188" lon="-8.223151">
<time>2021-10-07T12:51:16Z</time>
</trkpt>
<trkpt lat="39.493123" lon="-8.22313">
<time>2021-10-07T12:51:17Z</time>
</trkpt>
<trkpt lat="39.493066" lon="-8.223111">
<time>2021-10-07T12:51:18Z</time>
</trkpt>
<trkpt lat="39.493013" lon="-8.223096">
<time>2021-10-07T12:51:19Z</time>
</trkpt>
<trkpt lat="39.492961" lon="-8.223083">
<time>2021-10-07T12:51:20Z</time>
</trkpt>
<trkpt lat="39.49291" lon="-8.223074">
<time>2021-10-07T12:51:21Z</time>
</trkpt>
<trkpt lat="39.492858" lon="-8.223067">
<time>2021-10-07T12:51:22Z</time>
</trkpt>
<trkpt lat="39.492804" lon="-8.223063">
<time>2021-10-07T12:51:23Z</time>
</trkpt>
<trkpt lat="39.492746" lon="-8.223064">
<time>2021-10-07T12:51:24Z</time>
</trkpt>
<trkpt lat="39.492684" lon="-8.223065">
<time>2021-10-07T12:51:25Z</time>
</trkpt>
<trkpt lat="39.492619" lon="-8.22306">
<time>2021-10-07T12:51:26Z</time>
</trkpt>
<trkpt lat="39.492552" lon="-8.223055">
<time>2021-10-07T12:51:27Z</time>
</trkpt>
<trkpt lat="39.492486" lon="-8.223043">
<time>2021-10-07T12:51:28Z</time>
</trkpt>
<trkpt lat="39.492422" lon="-8.223025">
<time>2021-10-07T12:51:29Z</time>
</trkpt>
<trkpt lat="39.492357" lon="-8.223009">
<time>2021-10-07T12:51:30Z</time>
</trkpt>
<trkpt lat="39.492295" lon="-8.222994">
<time>2021-10-07T12:51:31Z</time>
</trkpt>
<trkpt lat="39.492237" lon="-8.222979">
<time>2021-10-07T12:51:32Z</time>
</trkpt>
<trkpt lat="39.492183" lon="-8.222971">
<time>2021-10-07T12:51:33Z</time>
</trkpt>
<trkpt lat="39.49213" lon="-8.222975">
<time>2021-10-07T12:51:34Z</time>
</trkpt>
<trkpt lat="39.492076" lon="-8.222993">
<time>2021-10-07T12:51:35Z</time>
</trkpt>
<trkpt lat="39.492019" lon="-8.223026">
<time>2021-10-07T12:51:36Z</time>
</trkpt>
<trkpt lat="39.491958" lon="-8.223066">
<time>2021-10-07T12:51:37Z</time>
</trkpt>
<trkpt lat="39.491892" lon="-8.223109">
<time>2021-10-07T12:51:38Z</time>
</trkpt>
<trkpt lat="39.49182" lon="-8.223157">
<time>2021-10-07T12:51:39Z</time>
</trkpt>
<trkpt lat="39.491746" lon="-8.223208">
<time>2021-10-07T12:51:40Z</time>
</trkpt>
<trkpt lat="39.491671" lon="-8.223267">
<time>2021-10-07T12:51:41Z</time>
</trkpt>
<trkpt lat="39.491596" lon="-8.223332">
<time>2021-10-07T12:51:42Z</time>
</trkpt>
<trkpt lat="39.491523" lon="-8.223398">
<time>2021-10-07T12:51:43Z</time>
</trkpt>
<trkpt lat="39.491451" lon="-8.223464">
<time>2021-10-07T12:51:44Z</time>
</trkpt>
<trkpt lat="39.491377" lon="-8.223538">
<time>2021-10-07T12:51:45Z</time>
</trkpt>
<trkpt lat="39.491299" lon="-8.223619">
<time>2021-10-07T12:51:46Z</time>
</trkpt>
<trkpt lat="39.491213" lon="-8.223706">
<time>2021-10-07T12:51:47Z</time>
</trkpt>
<trkpt lat="39.491126" lon="-8.223796">
<time>2021-10-07T12:51:48Z</time>
</trkpt>
<trkpt lat="39.491039" lon="-8.22389">
<time>2021-10-07T12:51:49Z</time>
</trkpt>
<trkpt lat="39.490955" lon="-8.223985">
<time>2021-10-07T12:51:50Z</time>
</trkpt>
<trkpt lat="39.490872" lon="-8.224077">
<time>2021-10-07T12:51:51Z</time>
</trkpt>
<trkpt lat="39.490793" lon="-8.224165">
<time>2021-10-07T12:51:52Z</time>
</trkpt>
<trkpt lat="39.490719" lon="-8.224246">
<time>2021-10-07T12:51:53Z</time>
</trkpt>
<trkpt lat="39.490649" lon="-8.224322">
<time>2021-10-07T12:51:54Z</time>
</trkpt>
<trkpt lat="39.490583" lon="-8.224389">
<time>2021-10-07T12:51:55Z</time>
</trkpt>
<trkpt lat="39.490519" lon="-8.224448">
<time>2021-10-07T12:51:56Z</time>
</trkpt>
<trkpt lat="39.490456" lon="-8.224498">
<time>2021-10-07T12:51:57Z</time>
</trkpt>
<trkpt lat="39.490393" lon="-8.22454">
<time>2021-10-07T12:51:58Z</time>
</trkpt>
<trkpt lat="39.49033" lon="-8.224572">
<time>2021-10-07T12:51:59Z</time>
</trkpt>
<trkpt lat="39.490263" lon="-8.224595">
<time>2021-10-07T12:52:00Z</time>
</trkpt>
<trkpt lat="39.490195" lon="-8.224607">
<time>2021-10-07T12:52:01Z</time>
</trkpt>
<trkpt lat="39.490127" lon="-8.224616">
<time>2021-10-07T12:52:02Z</time>
</trkpt>
<trkpt lat="39.49006" lon="-8.224627">
<time>2021-10-07T12:52:03Z</time>
</trkpt>
<trkpt lat="39.489997" lon="-8.224641">
<time>2021-10-07T12:52:04Z</time>
</trkpt>
<trkpt lat="39.489935" lon="-8.224668">
<time>2021-10-07T12:52:05Z</time>
</trkpt>
<trkpt lat="39.489879" lon="-8.224703">
<time>2021-10-07T12:52:06Z</time>
</trkpt>
<trkpt lat="39.489828" lon="-8.224738">
<time>2021-10-07T12:52:07Z</time>
</trkpt>
<trkpt lat="39.489778" lon="-8.224768">
<time>2021-10-07T12:52:08Z</time>
</trkpt>
<trkpt lat="39.489724" lon="-8.224791">
<time>2021-10-07T12:52:09Z</time>
</trkpt>
<trkpt lat="39.489669" lon="-8.224811">
<time>2021-10-07T12:52:10Z</time>
</trkpt>
<trkpt lat="39.489612" lon="-8.224828">
<time>2021-10-07T12:52:11Z</time>
</trkpt>
<trkpt lat="39.489553" lon="-8.224847">
<time>2021-10-07T12:52:12Z</time>
</trkpt>
<trkpt lat="39.489492" lon="-8.224873">
<time>2021-10-07T12:52:13Z</time>
</trkpt>
<trkpt lat="39.489426" lon="-8.224911">
<time>2021-10-07T12:52:14Z</time>
</trkpt>
<trkpt lat="39.489358" lon="-8.224959">
<time>2021-10-07T12:52:15Z</time>
</trkpt>
<trkpt lat="39.489289" lon="-8.225012">
<time>2021-10-07T12:52:16Z</time>
</trkpt>
<trkpt lat="39.48922" lon="-8.225062">
<time>2021-10-07T12:52:17Z</time>
</trkpt>
<trkpt lat="39.489152" lon="-8.225111">
<time>2021-10-07T12:52:18Z</time>
</trkpt>
<trkpt lat="39.489082" lon="-8.225159">
<time>2021-10-07T12:52:19Z</time>
</trkpt>
<trkpt lat="39.489012" lon="-8.225209">
<time>2021-10-07T12:52:20Z</time>
</trkpt>
<trkpt lat="39.488944" lon="-8.225257">
<time>2021-10-07T12:52:21Z</time>
</trkpt>
<trkpt lat="39.488877" lon="-8.225303">
<time>2021-10-07T12:52:22Z</time>
</trkpt>
<trkpt lat="39.488812" lon="-8.225349">
<time>2021-10-07T12:52:23Z</time>
</trkpt>
<trkpt lat="39.488753" lon="-8.225398">
<time>2021-10-07T12:52:24Z</time>
</trkpt>
<trkpt lat="39.488697" lon="-8.225445">
<time>2021-10-07T12:52:25Z</time>
</trkpt>
<trkpt lat="39.488645" lon="-8.22549">
<time>2021-10-07T12:52:26Z</time>
</trkpt>
<trkpt lat="39.488592" lon="-8.225532">
<time>2021-10-07T12:52:27Z</time>
</trkpt>
<trkpt lat="39.488537" lon="-8.225566">
<time>2021-10-07T12:52:28Z</time>
</trkpt>
<trkpt lat="39.488483" lon="-8.22559">
<time>2021-10-07T12:52:29Z</time>
</trkpt>
<trkpt lat="39.48843" lon="-8.225613">
<time>2021-10-07T12:52:30Z</time>
</trkpt>
<trkpt lat="39.488378" lon="-8.225631">
<time>2021-10-07T12:52:31Z</time>
</trkpt>
<trkpt lat="39.488322" lon="-8.225646">
<time>2021-10-07T12:52:32Z</time>
</trkpt>
<trkpt lat="39.488262" lon="-8.22566">
<time>2021-10-07T12:52:33Z</time>
</trkpt>
<trkpt lat="39.488201" lon="-8.225672">
<time>2021-10-07T12:52:34Z</time>
</trkpt>
<trkpt lat="39.488138" lon="-8.225682">
<time>2021-10-07T12:52:35Z</time>
</trkpt>
<trkpt lat="39.488074" lon="-8.225694">
<time>2021-10-07T12:52:36Z</time>
</trkpt>
<trkpt lat="39.488009" lon="-8.225706">
<time>2021-10-07T12:52:37Z</time>
</trkpt>
<trkpt lat="39.487946" lon="-8.22572">
<time>2021-10-07T12:52:38Z</time>
</trkpt>
<trkpt lat="39.487881" lon="-8.225734">
<time>2021-10-07T12:52:39Z</time>
</trkpt>
<trkpt lat="39.487816" lon="-8.225745">
<time>2021-10-07T12:52:40Z</time>
</trkpt>
<trkpt lat="39.487751" lon="-8.225749">
<time>2021-10-07T12:52:41Z</time>
</trkpt>
<trkpt lat="39.487685" lon="-8.225744">
<time>2021-10-07T12:52:42Z</time>
</trkpt>
<trkpt lat="39.487613" lon="-8.225742">
<time>2021-10-07T12:52:43Z</time>
</trkpt>
<trkpt lat="39.487538" lon="-8.225734">
<time>2021-10-07T12:52:44Z</time>
</trkpt>
<trkpt lat="39.487462" lon="-8.225726">
<time>2021-10-07T12:52:45Z</time>
</trkpt>
<trkpt lat="39.487383" lon="-8.225716">
<time>2021-10-07T12:52:46Z</time>
</trkpt>
<trkpt lat="39.4873" lon="-8.225693">
<time>2021-10-07T12:52:47Z</time>
</trkpt>
<trkpt lat="39.487213" lon="-8.225673">
<time>2021-10-07T12:52:48Z</time>
</trkpt>
<trkpt lat="39.487126" lon="-8.225658">
<time>2021-10-07T12:52:49Z</time>
</trkpt>
<trkpt lat="39.48704" lon="-8.225648">
<time>2021-10-07T12:52:50Z</time>
</trkpt>
<trkpt lat="39.486955" lon="-8.225645">
<time>2021-10-07T12:52:51Z</time>
</trkpt>
<trkpt lat="39.486866" lon="-8.225641">
<time>2021-10-07T12:52:52Z</time>
</trkpt>
<trkpt lat="39.486781" lon="-8.225627">
<time>2021-10-07T12:52:53Z</time>
</trkpt>
<trkpt lat="39.486697" lon="-8.225605">
<time>2021-10-07T12:52:54Z</time>
</trkpt>
<trkpt lat="39.486615" lon="-8.225578">
<time>2021-10-07T12:52:55Z</time>
</trkpt>
<trkpt lat="39.486532" lon="-8.225551">
<time>2021-10-07T12:52:56Z</time>
</trkpt>
<trkpt lat="39.486445" lon="-8.225532">
<time>2021-10-07T12:52:57Z</time>
</trkpt>
<trkpt lat="39.486354" lon="-8.225531">
<time>2021-10-07T12:52:58Z</time>
</trkpt>
<trkpt lat="39.486269" lon="-8.225545">
<time>2021-10-07T12:52:59Z</time>
</trkpt>
<trkpt lat="39.486184" lon="-8.225573">
<time>2021-10-07T12:53:00Z</time>
</trkpt>
<trkpt lat="39.486088" lon="-8.225615">
<time>2021-10-07T12:53:01Z</time>
</trkpt>
<trkpt lat="39.485993" lon="-8.225657">
<time>2021-10-07T12:53:02Z</time>
</trkpt>
<trkpt lat="39.485903" lon="-8.225692">
<time>2021-10-07T12:53:03Z</time>
</trkpt>
<trkpt lat="39.485814" lon="-8.225708">
<time>2021-10-07T12:53:04Z</time>
</trkpt>
<trkpt lat="39.485728" lon="-8.225707">
<time>2021-10-07T12:53:05Z</time>
</trkpt>
<trkpt lat="39.485637" lon="-8.225698">
<time>2021-10-07T12:53:06Z</time>
</trkpt>
<trkpt lat="39.485545" lon="-8.225687">
<time>2021-10-07T12:53:07Z</time>
</trkpt>
<trkpt lat="39.485455" lon="-8.225673">
<time>2021-10-07T12:53:08Z</time>
</trkpt>
<trkpt lat="39.48536" lon="-8.225667">
<time>2021-10-07T12:53:09Z</time>
</trkpt>
<trkpt lat="39.485271" lon="-8.225665">
<time>2021-10-07T12:53:10Z</time>
</trkpt>
<trkpt lat="39.485192" lon="-8.225656">
<time>2021-10-07T12:53:11Z</time>
</trkpt>
<trkpt lat="39.485123" lon="-8.225644">
<time>2021-10-07T12:53:12Z</time>
</trkpt>
<trkpt lat="39.485076" lon="-8.225637">
<time>2021-10-07T12:53:13Z</time>
</trkpt>
<trkpt lat="39.485049" lon="-8.225633">
<time>2021-10-07T12:53:14Z</time>
</trkpt>
<trkpt lat="39.485033" lon="-8.225639">
<time>2021-10-07T12:53:15Z</time>
</trkpt>
<trkpt lat="39.485017" lon="-8.22566">
<time>2021-10-07T12:53:16Z</time>
</trkpt>
<trkpt lat="39.484996" lon="-8.225711">
<time>2021-10-07T12:53:17Z</time>
</trkpt>
<trkpt lat="39.484995" lon="-8.225757">
<time>2021-10-07T12:53:18Z</time>
</trkpt>
<trkpt lat="39.485011" lon="-8.225801">
<time>2021-10-07T12:53:19Z</time>
</trkpt>
<trkpt lat="39.485037" lon="-8.225854">
<time>2021-10-07T12:53:20Z</time>
</trkpt>
<trkpt lat="39.485065" lon="-8.225909">
<time>2021-10-07T12:53:21Z</time>
</trkpt>
<trkpt lat="39.485091" lon="-8.225965">
<time>2021-10-07T12:53:22Z</time>
</trkpt>
<trkpt lat="39.485113" lon="-8.226025">
<time>2021-10-07T12:53:23Z</time>
</trkpt>
<trkpt lat="39.485135" lon="-8.226092">
<time>2021-10-07T12:53:24Z</time>
</trkpt>
<trkpt lat="39.485163" lon="-8.226165">
<time>2021-10-07T12:53:25Z</time>
</trkpt>
<trkpt lat="39.485194" lon="-8.22624">
<time>2021-10-07T12:53:26Z</time>
</trkpt>
<trkpt lat="39.485234" lon="-8.226316">
<time>2021-10-07T12:53:27Z</time>
</trkpt>
<trkpt lat="39.485279" lon="-8.226397">
<time>2021-10-07T12:53:28Z</time>
</trkpt>
<trkpt lat="39.485334" lon="-8.226483">
<time>2021-10-07T12:53:29Z</time>
</trkpt>
<trkpt lat="39.485388" lon="-8.226575">
<time>2021-10-07T12:53:30Z</time>
</trkpt>
<trkpt lat="39.485442" lon="-8.226669">
<time>2021-10-07T12:53:31Z</time>
</trkpt>
<trkpt lat="39.485498" lon="-8.22676">
<time>2021-10-07T12:53:32Z</time>
</trkpt>
<trkpt lat="39.485555" lon="-8.226847">
<time>2021-10-07T12:53:33Z</time>
</trkpt>
<trkpt lat="39.485609" lon="-8.226926">
<time>2021-10-07T12:53:34Z</time>
</trkpt>
<trkpt lat="39.485659" lon="-8.226996">
<time>2021-10-07T12:53:35Z</time>
</trkpt>
<trkpt lat="39.485704" lon="-8.227057">
<time>2021-10-07T12:53:36Z</time>
</trkpt>
<trkpt lat="39.48574" lon="-8.227117">
<time>2021-10-07T12:53:37Z</time>
</trkpt>
<trkpt lat="39.485773" lon="-8.227169">
<time>2021-10-07T12:53:38Z</time>
</trkpt>
<trkpt lat="39.485785" lon="-8.227212">
<time>2021-10-07T12:53:39Z</time>
</trkpt>
<trkpt lat="39.485778" lon="-8.227241">
<time>2021-10-07T12:53:40Z</time>
</trkpt>
<trkpt lat="39.485757" lon="-8.227246">
<time>2021-10-07T12:53:41Z</time>
</trkpt>
<trkpt lat="39.485735" lon="-8.227237">
<time>2021-10-07T12:53:42Z</time>
</trkpt>
<trkpt lat="39.485713" lon="-8.227213">
<time>2021-10-07T12:53:43Z</time>
</trkpt>
<trkpt lat="39.485692" lon="-8.227181">
<time>2021-10-07T12:53:44Z</time>
</trkpt>
<trkpt lat="39.485663" lon="-8.227154">
<time>2021-10-07T12:53:45Z</time>
</trkpt>
<trkpt lat="39.485624" lon="-8.227137">
<time>2021-10-07T12:53:46Z</time>
</trkpt>
<trkpt lat="39.485581" lon="-8.227144">
<time>2021-10-07T12:53:47Z</time>
</trkpt>
<trkpt lat="39.485536" lon="-8.227173">
<time>2021-10-07T12:53:48Z</time>
</trkpt>
<trkpt lat="39.485486" lon="-8.227208">
<time>2021-10-07T12:53:49Z</time>
</trkpt>
<trkpt lat="39.485437" lon="-8.227245">
<time>2021-10-07T12:53:50Z</time>
</trkpt>
<trkpt lat="39.48539" lon="-8.227278">
<time>2021-10-07T12:53:51Z</time>
</trkpt>
<trkpt lat="39.485338" lon="-8.227314">
<time>2021-10-07T12:53:52Z</time>
</trkpt>
<trkpt lat="39.485286" lon="-8.227343">
<time>2021-10-07T12:53:53Z</time>
</trkpt>
<trkpt lat="39.485234" lon="-8.227367">
<time>2021-10-07T12:53:54Z</time>
</trkpt>
<trkpt lat="39.485179" lon="-8.227389">
<time>2021-10-07T12:53:55Z</time>
</trkpt>
<trkpt lat="39.485126" lon="-8.227404">
<time>2021-10-07T12:53:56Z</time>
</trkpt>
<trkpt lat="39.485076" lon="-8.22742">
<time>2021-10-07T12:53:57Z</time>
</trkpt>
<trkpt lat="39.48503" lon="-8.227436">
<time>2021-10-07T12:53:58Z</time>
</trkpt>
<trkpt lat="39.484992" lon="-8.227451">
<time>2021-10-07T12:53:59Z</time>
</trkpt>
<trkpt lat="39.484967" lon="-8.227475">
<time>2021-10-07T12:54:00Z</time>
</trkpt>
<trkpt lat="39.484964" lon="-8.227513">
<time>2021-10-07T12:54:01Z</time>
</trkpt>
<trkpt lat="39.484976" lon="-8.227573">
<time>2021-10-07T12:54:02Z</time>
</trkpt>
<trkpt lat="39.485001" lon="-8.227646">
<time>2021-10-07T12:54:03Z</time>
</trkpt>
<trkpt lat="39.485035" lon="-8.227734">
<time>2021-10-07T12:54:04Z</time>
</trkpt>
<trkpt lat="39.485087" lon="-8.227822">
<time>2021-10-07T12:54:05Z</time>
</trkpt>
<trkpt lat="39.485137" lon="-8.227922">
<time>2021-10-07T12:54:06Z</time>
</trkpt>
<trkpt lat="39.485184" lon="-8.22803">
<time>2021-10-07T12:54:07Z</time>
</trkpt>
<trkpt lat="39.485232" lon="-8.228136">
<time>2021-10-07T12:54:08Z</time>
</trkpt>
<trkpt lat="39.485276" lon="-8.228235">
<time>2021-10-07T12:54:09Z</time>
</trkpt>
<trkpt lat="39.485318" lon="-8.228322">
<time>2021-10-07T12:54:10Z</time>
</trkpt>
<trkpt lat="39.485354" lon="-8.228398">
<time>2021-10-07T12:54:11Z</time>
</trkpt>
<trkpt lat="39.48538" lon="-8.228468">
<time>2021-10-07T12:54:12Z</time>
</trkpt>
<trkpt lat="39.485394" lon="-8.228532">
<time>2021-10-07T12:54:13Z</time>
</trkpt>
<trkpt lat="39.485391" lon="-8.228584">
<time>2021-10-07T12:54:14Z</time>
</trkpt>
<trkpt lat="39.485369" lon="-8.228619">
<time>2021-10-07T12:54:15Z</time>
</trkpt>
<trkpt lat="39.48534" lon="-8.228639">
<time>2021-10-07T12:54:16Z</time>
</trkpt>
<trkpt lat="39.485305" lon="-8.228656">
<time>2021-10-07T12:54:17Z</time>
</trkpt>
<trkpt lat="39.48526" lon="-8.228684">
<time>2021-10-07T12:54:18Z</time>
</trkpt>
<trkpt lat="39.48521" lon="-8.228722">
<time>2021-10-07T12:54:19Z</time>
</trkpt>
<trkpt lat="39.485155" lon="-8.228766">
<time>2021-10-07T12:54:20Z</time>
</trkpt>
<trkpt lat="39.48509" lon="-8.228817">
<time>2021-10-07T12:54:21Z</time>
</trkpt>
<trkpt lat="39.485017" lon="-8.228857">
<time>2021-10-07T12:54:22Z</time>
</trkpt>
<trkpt lat="39.484942" lon="-8.228876">
<time>2021-10-07T12:54:23Z</time>
</trkpt>
<trkpt lat="39.484869" lon="-8.228874">
<time>2021-10-07T12:54:24Z</time>
</trkpt>
<trkpt lat="39.484799" lon="-8.228855">
<time>2021-10-07T12:54:25Z</time>
</trkpt>
<trkpt lat="39.484736" lon="-8.22883">
<time>2021-10-07T12:54:26Z</time>
</trkpt>
<trkpt lat="39.484673" lon="-8.228815">
<time>2021-10-07T12:54:27Z</time>
</trkpt>
<trkpt lat="39.484608" lon="-8.228821">
<time>2021-10-07T12:54:28Z</time>
</trkpt>
<trkpt lat="39.484546" lon="-8.228841">
<time>2021-10-07T12:54:29Z</time>
</trkpt>
<trkpt lat="39.484481" lon="-8.22887">
<time>2021-10-07T12:54:30Z</time>
</trkpt>
<trkpt lat="39.484416" lon="-8.228907">
<time>2021-10-07T12:54:31Z</time>
</trkpt>
<trkpt lat="39.484351" lon="-8.228954">
<time>2021-10-07T12:54:32Z</time>
</trkpt>
<trkpt lat="39.484287" lon="-8.228998">
<time>2021-10-07T12:54:33Z</time>
</trkpt>
<trkpt lat="39.484231" lon="-8.229016">
<time>2021-10-07T12:54:34Z</time>
</trkpt>
<trkpt lat="39.484175" lon="-8.229017">
<time>2021-10-07T12:54:35Z</time>
</trkpt>
<trkpt lat="39.484122" lon="-8.229002">
<time>2021-10-07T12:54:36Z</time>
</trkpt>
<trkpt lat="39.484077" lon="-8.228967">
<time>2021-10-07T12:54:37Z</time>
</trkpt>
<trkpt lat="39.484042" lon="-8.228913">
<time>2021-10-07T12:54:38Z</time>
</trkpt>
<trkpt lat="39.484018" lon="-8.22886">
<time>2021-10-07T12:54:39Z</time>
</trkpt>
<trkpt lat="39.483992" lon="-8.228823">
<time>2021-10-07T12:54:40Z</time>
</trkpt>
<trkpt lat="39.483972" lon="-8.228814">
<time>2021-10-07T12:54:41Z</time>
</trkpt>
<trkpt lat="39.483953" lon="-8.228835">
<time>2021-10-07T12:54:42Z</time>
</trkpt>
<trkpt lat="39.483938" lon="-8.228864">
<time>2021-10-07T12:54:43Z</time>
</trkpt>
<trkpt lat="39.483921" lon="-8.228908">
<time>2021-10-07T12:54:44Z</time>
</trkpt>
<trkpt lat="39.483899" lon="-8.22897">
<time>2021-10-07T12:54:45Z</time>
</trkpt>
<trkpt lat="39.483865" lon="-8.229031">
<time>2021-10-07T12:54:46Z</time>
</trkpt>
<trkpt lat="39.483819" lon="-8.229091">
<time>2021-10-07T12:54:47Z</time>
</trkpt>
<trkpt lat="39.483766" lon="-8.229157">
<time>2021-10-07T12:54:48Z</time>
</trkpt>
<trkpt lat="39.483708" lon="-8.229219">
<time>2021-10-07T12:54:49Z</time>
</trkpt>
<trkpt lat="39.483647" lon="-8.22928">
<time>2021-10-07T12:54:50Z</time>
</trkpt>
<trkpt lat="39.483588" lon="-8.229343">
<time>2021-10-07T12:54:51Z</time>
</trkpt>
<trkpt lat="39.483531" lon="-8.22941">
<time>2021-10-07T12:54:52Z</time>
</trkpt>
<trkpt lat="39.483476" lon="-8.229476">
<time>2021-10-07T12:54:53Z</time>
</trkpt>
<trkpt lat="39.48342" lon="-8.229544">
<time>2021-10-07T12:54:54Z</time>
</trkpt>
<trkpt lat="39.483366" lon="-8.229611">
<time>2021-10-07T12:54:55Z</time>
</trkpt>
<trkpt lat="39.483309" lon="-8.229676">
<time>2021-10-07T12:54:56Z</time>
</trkpt>
<trkpt lat="39.483252" lon="-8.229737">
<time>2021-10-07T12:54:57Z</time>
</trkpt>
<trkpt lat="39.4832" lon="-8.229805">
<time>2021-10-07T12:54:58Z</time>
</trkpt>
<trkpt lat="39.483155" lon="-8.22988">
<time>2021-10-07T12:54:59Z</time>
</trkpt>
<trkpt lat="39.483112" lon="-8.229954">
<time>2021-10-07T12:55:00Z</time>
</trkpt>
<trkpt lat="39.483065" lon="-8.230011">
<time>2021-10-07T12:55:01Z</time>
</trkpt>
<trkpt lat="39.483004" lon="-8.230043">
<time>2021-10-07T12:55:02Z</time>
</trkpt>
<trkpt lat="39.482934" lon="-8.230063">
<time>2021-10-07T12:55:03Z</time>
</trkpt>
<trkpt lat="39.482863" lon="-8.230087">
<time>2021-10-07T12:55:04Z</time>
</trkpt>
<trkpt lat="39.482792" lon="-8.230112">
<time>2021-10-07T12:55:05Z</time>
</trkpt>
<trkpt lat="39.48272" lon="-8.23013">
<time>2021-10-07T12:55:06Z</time>
</trkpt>
<trkpt lat="39.482645" lon="-8.23015">
<time>2021-10-07T12:55:07Z</time>
</trkpt>
<trkpt lat="39.482572" lon="-8.230167">
<time>2021-10-07T12:55:08Z</time>
</trkpt>
<trkpt lat="39.482502" lon="-8.230183">
<time>2021-10-07T12:55:09Z</time>
</trkpt>
<trkpt lat="39.482432" lon="-8.230198">
<time>2021-10-07T12:55:10Z</time>
</trkpt>
<trkpt lat="39.482361" lon="-8.230218">
<time>2021-10-07T12:55:11Z</time>
</trkpt>
<trkpt lat="39.482291" lon="-8.23024">
<time>2021-10-07T12:55:12Z</time>
</trkpt>
<trkpt lat="39.482224" lon="-8.230264">
<time>2021-10-07T12:55:13Z</time>
</trkpt>
<trkpt lat="39.482158" lon="-8.230294">
<time>2021-10-07T12:55:14Z</time>
</trkpt>
<trkpt lat="39.482094" lon="-8.230332">
<time>2021-10-07T12:55:15Z</time>
</trkpt>
<trkpt lat="39.482031" lon="-8.230374">
<time>2021-10-07T12:55:16Z</time>
</trkpt>
<trkpt lat="39.481962" lon="-8.23042">
<time>2021-10-07T12:55:17Z</time>
</trkpt>
<trkpt lat="39.481896" lon="-8.230463">
<time>2021-10-07T12:55:18Z</time>
</trkpt>
<trkpt lat="39.481828" lon="-8.230507">
<time>2021-10-07T12:55:19Z</time>
</trkpt>
<trkpt lat="39.481759" lon="-8.230543">
<time>2021-10-07T12:55:20Z</time>
</trkpt>
<trkpt lat="39.48169" lon="-8.230567">
<time>2021-10-07T12:55:21Z</time>
</trkpt>
<trkpt lat="39.481623" lon="-8.230588">
<time>2021-10-07T12:55:22Z</time>
</trkpt>
<trkpt lat="39.481555" lon="-8.230605">
<time>2021-10-07T12:55:23Z</time>
</trkpt>
<trkpt lat="39.481491" lon="-8.230624">
<time>2021-10-07T12:55:24Z</time>
</trkpt>
<trkpt lat="39.481426" lon="-8.230653">
<time>2021-10-07T12:55:25Z</time>
</trkpt>
<trkpt lat="39.481362" lon="-8.230683">
<time>2021-10-07T12:55:26Z</time>
</trkpt>
<trkpt lat="39.481298" lon="-8.230706">
<time>2021-10-07T12:55:27Z</time>
</trkpt>
<trkpt lat="39.481232" lon="-8.230728">
<time>2021-10-07T12:55:28Z</time>
</trkpt>
<trkpt lat="39.481166" lon="-8.230744">
<time>2021-10-07T12:55:29Z</time>
</trkpt>
<trkpt lat="39.481098" lon="-8.230761">
<time>2021-10-07T12:55:30Z</time>
</trkpt>
<trkpt lat="39.481031" lon="-8.230783">
<time>2021-10-07T12:55:31Z</time>
</trkpt>
<trkpt lat="39.480965" lon="-8.230803">
<time>2021-10-07T12:55:32Z</time>
</trkpt>
<trkpt lat="39.480898" lon="-8.230822">
<time>2021-10-07T12:55:33Z</time>
</trkpt>
<trkpt lat="39.480833" lon="-8.230843">
<time>2021-10-07T12:55:34Z</time>
</trkpt>
<trkpt lat="39.480766" lon="-8.230869">
<time>2021-10-07T12:55:35Z</time>
</trkpt>
<trkpt lat="39.480701" lon="-8.230897">
<time>2021-10-07T12:55:36Z</time>
</trkpt>
<trkpt lat="39.480635" lon="-8.230924">
<time>2021-10-07T12:55:37Z</time>
</trkpt>
<trkpt lat="39.48057" lon="-8.230945">
<time>2021-10-07T12:55:38Z</time>
</trkpt>
<trkpt lat="39.480507" lon="-8.230951">
<time>2021-10-07T12:55:39Z</time>
</trkpt>
<trkpt lat="39.480447" lon="-8.230957">
<time>2021-10-07T12:55:40Z</time>
</trkpt>
<trkpt lat="39.480387" lon="-8.230963">
<time>2021-10-07T12:55:41Z</time>
</trkpt>
<trkpt lat="39.48033" lon="-8.230965">
<time>2021-10-07T12:55:42Z</time>
</trkpt>
<trkpt lat="39.480273" lon="-8.230969">
<time>2021-10-07T12:55:43Z</time>
</trkpt>
<trkpt lat="39.480219" lon="-8.230967">
<time>2021-10-07T12:55:44Z</time>
</trkpt>
<trkpt lat="39.480165" lon="-8.230959">
<time>2021-10-07T12:55:45Z</time>
</trkpt>
<trkpt lat="39.48011" lon="-8.230952">
<time>2021-10-07T12:55:46Z</time>
</trkpt>
<trkpt lat="39.480053" lon="-8.230952">
<time>2021-10-07T12:55:47Z</time>
</trkpt>
<trkpt lat="39.479995" lon="-8.230965">
<time>2021-10-07T12:55:48Z</time>
</trkpt>
<trkpt lat="39.479933" lon="-8.230993">
<time>2021-10-07T12:55:49Z</time>
</trkpt>
<trkpt lat="39.479865" lon="-8.231025">
<time>2021-10-07T12:55:50Z</time>
</trkpt>
<trkpt lat="39.479792" lon="-8.231048">
<time>2021-10-07T12:55:51Z</time>
</trkpt>
<trkpt lat="39.479718" lon="-8.231055">
<time>2021-10-07T12:55:52Z</time>
</trkpt>
<trkpt lat="39.479645" lon="-8.231054">
<time>2021-10-07T12:55:53Z</time>
</trkpt>
<trkpt lat="39.479577" lon="-8.23105">
<time>2021-10-07T12:55:54Z</time>
</trkpt>
<trkpt lat="39.479512" lon="-8.231044">
<time>2021-10-07T12:55:55Z</time>
</trkpt>
<trkpt lat="39.479453" lon="-8.231037">
<time>2021-10-07T12:55:56Z</time>
</trkpt>
<trkpt lat="39.479392" lon="-8.231042">
<time>2021-10-07T12:55:57Z</time>
</trkpt>
<trkpt lat="39.479345" lon="-8.231056">
<time>2021-10-07T12:55:58Z</time>
</trkpt>
<trkpt lat="39.479307" lon="-8.231032">
<time>2021-10-07T12:55:59Z</time>
</trkpt>
<trkpt lat="39.479287" lon="-8.231">
<time>2021-10-07T12:56:00Z</time>
</trkpt>
<trkpt lat="39.479271" lon="-8.230958">
<time>2021-10-07T12:56:01Z</time>
</trkpt>
<trkpt lat="39.479261" lon="-8.230912">
<time>2021-10-07T12:56:02Z</time>
</trkpt>
<trkpt lat="39.479255" lon="-8.230869">
<time>2021-10-07T12:56:03Z</time>
</trkpt>
<trkpt lat="39.479256" lon="-8.230824">
<time>2021-10-07T12:56:04Z</time>
</trkpt>
<trkpt lat="39.479251" lon="-8.230779">
<time>2021-10-07T12:56:05Z</time>
</trkpt>
<trkpt lat="39.479246" lon="-8.230728">
<time>2021-10-07T12:56:06Z</time>
</trkpt>
<trkpt lat="39.479243" lon="-8.23068">
<time>2021-10-07T12:56:07Z</time>
</trkpt>
<trkpt lat="39.479238" lon="-8.230631">
<time>2021-10-07T12:56:08Z</time>
</trkpt>
<trkpt lat="39.479228" lon="-8.230584">
<time>2021-10-07T12:56:09Z</time>
</trkpt>
<trkpt lat="39.479222" lon="-8.23054">
<time>2021-10-07T12:56:10Z</time>
</trkpt>
<trkpt lat="39.4792" lon="-8.230501">
<time>2021-10-07T12:56:11Z</time>
</trkpt>
<trkpt lat="39.479175" lon="-8.23046">
<time>2021-10-07T12:56:12Z</time>
</trkpt>
<trkpt lat="39.479149" lon="-8.230416">
<time>2021-10-07T12:56:13Z</time>
</trkpt>
<trkpt lat="39.479131" lon="-8.230372">
<time>2021-10-07T12:56:14Z</time>
</trkpt>
<trkpt lat="39.479115" lon="-8.23033">
<time>2021-10-07T12:56:15Z</time>
</trkpt>
<trkpt lat="39.479103" lon="-8.230291">
<time>2021-10-07T12:56:16Z</time>
</trkpt>
<trkpt lat="39.47909" lon="-8.230255">
<time>2021-10-07T12:56:17Z</time>
</trkpt>
<trkpt lat="39.479077" lon="-8.230224">
<time>2021-10-07T12:56:18Z</time>
</trkpt>
<trkpt lat="39.479063" lon="-8.230194">
<time>2021-10-07T12:56:19Z</time>
</trkpt>
<trkpt lat="39.479036" lon="-8.230176">
<time>2021-10-07T12:56:20Z</time>
</trkpt>
<trkpt lat="39.479014" lon="-8.230154">
<time>2021-10-07T12:56:21Z</time>
</trkpt>
<trkpt lat="39.478994" lon="-8.230125">
<time>2021-10-07T12:56:22Z</time>
</trkpt>
<trkpt lat="39.478969" lon="-8.230104">
<time>2021-10-07T12:56:23Z</time>
</trkpt>
<trkpt lat="39.478952" lon="-8.230081">
<time>2021-10-07T12:56:24Z</time>
</trkpt>
<trkpt lat="39.478936" lon="-8.230057">
<time>2021-10-07T12:56:25Z</time>
</trkpt>
<trkpt lat="39.478918" lon="-8.230041">
<time>2021-10-07T12:56:26Z</time>
</trkpt>
<trkpt lat="39.478896" lon="-8.230033">
<time>2021-10-07T12:56:27Z</time>
</trkpt>
<trkpt lat="39.478875" lon="-8.230024">
<time>2021-10-07T12:56:28Z</time>
</trkpt>
<trkpt lat="39.47885" lon="-8.230017">
<time>2021-10-07T12:56:29Z</time>
</trkpt>
<trkpt lat="39.478823" lon="-8.230009">
<time>2021-10-07T12:56:30Z</time>
</trkpt>
<trkpt lat="39.478797" lon="-8.229998">
<time>2021-10-07T12:56:31Z</time>
</trkpt>
<trkpt lat="39.478771" lon="-8.229981">
<time>2021-10-07T12:56:32Z</time>
</trkpt>
<trkpt lat="39.478744" lon="-8.229962">
<time>2021-10-07T12:56:33Z</time>
</trkpt>
<trkpt lat="39.478718" lon="-8.229941">
<time>2021-10-07T12:56:34Z</time>
</trkpt>
<trkpt lat="39.478694" lon="-8.229914">
<time>2021-10-07T12:56:35Z</time>
</trkpt>
<trkpt lat="39.478671" lon="-8.229886">
<time>2021-10-07T12:56:36Z</time>
</trkpt>
<trkpt lat="39.478646" lon="-8.229855">
<time>2021-10-07T12:56:37Z</time>
</trkpt>
<trkpt lat="39.478623" lon="-8.229821">
<time>2021-10-07T12:56:38Z</time>
</trkpt>
<trkpt lat="39.478597" lon="-8.229791">
<time>2021-10-07T12:56:39Z</time>
</trkpt>
<trkpt lat="39.478568" lon="-8.229759">
<time>2021-10-07T12:56:40Z</time>
</trkpt>
<trkpt lat="39.478539" lon="-8.229729">
<time>2021-10-07T12:56:41Z</time>
</trkpt>
<trkpt lat="39.478511" lon="-8.229691">
<time>2021-10-07T12:56:42Z</time>
</trkpt>
<trkpt lat="39.478483" lon="-8.229655">
<time>2021-10-07T12:56:43Z</time>
</trkpt>
<trkpt lat="39.478457" lon="-8.229621">
<time>2021-10-07T12:56:44Z</time>
</trkpt>
<trkpt lat="39.478425" lon="-8.229591">
<time>2021-10-07T12:56:45Z</time>
</trkpt>
<trkpt lat="39.47839" lon="-8.229559">
<time>2021-10-07T12:56:46Z</time>
</trkpt>
<trkpt lat="39.478358" lon="-8.229514">
<time>2021-10-07T12:56:47Z</time>
</trkpt>
<trkpt lat="39.478329" lon="-8.229463">
<time>2021-10-07T12:56:48Z</time>
</trkpt>
<trkpt lat="39.47831" lon="-8.229395">
<time>2021-10-07T12:56:49Z</time>
</trkpt>
<trkpt lat="39.478302" lon="-8.229312">
<time>2021-10-07T12:56:50Z</time>
</trkpt>
<trkpt lat="39.478308" lon="-8.229221">
<time>2021-10-07T12:56:51Z</time>
</trkpt>
<trkpt lat="39.478327" lon="-8.229122">
<time>2021-10-07T12:56:52Z</time>
</trkpt>
<trkpt lat="39.478351" lon="-8.229016">
<time>2021-10-07T12:56:53Z</time>
</trkpt>
<trkpt lat="39.478383" lon="-8.228911">
<time>2021-10-07T12:56:54Z</time>
</trkpt>
<trkpt lat="39.478422" lon="-8.228797">
<time>2021-10-07T12:56:55Z</time>
</trkpt>
<trkpt lat="39.478468" lon="-8.228681">
<time>2021-10-07T12:56:56Z</time>
</trkpt>
<trkpt lat="39.478514" lon="-8.228559">
<time>2021-10-07T12:56:57Z</time>
</trkpt>
<trkpt lat="39.478558" lon="-8.228437">
<time>2021-10-07T12:56:58Z</time>
</trkpt>
<trkpt lat="39.478603" lon="-8.228314">
<time>2021-10-07T12:56:59Z</time>
</trkpt>
<trkpt lat="39.478647" lon="-8.228187">
<time>2021-10-07T12:57:00Z</time>
</trkpt>
<trkpt lat="39.478691" lon="-8.228067">
<time>2021-10-07T12:57:01Z</time>
</trkpt>
<trkpt lat="39.478735" lon="-8.227951">
<time>2021-10-07T12:57:02Z</time>
</trkpt>
<trkpt lat="39.478777" lon="-8.227838">
<time>2021-10-07T12:57:03Z</time>
</trkpt>
<trkpt lat="39.478817" lon="-8.227721">
<time>2021-10-07T12:57:04Z</time>
</trkpt>
<trkpt lat="39.478865" lon="-8.227612">
<time>2021-10-07T12:57:05Z</time>
</trkpt>
<trkpt lat="39.478914" lon="-8.227507">
<time>2021-10-07T12:57:06Z</time>
</trkpt>
<trkpt lat="39.47896" lon="-8.227407">
<time>2021-10-07T12:57:07Z</time>
</trkpt>
<trkpt lat="39.479002" lon="-8.227311">
<time>2021-10-07T12:57:08Z</time>
</trkpt>
<trkpt lat="39.47903" lon="-8.227228">
<time>2021-10-07T12:57:09Z</time>
</trkpt>
<trkpt lat="39.479047" lon="-8.227154">
<time>2021-10-07T12:57:10Z</time>
</trkpt>
<trkpt lat="39.479048" lon="-8.22709">
<time>2021-10-07T12:57:11Z</time>
</trkpt>
<trkpt lat="39.479031" lon="-8.227044">
<time>2021-10-07T12:57:12Z</time>
</trkpt>
<trkpt lat="39.479006" lon="-8.227">
<time>2021-10-07T12:57:13Z</time>
</trkpt>
<trkpt lat="39.478976" lon="-8.226912">
<time>2021-10-07T12:57:14Z</time>
</trkpt>
<trkpt lat="39.478947" lon="-8.226815">
<time>2021-10-07T12:57:15Z</time>
</trkpt>
<trkpt lat="39.478911" lon="-8.226701">
<time>2021-10-07T12:57:16Z</time>
</trkpt>
<trkpt lat="39.478832" lon="-8.226479">
<time>2021-10-07T12:57:17Z</time>
</trkpt>
<trkpt lat="39.478832" lon="-8.226479">
<time>2021-10-07T12:57:18Z</time>
</trkpt>
<trkpt lat="39.478795" lon="-8.226383">
<time>2021-10-07T12:57:19Z</time>
</trkpt>
<trkpt lat="39.478765" lon="-8.226292">
<time>2021-10-07T12:57:20Z</time>
</trkpt>
<trkpt lat="39.478754" lon="-8.226216">
<time>2021-10-07T12:57:21Z</time>
</trkpt>
<trkpt lat="39.478768" lon="-8.226143">
<time>2021-10-07T12:57:22Z</time>
</trkpt>
<trkpt lat="39.478805" lon="-8.226079">
<time>2021-10-07T12:57:23Z</time>
</trkpt>
<trkpt lat="39.478854" lon="-8.226019">
<time>2021-10-07T12:57:24Z</time>
</trkpt>
<trkpt lat="39.478905" lon="-8.225956">
<time>2021-10-07T12:57:25Z</time>
</trkpt>
<trkpt lat="39.478965" lon="-8.225903">
<time>2021-10-07T12:57:26Z</time>
</trkpt>
<trkpt lat="39.479018" lon="-8.225825">
<time>2021-10-07T12:57:27Z</time>
</trkpt>
<trkpt lat="39.479076" lon="-8.225758">
<time>2021-10-07T12:57:28Z</time>
</trkpt>
<trkpt lat="39.479126" lon="-8.225679">
<time>2021-10-07T12:57:29Z</time>
</trkpt>
<trkpt lat="39.47918" lon="-8.2256">
<time>2021-10-07T12:57:30Z</time>
</trkpt>
<trkpt lat="39.479236" lon="-8.225519">
<time>2021-10-07T12:57:31Z</time>
</trkpt>
<trkpt lat="39.479291" lon="-8.225438">
<time>2021-10-07T12:57:32Z</time>
</trkpt>
<trkpt lat="39.479344" lon="-8.225359">
<time>2021-10-07T12:57:33Z</time>
</trkpt>
<trkpt lat="39.479393" lon="-8.225276">
<time>2021-10-07T12:57:34Z</time>
</trkpt>
<trkpt lat="39.479445" lon="-8.225194">
<time>2021-10-07T12:57:35Z</time>
</trkpt>
<trkpt lat="39.479496" lon="-8.225111">
<time>2021-10-07T12:57:36Z</time>
</trkpt>
<trkpt lat="39.479549" lon="-8.22503">
<time>2021-10-07T12:57:37Z</time>
</trkpt>
<trkpt lat="39.479602" lon="-8.224954">
<time>2021-10-07T12:57:38Z</time>
</trkpt>
<trkpt lat="39.479655" lon="-8.224874">
<time>2021-10-07T12:57:39Z</time>
</trkpt>
<trkpt lat="39.479687" lon="-8.224784">
<time>2021-10-07T12:57:40Z</time>
</trkpt>
<trkpt lat="39.479696" lon="-8.224689">
<time>2021-10-07T12:57:41Z</time>
</trkpt>
<trkpt lat="39.479672" lon="-8.224595">
<time>2021-10-07T12:57:42Z</time>
</trkpt>
<trkpt lat="39.479632" lon="-8.224501">
<time>2021-10-07T12:57:43Z</time>
</trkpt>
<trkpt lat="39.479585" lon="-8.224411">
<time>2021-10-07T12:57:44Z</time>
</trkpt>
<trkpt lat="39.479534" lon="-8.224323">
<time>2021-10-07T12:57:45Z</time>
</trkpt>
<trkpt lat="39.479484" lon="-8.224239">
<time>2021-10-07T12:57:46Z</time>
</trkpt>
<trkpt lat="39.479431" lon="-8.224156">
<time>2021-10-07T12:57:47Z</time>
</trkpt>
<trkpt lat="39.479377" lon="-8.224074">
<time>2021-10-07T12:57:48Z</time>
</trkpt>
<trkpt lat="39.479322" lon="-8.223995">
<time>2021-10-07T12:57:49Z</time>
</trkpt>
<trkpt lat="39.479269" lon="-8.223916">
<time>2021-10-07T12:57:50Z</time>
</trkpt>
<trkpt lat="39.479217" lon="-8.223832">
<time>2021-10-07T12:57:51Z</time>
</trkpt>
<trkpt lat="39.479163" lon="-8.22374">
<time>2021-10-07T12:57:52Z</time>
</trkpt>
<trkpt lat="39.479107" lon="-8.223644">
<time>2021-10-07T12:57:53Z</time>
</trkpt>
<trkpt lat="39.479044" lon="-8.223547">
<time>2021-10-07T12:57:54Z</time>
</trkpt>
<trkpt lat="39.478976" lon="-8.223443">
<time>2021-10-07T12:57:55Z</time>
</trkpt>
<trkpt lat="39.478906" lon="-8.223337">
<time>2021-10-07T12:57:56Z</time>
</trkpt>
<trkpt lat="39.478833" lon="-8.223232">
<time>2021-10-07T12:57:57Z</time>
</trkpt>
<trkpt lat="39.47876" lon="-8.223129">
<time>2021-10-07T12:57:58Z</time>
</trkpt>
<trkpt lat="39.478682" lon="-8.223033">
<time>2021-10-07T12:57:59Z</time>
</trkpt>
<trkpt lat="39.478604" lon="-8.222942">
<time>2021-10-07T12:58:00Z</time>
</trkpt>
<trkpt lat="39.478526" lon="-8.222851">
<time>2021-10-07T12:58:01Z</time>
</trkpt>
<trkpt lat="39.478454" lon="-8.222763">
<time>2021-10-07T12:58:02Z</time>
</trkpt>
<trkpt lat="39.478387" lon="-8.222672">
<time>2021-10-07T12:58:03Z</time>
</trkpt>
<trkpt lat="39.478318" lon="-8.222581">
<time>2021-10-07T12:58:04Z</time>
</trkpt>
<trkpt lat="39.478248" lon="-8.222494">
<time>2021-10-07T12:58:05Z</time>
</trkpt>
<trkpt lat="39.478177" lon="-8.222422">
<time>2021-10-07T12:58:06Z</time>
</trkpt>
<trkpt lat="39.478107" lon="-8.222361">
<time>2021-10-07T12:58:07Z</time>
</trkpt>
<trkpt lat="39.478032" lon="-8.222303">
<time>2021-10-07T12:58:08Z</time>
</trkpt>
<trkpt lat="39.477959" lon="-8.222244">
<time>2021-10-07T12:58:09Z</time>
</trkpt>
<trkpt lat="39.477884" lon="-8.222186">
<time>2021-10-07T12:58:10Z</time>
</trkpt>
<trkpt lat="39.477807" lon="-8.222137">
<time>2021-10-07T12:58:11Z</time>
</trkpt>
<trkpt lat="39.477733" lon="-8.222098">
<time>2021-10-07T12:58:12Z</time>
</trkpt>
<trkpt lat="39.477667" lon="-8.222055">
<time>2021-10-07T12:58:13Z</time>
</trkpt>
<trkpt lat="39.477616" lon="-8.222">
<time>2021-10-07T12:58:14Z</time>
</trkpt>
<trkpt lat="39.477579" lon="-8.221936">
<time>2021-10-07T12:58:15Z</time>
</trkpt>
<trkpt lat="39.477563" lon="-8.221877">
<time>2021-10-07T12:58:16Z</time>
</trkpt>
<trkpt lat="39.477567" lon="-8.221843">
<time>2021-10-07T12:58:17Z</time>
</trkpt>
<trkpt lat="39.47758" lon="-8.221807">
<time>2021-10-07T12:58:18Z</time>
</trkpt>
<trkpt lat="39.477612" lon="-8.221782">
<time>2021-10-07T12:58:19Z</time>
</trkpt>
<trkpt lat="39.47766" lon="-8.221731">
<time>2021-10-07T12:58:20Z</time>
</trkpt>
<trkpt lat="39.477672" lon="-8.221629">
<time>2021-10-07T12:58:21Z</time>
</trkpt>
<trkpt lat="39.477652" lon="-8.221551">
<time>2021-10-07T12:58:22Z</time>
</trkpt>
<trkpt lat="39.477616" lon="-8.221489">
<time>2021-10-07T12:58:23Z</time>
</trkpt>
<trkpt lat="39.47757" lon="-8.221433">
<time>2021-10-07T12:58:24Z</time>
</trkpt>
<trkpt lat="39.477515" lon="-8.221376">
<time>2021-10-07T12:58:25Z</time>
</trkpt>
<trkpt lat="39.477458" lon="-8.221322">
<time>2021-10-07T12:58:26Z</time>
</trkpt>
<trkpt lat="39.477402" lon="-8.22127">
<time>2021-10-07T12:58:27Z</time>
</trkpt>
<trkpt lat="39.477346" lon="-8.221223">
<time>2021-10-07T12:58:28Z</time>
</trkpt>
<trkpt lat="39.477291" lon="-8.221173">
<time>2021-10-07T12:58:29Z</time>
</trkpt>
<trkpt lat="39.477234" lon="-8.221132">
<time>2021-10-07T12:58:30Z</time>
</trkpt>
<trkpt lat="39.477181" lon="-8.221098">
<time>2021-10-07T12:58:31Z</time>
</trkpt>
<trkpt lat="39.477133" lon="-8.221067">
<time>2021-10-07T12:58:32Z</time>
</trkpt>
<trkpt lat="39.477086" lon="-8.221035">
<time>2021-10-07T12:58:33Z</time>
</trkpt>
<trkpt lat="39.477043" lon="-8.221006">
<time>2021-10-07T12:58:34Z</time>
</trkpt>
<trkpt lat="39.477002" lon="-8.220981">
<time>2021-10-07T12:58:35Z</time>
</trkpt>
<trkpt lat="39.476964" lon="-8.220957">
<time>2021-10-07T12:58:36Z</time>
</trkpt>
<trkpt lat="39.476926" lon="-8.220937">
<time>2021-10-07T12:58:37Z</time>
</trkpt>
<trkpt lat="39.476889" lon="-8.220919">
<time>2021-10-07T12:58:38Z</time>
</trkpt>
<trkpt lat="39.476851" lon="-8.2209">
<time>2021-10-07T12:58:39Z</time>
</trkpt>
<trkpt lat="39.476814" lon="-8.220882">
<time>2021-10-07T12:58:40Z</time>
</trkpt>
<trkpt lat="39.476774" lon="-8.220868">
<time>2021-10-07T12:58:41Z</time>
</trkpt>
<trkpt lat="39.476734" lon="-8.220856">
<time>2021-10-07T12:58:42Z</time>
</trkpt>
<trkpt lat="39.476694" lon="-8.220845">
<time>2021-10-07T12:58:43Z</time>
</trkpt>
<trkpt lat="39.476656" lon="-8.220834">
<time>2021-10-07T12:58:44Z</time>
</trkpt>
<trkpt lat="39.476616" lon="-8.220828">
<time>2021-10-07T12:58:45Z</time>
</trkpt>
<trkpt lat="39.476576" lon="-8.220822">
<time>2021-10-07T12:58:46Z</time>
</trkpt>
<trkpt lat="39.476537" lon="-8.220815">
<time>2021-10-07T12:58:47Z</time>
</trkpt>
<trkpt lat="39.476497" lon="-8.22081">
<time>2021-10-07T12:58:48Z</time>
</trkpt>
<trkpt lat="39.476457" lon="-8.220802">
<time>2021-10-07T12:58:49Z</time>
</trkpt>
<trkpt lat="39.476419" lon="-8.220791">
<time>2021-10-07T12:58:50Z</time>
</trkpt>
<trkpt lat="39.476378" lon="-8.220784">
<time>2021-10-07T12:58:51Z</time>
</trkpt>
<trkpt lat="39.476337" lon="-8.220775">
<time>2021-10-07T12:58:52Z</time>
</trkpt>
<trkpt lat="39.476297" lon="-8.220762">
<time>2021-10-07T12:58:53Z</time>
</trkpt>
<trkpt lat="39.476256" lon="-8.220747">
<time>2021-10-07T12:58:54Z</time>
</trkpt>
<trkpt lat="39.476215" lon="-8.220729">
<time>2021-10-07T12:58:55Z</time>
</trkpt>
<trkpt lat="39.476175" lon="-8.220708">
<time>2021-10-07T12:58:56Z</time>
</trkpt>
<trkpt lat="39.476136" lon="-8.220683">
<time>2021-10-07T12:58:57Z</time>
</trkpt>
<trkpt lat="39.476099" lon="-8.220655">
<time>2021-10-07T12:58:58Z</time>
</trkpt>
<trkpt lat="39.476066" lon="-8.220625">
<time>2021-10-07T12:58:59Z</time>
</trkpt>
<trkpt lat="39.476036" lon="-8.220589">
<time>2021-10-07T12:59:00Z</time>
</trkpt>
<trkpt lat="39.476004" lon="-8.22055">
<time>2021-10-07T12:59:01Z</time>
</trkpt>
<trkpt lat="39.475979" lon="-8.22051">
<time>2021-10-07T12:59:02Z</time>
</trkpt>
<trkpt lat="39.47596" lon="-8.22047">
<time>2021-10-07T12:59:03Z</time>
</trkpt>
<trkpt lat="39.475939" lon="-8.220429">
<time>2021-10-07T12:59:04Z</time>
</trkpt>
<trkpt lat="39.475915" lon="-8.220386">
<time>2021-10-07T12:59:05Z</time>
</trkpt>
<trkpt lat="39.475888" lon="-8.220341">
<time>2021-10-07T12:59:06Z</time>
</trkpt>
<trkpt lat="39.475862" lon="-8.220294">
<time>2021-10-07T12:59:07Z</time>
</trkpt>
<trkpt lat="39.475838" lon="-8.220247">
<time>2021-10-07T12:59:08Z</time>
</trkpt>
<trkpt lat="39.475811" lon="-8.220202">
<time>2021-10-07T12:59:09Z</time>
</trkpt>
<trkpt lat="39.475788" lon="-8.220153">
<time>2021-10-07T12:59:10Z</time>
</trkpt>
<trkpt lat="39.475766" lon="-8.220107">
<time>2021-10-07T12:59:11Z</time>
</trkpt>
<trkpt lat="39.475743" lon="-8.220062">
<time>2021-10-07T12:59:12Z</time>
</trkpt>
<trkpt lat="39.475719" lon="-8.220019">
<time>2021-10-07T12:59:13Z</time>
</trkpt>
<trkpt lat="39.475695" lon="-8.219978">
<time>2021-10-07T12:59:14Z</time>
</trkpt>
<trkpt lat="39.475671" lon="-8.219936">
<time>2021-10-07T12:59:15Z</time>
</trkpt>
<trkpt lat="39.475649" lon="-8.2199">
<time>2021-10-07T12:59:16Z</time>
</trkpt>
<trkpt lat="39.475628" lon="-8.219868">
<time>2021-10-07T12:59:17Z</time>
</trkpt>
<trkpt lat="39.475606" lon="-8.219834">
<time>2021-10-07T12:59:18Z</time>
</trkpt>
<trkpt lat="39.475585" lon="-8.219801">
<time>2021-10-07T12:59:19Z</time>
</trkpt>
<trkpt lat="39.475564" lon="-8.219766">
<time>2021-10-07T12:59:20Z</time>
</trkpt>
<trkpt lat="39.475545" lon="-8.219728">
<time>2021-10-07T12:59:21Z</time>
</trkpt>
<trkpt lat="39.475527" lon="-8.21969">
<time>2021-10-07T12:59:22Z</time>
</trkpt>
<trkpt lat="39.475509" lon="-8.219655">
<time>2021-10-07T12:59:23Z</time>
</trkpt>
<trkpt lat="39.475488" lon="-8.219622">
<time>2021-10-07T12:59:24Z</time>
</trkpt>
<trkpt lat="39.475466" lon="-8.219589">
<time>2021-10-07T12:59:25Z</time>
</trkpt>
<trkpt lat="39.475439" lon="-8.219559">
<time>2021-10-07T12:59:26Z</time>
</trkpt>
<trkpt lat="39.475415" lon="-8.219522">
<time>2021-10-07T12:59:27Z</time>
</trkpt>
<trkpt lat="39.475394" lon="-8.219489">
<time>2021-10-07T12:59:28Z</time>
</trkpt>
<trkpt lat="39.475374" lon="-8.219455">
<time>2021-10-07T12:59:29Z</time>
</trkpt>
<trkpt lat="39.475353" lon="-8.219419">
<time>2021-10-07T12:59:30Z</time>
</trkpt>
<trkpt lat="39.475333" lon="-8.219385">
<time>2021-10-07T12:59:31Z</time>
</trkpt>
<trkpt lat="39.475313" lon="-8.219355">
<time>2021-10-07T12:59:32Z</time>
</trkpt>
<trkpt lat="39.475294" lon="-8.219326">
<time>2021-10-07T12:59:33Z</time>
</trkpt>
<trkpt lat="39.475278" lon="-8.219293">
<time>2021-10-07T12:59:34Z</time>
</trkpt>
<trkpt lat="39.475261" lon="-8.219261">
<time>2021-10-07T12:59:35Z</time>
</trkpt>
<trkpt lat="39.475241" lon="-8.219224">
<time>2021-10-07T12:59:36Z</time>
</trkpt>
<trkpt lat="39.475223" lon="-8.219187">
<time>2021-10-07T12:59:37Z</time>
</trkpt>
<trkpt lat="39.475207" lon="-8.219146">
<time>2021-10-07T12:59:38Z</time>
</trkpt>
<trkpt lat="39.475194" lon="-8.219102">
<time>2021-10-07T12:59:39Z</time>
</trkpt>
<trkpt lat="39.475185" lon="-8.21905">
<time>2021-10-07T12:59:40Z</time>
</trkpt>
<trkpt lat="39.475171" lon="-8.218998">
<time>2021-10-07T12:59:41Z</time>
</trkpt>
<trkpt lat="39.475159" lon="-8.218943">
<time>2021-10-07T12:59:42Z</time>
</trkpt>
<trkpt lat="39.475146" lon="-8.218886">
<time>2021-10-07T12:59:43Z</time>
</trkpt>
<trkpt lat="39.47513" lon="-8.21883">
<time>2021-10-07T12:59:44Z</time>
</trkpt>
<trkpt lat="39.475113" lon="-8.218773">
<time>2021-10-07T12:59:45Z</time>
</trkpt>
<trkpt lat="39.475095" lon="-8.218716">
<time>2021-10-07T12:59:46Z</time>
</trkpt>
<trkpt lat="39.475079" lon="-8.218662">
<time>2021-10-07T12:59:47Z</time>
</trkpt>
<trkpt lat="39.475062" lon="-8.218608">
<time>2021-10-07T12:59:48Z</time>
</trkpt>
<trkpt lat="39.475045" lon="-8.218555">
<time>2021-10-07T12:59:49Z</time>
</trkpt>
<trkpt lat="39.475028" lon="-8.218504">
<time>2021-10-07T12:59:50Z</time>
</trkpt>
<trkpt lat="39.475011" lon="-8.218454">
<time>2021-10-07T12:59:51Z</time>
</trkpt>
<trkpt lat="39.474994" lon="-8.218406">
<time>2021-10-07T12:59:52Z</time>
</trkpt>
<trkpt lat="39.474977" lon="-8.218356">
<time>2021-10-07T12:59:53Z</time>
</trkpt>
<trkpt lat="39.474959" lon="-8.218307">
<time>2021-10-07T12:59:54Z</time>
</trkpt>
<trkpt lat="39.474943" lon="-8.218256">
<time>2021-10-07T12:59:55Z</time>
</trkpt>
<trkpt lat="39.474927" lon="-8.218208">
<time>2021-10-07T12:59:56Z</time>
</trkpt>
<trkpt lat="39.474911" lon="-8.218161">
<time>2021-10-07T12:59:57Z</time>
</trkpt>
<trkpt lat="39.474895" lon="-8.218116">
<time>2021-10-07T12:59:58Z</time>
</trkpt>
<trkpt lat="39.474878" lon="-8.218074">
<time>2021-10-07T12:59:59Z</time>
</trkpt>
<trkpt lat="39.474863" lon="-8.218035">
<time>2021-10-07T13:00:00Z</time>
</trkpt>
<trkpt lat="39.474849" lon="-8.217996">
<time>2021-10-07T13:00:01Z</time>
</trkpt>
<trkpt lat="39.474836" lon="-8.217957">
<time>2021-10-07T13:00:02Z</time>
</trkpt>
<trkpt lat="39.474822" lon="-8.217919">
<time>2021-10-07T13:00:03Z</time>
</trkpt>
<trkpt lat="39.474807" lon="-8.217881">
<time>2021-10-07T13:00:04Z</time>
</trkpt>
<trkpt lat="39.474795" lon="-8.21784">
<time>2021-10-07T13:00:05Z</time>
</trkpt>
<trkpt lat="39.474785" lon="-8.217799">
<time>2021-10-07T13:00:06Z</time>
</trkpt>
<trkpt lat="39.474773" lon="-8.217758">
<time>2021-10-07T13:00:07Z</time>
</trkpt>
<trkpt lat="39.474757" lon="-8.217722">
<time>2021-10-07T13:00:08Z</time>
</trkpt>
<trkpt lat="39.474744" lon="-8.217682">
<time>2021-10-07T13:00:09Z</time>
</trkpt>
<trkpt lat="39.474734" lon="-8.217639">
<time>2021-10-07T13:00:10Z</time>
</trkpt>
<trkpt lat="39.474725" lon="-8.217598">
<time>2021-10-07T13:00:11Z</time>
</trkpt>
<trkpt lat="39.474715" lon="-8.217557">
<time>2021-10-07T13:00:12Z</time>
</trkpt>
<trkpt lat="39.474708" lon="-8.217515">
<time>2021-10-07T13:00:13Z</time>
</trkpt>
<trkpt lat="39.474701" lon="-8.217471">
<time>2021-10-07T13:00:14Z</time>
</trkpt>
<trkpt lat="39.474692" lon="-8.217432">
<time>2021-10-07T13:00:15Z</time>
</trkpt>
<trkpt lat="39.474683" lon="-8.217391">
<time>2021-10-07T13:00:16Z</time>
</trkpt>
<trkpt lat="39.474671" lon="-8.217349">
<time>2021-10-07T13:00:17Z</time>
</trkpt>
<trkpt lat="39.474659" lon="-8.217309">
<time>2021-10-07T13:00:18Z</time>
</trkpt>
<trkpt lat="39.47465" lon="-8.217268">
<time>2021-10-07T13:00:19Z</time>
</trkpt>
<trkpt lat="39.474641" lon="-8.217227">
<time>2021-10-07T13:00:20Z</time>
</trkpt>
<trkpt lat="39.474629" lon="-8.217188">
<time>2021-10-07T13:00:21Z</time>
</trkpt>
<trkpt lat="39.474619" lon="-8.217152">
<time>2021-10-07T13:00:22Z</time>
</trkpt>
<trkpt lat="39.474608" lon="-8.217114">
<time>2021-10-07T13:00:23Z</time>
</trkpt>
<trkpt lat="39.474595" lon="-8.217076">
<time>2021-10-07T13:00:24Z</time>
</trkpt>
<trkpt lat="39.474585" lon="-8.217035">
<time>2021-10-07T13:00:25Z</time>
</trkpt>
<trkpt lat="39.474578" lon="-8.216993">
<time>2021-10-07T13:00:26Z</time>
</trkpt>
<trkpt lat="39.47457" lon="-8.21695">
<time>2021-10-07T13:00:27Z</time>
</trkpt>
<trkpt lat="39.474565" lon="-8.216905">
<time>2021-10-07T13:00:28Z</time>
</trkpt>
<trkpt lat="39.474569" lon="-8.216858">
<time>2021-10-07T13:00:29Z</time>
</trkpt>
<trkpt lat="39.474581" lon="-8.216816">
<time>2021-10-07T13:00:30Z</time>
</trkpt>
<trkpt lat="39.474606" lon="-8.216795">
<time>2021-10-07T13:00:31Z</time>
</trkpt>
<trkpt lat="39.474638" lon="-8.21678">
<time>2021-10-07T13:00:32Z</time>
</trkpt>
<trkpt lat="39.474672" lon="-8.216766">
<time>2021-10-07T13:00:33Z</time>
</trkpt>
<trkpt lat="39.474707" lon="-8.216755">
<time>2021-10-07T13:00:34Z</time>
</trkpt>
<trkpt lat="39.474741" lon="-8.216748">
<time>2021-10-07T13:00:35Z</time>
</trkpt>
</trkseg>
<name>antoniomariani</name>
</trk>
</gpx>